| time (UTC) | temp F | wind direction | speed knots | gust knots | rain 1hr in | rain 24hr in | rain mn in | humidity % | barometer mb |
| 20260507125129 | 65 | 113 | 5.2 | 7.8 | 0.00 | 0.00 | 0.00 | 62 | 1013.4 |
| 20260507125027 | 65 | 113 | 4.3 | 7.0 | 0.00 | 0.00 | 0.00 | 62 | 1013.4 |
| 20260507124927 | 65 | 117 | 3.5 | 7.0 | 0.00 | 0.00 | 0.00 | 63 | 1013.5 |
| 20260507124828 | 65 | 118 | 2.6 | 7.0 | 0.00 | 0.00 | 0.00 | 63 | 1013.5 |
| 20260507124727 | 65 | 116 | 2.6 | 7.0 | 0.00 | 0.00 | 0.00 | 64 | 1013.5 |
| 20260507124627 | 65 | 115 | 4.3 | 7.0 | 0.00 | 0.00 | 0.00 | 63 | 1013.5 |
| 20260507124528 | 65 | 108 | 3.5 | 7.0 | 0.00 | 0.00 | 0.00 | 64 | 1013.5 |
| 20260507124428 | 65 | 104 | 4.3 | 7.0 | 0.00 | 0.00 | 0.00 | 63 | 1013.6 |
| 20260507124327 | 65 | 98 | 3.5 | 7.8 | 0.00 | 0.00 | 0.00 | 63 | 1013.7 |
| 20260507124227 | 65 | 95 | 4.3 | 7.8 | 0.00 | 0.00 | 0.00 | 63 | 1013.5 |
| 20260507124127 | 65 | 93 | 4.3 | 7.8 | 0.00 | 0.00 | 0.00 | 63 | 1013.5 |
| 20260507124027 | 65 | 86 | 3.5 | 7.8 | 0.00 | 0.00 | 0.00 | 63 | 1013.4 |
| 20260507123928 | 65 | 81 | 3.5 | 7.8 | 0.00 | 0.00 | 0.00 | 64 | 1013.7 |
| 20260507123827 | 65 | 78 | 3.5 | 7.8 | 0.00 | 0.00 | 0.00 | 64 | 1013.6 |
| 20260507123728 | 65 | 76 | 3.5 | 7.8 | 0.00 | 0.00 | 0.00 | 64 | 1013.4 |
| 20260507123628 | 64 | 72 | 5.2 | 7.8 | 0.00 | 0.00 | 0.00 | 64 | 1013.5 |
| 20260507123527 | 64 | 71 | 5.2 | 7.8 | 0.00 | 0.00 | 0.00 | 64 | 1013.3 |
| 20260507123428 | 64 | 72 | 4.3 | 7.8 | 0.00 | 0.00 | 0.00 | 65 | 1013.5 |
| 20260507123327 | 64 | 75 | 4.3 | 7.8 | 0.00 | 0.00 | 0.00 | 65 | 1013.4 |
| 20260507123228 | 64 | 73 | 5.2 | 7.8 | 0.00 | 0.00 | 0.00 | 65 | 1013.5 |
| 20260507123127 | 65 | 74 | 4.3 | 7.8 | 0.00 | 0.00 | 0.00 | 64 | 1013.4 |
| 20260507123028 | 65 | 77 | 3.5 | 7.8 | 0.00 | 0.00 | 0.00 | 64 | 1013.3 |
| 20260507122927 | 64 | 80 | 5.2 | 7.8 | 0.00 | 0.00 | 0.00 | 64 | 1013.5 |
| 20260507122827 | 65 | 78 | 3.5 | 6.1 | 0.00 | 0.00 | 0.00 | 64 | 1013.5 |
| 20260507122728 | 65 | 79 | 3.5 | 6.1 | 0.00 | 0.00 | 0.00 | 65 | 1013.4 |
| 20260507122627 | 65 | 80 | 3.5 | 6.1 | 0.00 | 0.00 | 0.00 | 65 | 1013.5 |
| 20260507122528 | 65 | 78 | 1.7 | 6.1 | 0.00 | 0.00 | 0.00 | 65 | 1013.3 |
| 20260507122428 | 65 | 74 | 2.6 | 7.0 | 0.00 | 0.00 | 0.00 | 65 | 1013.7 |
| 20260507122328 | 65 | 72 | 1.7 | 7.0 | 0.00 | 0.00 | 0.00 | 64 | 1013.7 |
| 20260507122228 | 65 | 71 | 2.6 | 7.0 | 0.00 | 0.00 | 0.00 | 64 | 1013.6 |
| 20260507122127 | 64 | 66 | 4.3 | 7.0 | 0.00 | 0.00 | 0.00 | 63 | 1013.6 |
| 20260507122027 | 65 | 63 | 3.5 | 7.0 | 0.00 | 0.00 | 0.00 | 63 | 1013.5 |
| 20260507121928 | 65 | 63 | 2.6 | 7.0 | 0.00 | 0.00 | 0.00 | 63 | 1013.5 |
| 20260507121827 | 65 | 64 | 1.7 | 7.0 | 0.00 | 0.00 | 0.00 | 63 | 1013.5 |
| 20260507121727 | 65 | 64 | 2.6 | 7.0 | 0.00 | 0.00 | 0.00 | 62 | 1013.5 |
| 20260507121627 | 65 | 65 | 3.5 | 7.0 | 0.00 | 0.00 | 0.00 | 62 | 1013.5 |
| 20260507121527 | 65 | 66 | 3.5 | 7.0 | 0.00 | 0.00 | 0.00 | 63 | 1013.6 |
| 20260507121428 | 65 | 63 | 3.5 | 7.0 | 0.00 | 0.00 | 0.00 | 63 | 1013.5 |
| 20260507121327 | 65 | 63 | 4.3 | 7.8 | 0.00 | 0.00 | 0.00 | 63 | 1013.5 |
| 20260507121227 | 65 | 64 | 1.7 | 7.8 | 0.00 | 0.00 | 0.00 | 63 | 1013.7 |
| 20260507121128 | 65 | 66 | 1.7 | 9.6 | 0.00 | 0.00 | 0.00 | 64 | 1013.5 |
| 20260507121028 | 65 | 67 | 5.2 | 9.6 | 0.00 | 0.00 | 0.00 | 63 | 1013.5 |
| 20260507120927 | 65 | 65 | 4.3 | 9.6 | 0.00 | 0.00 | 0.00 | 63 | 1013.2 |
| 20260507120827 | 65 | 60 | 5.2 | 12.2 | 0.00 | 0.00 | 0.00 | 63 | 1013.5 |
| 20260507120728 | 65 | 60 | 6.1 | 12.2 | 0.00 | 0.00 | 0.00 | 63 | 1013.2 |
| 20260507120627 | 65 | 60 | 4.3 | 12.2 | 0.00 | 0.00 | 0.00 | 63 | 1013.4 |
| 20260507120527 | 65 | 62 | 5.2 | 12.2 | 0.00 | 0.00 | 0.00 | 63 | 1013.5 |
| 20260507120428 | 65 | 66 | 6.1 | 12.2 | 0.00 | 0.00 | 0.00 | 63 | 1013.5 |
| 20260507120328 | 65 | 65 | 4.3 | 12.2 | 0.00 | 0.00 | 0.00 | 63 | 1013.4 |
| 20260507120227 | 65 | 65 | 4.3 | 12.2 | 0.00 | 0.00 | 0.00 | 64 | 1013.4 |
| 20260507120127 | 65 | 66 | 5.2 | 12.2 | 0.00 | 0.00 | 0.00 | 63 | 1013.3 |
| 20260507120028 | 65 | 66 | 7.0 | 12.2 | 0.00 | 0.00 | 0.00 | 63 | 1013.4 |
| 20260507115927 | 65 | 68 | 6.1 | 12.2 | 0.00 | 0.00 | 0.00 | 63 | 1013.4 |
| 20260507115827 | 65 | 74 | 7.0 | 9.6 | 0.00 | 0.00 | 0.00 | 62 | 1013.3 |
| 20260507115727 | 65 | 74 | 5.2 | 9.6 | 0.00 | 0.00 | 0.00 | 63 | 1013.5 |
| 20260507115628 | 66 | 75 | 4.3 | 9.6 | 0.00 | 0.00 | 0.00 | 63 | 1013.0 |
| 20260507115528 | 66 | 72 | 3.5 | 9.6 | 0.00 | 0.00 | 0.00 | 63 | 1013.4 |
| 20260507115427 | 66 | 69 | 3.5 | 9.6 | 0.00 | 0.00 | 0.00 | 64 | 1013.2 |
| 20260507115328 | 66 | 69 | 5.2 | 9.6 | 0.00 | 0.00 | 0.00 | 64 | 1013.4 |
| 20260507115227 | 66 | 70 | 3.5 | 9.6 | 0.00 | 0.00 | 0.00 | 64 | 1013.5 |
| 20260507115128 | 66 | 69 | 4.3 | 9.6 | 0.00 | 0.00 | 0.00 | 65 | 1013.5 |
| 20260507115027 | 65 | 72 | 6.1 | 9.6 | 0.00 | 0.00 | 0.00 | 64 | 1013.4 |
| 20260507114928 | 65 | 74 | 7.0 | 9.6 | 0.00 | 0.00 | 0.00 | 63 | 1013.6 |
| 20260507114828 | 65 | 73 | 6.1 | 9.6 | 0.00 | 0.00 | 0.00 | 64 | 1013.3 |
| 20260507114727 | 65 | 74 | 3.5 | 9.6 | 0.00 | 0.00 | 0.00 | 65 | 1013.3 |
| 20260507114628 | 65 | 73 | 3.5 | 9.6 | 0.00 | 0.00 | 0.00 | 65 | 1013.4 |
| 20260507114527 | 65 | 74 | 3.5 | 9.6 | 0.00 | 0.00 | 0.00 | 65 | 1013.4 |
| 20260507114427 | 65 | 74 | 5.2 | 11.3 | 0.00 | 0.00 | 0.00 | 64 | 1013.4 |
| 20260507114328 | 65 | 76 | 5.2 | 11.3 | 0.00 | 0.00 | 0.00 | 65 | 1013.4 |
| 20260507114228 | 65 | 77 | 7.0 | 11.3 | 0.00 | 0.00 | 0.00 | 64 | 1013.2 |
| 20260507114127 | 65 | 76 | 4.3 | 11.3 | 0.00 | 0.00 | 0.00 | 64 | 1013.2 |
| 20260507114027 | 65 | 76 | 6.1 | 11.3 | 0.00 | 0.00 | 0.00 | 63 | 1013.1 |
| 20260507113928 | 65 | 74 | 5.2 | 11.3 | 0.00 | 0.00 | 0.00 | 64 | 1013.1 |
| 20260507113828 | 66 | 76 | 5.2 | 11.3 | 0.00 | 0.00 | 0.00 | 64 | 1013.1 |
| 20260507113727 | 66 | 77 | 7.0 | 11.3 | 0.00 | 0.00 | 0.00 | 64 | 1013.4 |
| 20260507113628 | 65 | 77 | 6.1 | 11.3 | 0.00 | 0.00 | 0.00 | 64 | 1013.2 |
| 20260507113527 | 66 | 79 | 7.0 | 11.3 | 0.00 | 0.00 | 0.00 | 64 | 1013.2 |
| 20260507113427 | 66 | 80 | 7.8 | 11.3 | 0.00 | 0.00 | 0.00 | 64 | 1013.3 |
| 20260507113327 | 66 | 82 | 6.1 | 9.6 | 0.00 | 0.00 | 0.00 | 65 | 1013.3 |
| 20260507113228 | 65 | 84 | 6.1 | 9.6 | 0.00 | 0.00 | 0.00 | 64 | 1013.2 |
| 20260507113127 | 65 | 88 | 7.0 | 9.6 | 0.00 | 0.00 | 0.00 | 64 | 1013.3 |
| 20260507113027 | 65 | 87 | 7.0 | 9.6 | 0.00 | 0.00 | 0.00 | 64 | 1013.3 |
| 20260507112928 | 65 | 89 | 7.0 | 7.8 | 0.00 | 0.00 | 0.00 | 64 | 1013.3 |
| 20260507112828 | 65 | 89 | 6.1 | 7.8 | 0.00 | 0.00 | 0.00 | 64 | 1013.2 |
| 20260507112728 | 66 | 89 | 4.3 | 7.8 | 0.00 | 0.00 | 0.00 | 66 | 1013.4 |
| 20260507112627 | 65 | 91 | 5.2 | 7.8 | 0.00 | 0.00 | 0.00 | 65 | 1013.4 |
| 20260507112527 | 65 | 90 | 4.3 | 7.8 | 0.00 | 0.00 | 0.00 | 65 | 1013.3 |
| 20260507112427 | 66 | 91 | 5.2 | 7.8 | 0.00 | 0.00 | 0.00 | 66 | 1013.3 |
| 20260507112328 | 66 | 94 | 6.1 | 9.6 | 0.00 | 0.00 | 0.00 | 66 | 1013.3 |
| 20260507112227 | 65 | 94 | 3.5 | 9.6 | 0.00 | 0.00 | 0.00 | 65 | 1013.3 |
| 20260507112127 | 65 | 94 | 4.3 | 9.6 | 0.00 | 0.00 | 0.00 | 65 | 1013.3 |
| 20260507112027 | 66 | 94 | 4.3 | 9.6 | 0.00 | 0.00 | 0.00 | 66 | 1013.3 |
| 20260507111927 | 65 | 96 | 5.2 | 9.6 | 0.00 | 0.00 | 0.00 | 65 | 1013.4 |
| 20260507111828 | 65 | 96 | 4.3 | 9.6 | 0.00 | 0.00 | 0.00 | 65 | 1013.2 |
| 20260507111727 | 65 | 97 | 4.3 | 9.6 | 0.00 | 0.00 | 0.00 | 65 | 1013.4 |
| 20260507111627 | 65 | 96 | 3.5 | 9.6 | 0.00 | 0.00 | 0.00 | 65 | 1013.5 |
| 20260507111528 | 65 | 97 | 6.1 | 9.6 | 0.00 | 0.00 | 0.00 | 64 | 1013.4 |
| 20260507111427 | 66 | 98 | 3.5 | 9.6 | 0.00 | 0.00 | 0.00 | 66 | 1013.4 |
| 20260507111328 | 65 | 93 | 7.0 | 9.6 | 0.00 | 0.00 | 0.00 | 65 | 1013.3 |
| 20260507111227 | 66 | 93 | 5.2 | 9.6 | 0.00 | 0.00 | 0.00 | 65 | 1013.4 |
| 20260507111127 | 66 | 93 | 4.3 | 9.6 | 0.00 | 0.00 | 0.00 | 65 | 1013.3 |
| 20260507111027 | 66 | 95 | 4.3 | 9.6 | 0.00 | 0.00 | 0.00 | 65 | 1013.4 |
| 20260507110927 | 66 | 92 | 3.5 | 9.6 | 0.00 | 0.00 | 0.00 | 66 | 1013.4 |
| 20260507110828 | 66 | 91 | 3.5 | 9.6 | 0.00 | 0.00 | 0.00 | 65 | 1013.3 |
| 20260507110727 | 67 | 90 | 2.6 | 9.6 | 0.00 | 0.00 | 0.00 | 66 | 1013.2 |
| 20260507110627 | 66 | 88 | 4.3 | 9.6 | 0.00 | 0.00 | 0.00 | 66 | 1013.4 |
| 20260507110527 | 66 | 85 | 7.0 | 9.6 | 0.00 | 0.00 | 0.00 | 65 | 1013.3 |
| 20260507110427 | 66 | 82 | 7.0 | 9.6 | 0.00 | 0.00 | 0.00 | 65 | 1013.4 |
| 20260507110327 | 66 | 81 | 4.3 | 9.6 | 0.00 | 0.00 | 0.00 | 66 | 1013.4 |
| 20260507110227 | 66 | 78 | 4.3 | 9.6 | 0.00 | 0.00 | 0.00 | 65 | 1013.4 |
| 20260507110127 | 66 | 72 | 4.3 | 9.6 | 0.00 | 0.00 | 0.00 | 66 | 1013.3 |
| 20260507110027 | 66 | 67 | 7.0 | 9.6 | 0.00 | 0.00 | 0.00 | 66 | 1013.5 |
| 20260507105928 | 66 | 65 | 5.2 | 9.6 | 0.00 | 0.00 | 0.00 | 66 | 1013.3 |
| 20260507105827 | 66 | 64 | 3.5 | 9.6 | 0.00 | 0.00 | 0.00 | 66 | 1013.3 |
| 20260507105728 | 65 | 63 | 4.3 | 9.6 | 0.00 | 0.00 | 0.00 | 66 | 1013.3 |
| 20260507105627 | 65 | 63 | 6.1 | 9.6 | 0.00 | 0.00 | 0.00 | 65 | 1013.6 |
| 20260507105527 | 66 | 64 | 7.0 | 9.6 | 0.00 | 0.00 | 0.00 | 66 | 1013.3 |
| 20260507105427 | 66 | 64 | 4.3 | 7.8 | 0.00 | 0.00 | 0.00 | 66 | 1013.5 |
| 20260507105327 | 66 | 66 | 4.3 | 7.0 | 0.00 | 0.00 | 0.00 | 65 | 1013.4 |
| 20260507105227 | 66 | 66 | 4.3 | 7.0 | 0.00 | 0.00 | 0.00 | 66 | 1013.6 |
| 20260507105127 | 66 | 70 | 3.5 | 7.0 | 0.00 | 0.00 | 0.00 | 66 | 1013.5 |
| 20260507105028 | 66 | 77 | 2.6 | 7.0 | 0.00 | 0.00 | 0.00 | 65 | 1013.5 |
| 20260507104927 | 67 | 74 | 3.5 | 7.0 | 0.00 | 0.00 | 0.00 | 66 | 1013.4 |
| 20260507104827 | 66 | 75 | 2.6 | 7.0 | 0.00 | 0.00 | 0.00 | 65 | 1013.4 |
| 20260507104727 | 66 | 76 | 3.5 | 7.0 | 0.00 | 0.00 | 0.00 | 65 | 1013.4 |
| 20260507104628 | 66 | 78 | 3.5 | 7.0 | 0.00 | 0.00 | 0.00 | 65 | 1013.5 |
| 20260507104527 | 66 | 78 | 5.2 | 7.0 | 0.00 | 0.00 | 0.00 | 65 | 1013.4 |
| 20260507104427 | 66 | 79 | 4.3 | 7.0 | 0.00 | 0.00 | 0.00 | 65 | 1013.5 |
| 20260507104327 | 67 | 79 | 3.5 | 7.0 | 0.00 | 0.00 | 0.00 | 66 | 1013.7 |
| 20260507104227 | 66 | 81 | 3.5 | 7.0 | 0.00 | 0.00 | 0.00 | 65 | 1013.6 |
| 20260507104127 | 66 | 83 | 2.6 | 7.0 | 0.00 | 0.00 | 0.00 | 65 | 1013.4 |
| 20260507104028 | 66 | 84 | 3.5 | 7.0 | 0.00 | 0.00 | 0.00 | 65 | 1013.5 |
| 20260507103927 | 66 | 91 | 3.5 | 7.0 | 0.00 | 0.00 | 0.00 | 66 | 1013.5 |
| 20260507103827 | 66 | 95 | 3.5 | 7.0 | 0.00 | 0.00 | 0.00 | 66 | 1013.5 |
| 20260507103728 | 66 | 96 | 3.5 | 7.0 | 0.00 | 0.00 | 0.00 | 66 | 1013.8 |
| 20260507103627 | 66 | 99 | 2.6 | 7.0 | 0.00 | 0.00 | 0.00 | 66 | 1013.6 |
| 20260507103527 | 66 | 103 | 5.2 | 7.0 | 0.00 | 0.00 | 0.00 | 66 | 1013.7 |
| 20260507103427 | 66 | 107 | 3.5 | 6.1 | 0.00 | 0.00 | 0.00 | 67 | 1013.5 |
| 20260507103328 | 65 | 109 | 3.5 | 6.1 | 0.00 | 0.00 | 0.00 | 66 | 1013.7 |
| 20260507103227 | 66 | 114 | 3.5 | 6.1 | 0.00 | 0.00 | 0.00 | 66 | 1013.6 |
| 20260507103127 | 66 | 111 | 3.5 | 5.2 | 0.00 | 0.00 | 0.00 | 65 | 1013.8 |
| 20260507103027 | 66 | 113 | 3.5 | 5.2 | 0.00 | 0.00 | 0.00 | 65 | 1013.8 |
| 20260507102927 | 66 | 104 | 3.5 | 5.2 | 0.00 | 0.00 | 0.00 | 64 | 1013.9 |
| 20260507102827 | 66 | 107 | 1.7 | 3.5 | 0.00 | 0.00 | 0.00 | 64 | 1013.8 |
| 20260507102728 | 66 | 114 | 1.7 | 3.5 | 0.00 | 0.00 | 0.00 | 63 | 1013.7 |
| 20260507102627 | 66 | 118 | 1.7 | 3.5 | 0.00 | 0.00 | 0.00 | 63 | 1013.8 |
| 20260507102527 | 66 | 118 | 0.9 | 3.5 | 0.00 | 0.00 | 0.00 | 64 | 1013.6 |
| 20260507102428 | 66 | 120 | 1.7 | 3.5 | 0.00 | 0.00 | 0.00 | 64 | 1013.6 |
| 20260507102327 | 66 | 122 | 0.9 | 3.5 | 0.00 | 0.00 | 0.00 | 64 | 1013.7 |
| 20260507102227 | 66 | 123 | 1.7 | 3.5 | 0.00 | 0.00 | 0.00 | 63 | 1013.5 |
| 20260507102128 | 66 | 124 | 1.7 | 3.5 | 0.00 | 0.00 | 0.00 | 64 | 1013.8 |
| 20260507102027 | 66 | 127 | 1.7 | 3.5 | 0.00 | 0.00 | 0.00 | 64 | 1013.6 |
| 20260507101927 | 66 | 131 | 1.7 | 5.2 | 0.00 | 0.00 | 0.00 | 64 | 1013.6 |
| 20260507101827 | 65 | 134 | 2.6 | 5.2 | 0.00 | 0.00 | 0.00 | 64 | 1013.6 |
| 20260507101727 | 65 | 132 | 2.6 | 5.2 | 0.00 | 0.00 | 0.00 | 64 | 1013.5 |
| 20260507101627 | 66 | 130 | 1.7 | 5.2 | 0.00 | 0.00 | 0.00 | 64 | 1013.6 |
| 20260507101527 | 66 | 129 | 1.7 | 5.2 | 0.00 | 0.00 | 0.00 | 64 | 1013.3 |
| 20260507101427 | 66 | 127 | 0.9 | 5.2 | 0.00 | 0.00 | 0.00 | 65 | 1013.6 |
| 20260507101327 | 66 | 123 | 1.7 | 5.2 | 0.00 | 0.00 | 0.00 | 65 | 1013.5 |
| 20260507101227 | 65 | 118 | 1.7 | 5.2 | 0.00 | 0.00 | 0.00 | 65 | 1013.3 |
| 20260507101127 | 65 | 112 | 2.6 | 5.2 | 0.00 | 0.00 | 0.00 | 64 | 1013.4 |
| 20260507101027 | 65 | 106 | 3.5 | 5.2 | 0.00 | 0.00 | 0.00 | 64 | 1013.3 |
| 20260507100927 | 66 | 98 | 1.7 | 3.5 | 0.00 | 0.00 | 0.00 | 65 | 1013.5 |
| 20260507100827 | 66 | 92 | 1.7 | 3.5 | 0.00 | 0.00 | 0.00 | 64 | 1013.4 |
| 20260507100727 | 66 | 79 | 1.7 | 3.5 | 0.00 | 0.00 | 0.00 | 65 | 1013.5 |
| 20260507100627 | 66 | 77 | 0.9 | 3.5 | 0.00 | 0.00 | 0.00 | 65 | 1013.3 |
| 20260507100527 | 66 | 75 | 0.9 | 3.5 | 0.00 | 0.00 | 0.00 | 65 | 1013.5 |
| 20260507100427 | 66 | 69 | 1.7 | 3.5 | 0.00 | 0.00 | 0.00 | 65 | 1013.3 |
| 20260507100328 | 66 | 66 | 1.7 | 5.2 | 0.00 | 0.00 | 0.00 | 65 | 1013.3 |
| 20260507100227 | 66 | 63 | 1.7 | 7.0 | 0.00 | 0.00 | 0.00 | 65 | 1013.4 |
| 20260507100127 | 66 | 64 | 1.7 | 9.6 | 0.00 | 0.00 | 0.00 | 65 | 1013.3 |
| 20260507100027 | 66 | 64 | 1.7 | 9.6 | 0.00 | 0.00 | 0.00 | 64 | 1013.4 |
| 20260507095927 | 66 | 63 | 0.9 | 9.6 | 0.00 | 0.00 | 0.00 | 65 | 1013.3 |
| 20260507095827 | 66 | 62 | 1.7 | 9.6 | 0.00 | 0.00 | 0.00 | 64 | 1013.3 |
| 20260507095728 | 66 | 64 | 1.7 | 9.6 | 0.00 | 0.00 | 0.00 | 65 | 1013.4 |
| 20260507095627 | 66 | 65 | 1.7 | 9.6 | 0.00 | 0.00 | 0.00 | 65 | 1013.2 |
| 20260507095527 | 65 | 65 | 1.7 | 9.6 | 0.00 | 0.00 | 0.00 | 65 | 1013.6 |
| 20260507095427 | 65 | 65 | 3.5 | 9.6 | 0.00 | 0.00 | 0.00 | 65 | 1013.3 |
| 20260507095327 | 65 | 67 | 3.5 | 9.6 | 0.00 | 0.00 | 0.00 | 65 | 1013.4 |
| 20260507095227 | 65 | 69 | 5.2 | 9.6 | 0.00 | 0.00 | 0.00 | 65 | 1013.2 |
| 20260507095127 | 65 | 71 | 6.1 | 9.6 | 0.00 | 0.00 | 0.00 | 65 | 1013.3 |
| 20260507095028 | 65 | 76 | 3.5 | 7.0 | 0.00 | 0.00 | 0.00 | 65 | 1013.4 |
| 20260507094927 | 66 | 83 | 4.3 | 7.0 | 0.00 | 0.00 | 0.00 | 66 | 1013.4 |
| 20260507094828 | 66 | 87 | 3.5 | 7.0 | 0.00 | 0.00 | 0.00 | 66 | 1013.3 |
| 20260507094727 | 66 | 90 | 3.5 | 7.0 | 0.00 | 0.00 | 0.00 | 66 | 1013.5 |
| 20260507094627 | 65 | 94 | 2.6 | 7.0 | 0.00 | 0.00 | 0.00 | 65 | 1013.3 |
| 20260507094527 | 65 | 93 | 3.5 | 7.8 | 0.00 | 0.00 | 0.00 | 64 | 1013.4 |
| 20260507094427 | 66 | 93 | 2.6 | 7.8 | 0.00 | 0.00 | 0.00 | 65 | 1013.5 |
| 20260507094327 | 66 | 94 | 1.7 | 9.6 | 0.00 | 0.00 | 0.00 | 65 | 1013.4 |
| 20260507094227 | 66 | 91 | 1.7 | 9.6 | 0.00 | 0.00 | 0.00 | 65 | 1013.5 |
| 20260507094127 | 65 | 87 | 1.7 | 9.6 | 0.00 | 0.00 | 0.00 | 65 | 1013.4 |
| 20260507094028 | 65 | 84 | 4.3 | 9.6 | 0.00 | 0.00 | 0.00 | 64 | 1013.6 |
| 20260507093927 | 66 | 80 | 3.5 | 9.6 | 0.00 | 0.00 | 0.00 | 65 | 1013.4 |
| 20260507093827 | 65 | 77 | 5.2 | 9.6 | 0.00 | 0.00 | 0.00 | 65 | 1013.4 |
| 20260507093727 | 65 | 73 | 5.2 | 9.6 | 0.00 | 0.00 | 0.00 | 66 | 1013.5 |
| 20260507093627 | 65 | 69 | 4.3 | 9.6 | 0.00 | 0.00 | 0.00 | 67 | 1013.6 |
| 20260507093527 | 64 | 68 | 7.0 | 9.6 | 0.00 | 0.00 | 0.00 | 67 | 1013.5 |
| 20260507093427 | 65 | 66 | 7.0 | 9.6 | 0.00 | 0.00 | 0.00 | 68 | 1013.6 |
| 20260507093327 | 65 | 65 | 7.0 | 9.6 | 0.00 | 0.00 | 0.00 | 68 | 1013.4 |
| 20260507093227 | 65 | 65 | 6.1 | 9.6 | 0.00 | 0.00 | 0.00 | 68 | 1013.5 |
| 20260507093127 | 65 | 65 | 6.1 | 9.6 | 0.00 | 0.00 | 0.00 | 68 | 1013.4 |
| 20260507093027 | 65 | 63 | 3.5 | 9.6 | 0.00 | 0.00 | 0.00 | 69 | 1013.4 |
| 20260507092927 | 65 | 62 | 6.1 | 9.6 | 0.00 | 0.00 | 0.00 | 68 | 1013.3 |
| 20260507092827 | 64 | 60 | 7.0 | 9.6 | 0.00 | 0.00 | 0.00 | 67 | 1013.2 |
| 20260507092727 | 65 | 59 | 7.8 | 9.6 | 0.00 | 0.00 | 0.00 | 67 | 1013.4 |
| 20260507092627 | 65 | 53 | 6.1 | 9.6 | 0.00 | 0.00 | 0.00 | 67 | 1013.2 |
| 20260507092527 | 65 | 52 | 7.0 | 9.6 | 0.00 | 0.00 | 0.00 | 66 | 1013.4 |
| 20260507092428 | 65 | 52 | 5.2 | 9.6 | 0.00 | 0.00 | 0.00 | 67 | 1013.3 |
| 20260507092327 | 66 | 53 | 4.3 | 9.6 | 0.00 | 0.00 | 0.00 | 68 | 1013.3 |
| 20260507092227 | 65 | 52 | 5.2 | 9.6 | 0.00 | 0.00 | 0.00 | 68 | 1013.4 |
| 20260507092127 | 65 | 48 | 5.2 | 9.6 | 0.00 | 0.00 | 0.00 | 67 | 1013.3 |
| 20260507092027 | 65 | 43 | 5.2 | 9.6 | 0.00 | 0.00 | 0.00 | 68 | 1013.5 |
| 20260507091927 | 65 | 44 | 6.1 | 9.6 | 0.00 | 0.00 | 0.00 | 68 | 1013.4 |
| 20260507091827 | 65 | 44 | 1.7 | 9.6 | 0.00 | 0.00 | 0.00 | 68 | 1013.5 |
| 20260507091727 | 65 | 44 | 5.2 | 9.6 | 0.00 | 0.00 | 0.00 | 68 | 1013.6 |
| 20260507091627 | 65 | 48 | 5.2 | 9.6 | 0.00 | 0.00 | 0.00 | 69 | 1013.4 |
| 20260507091527 | 64 | 45 | 6.1 | 9.6 | 0.00 | 0.00 | 0.00 | 68 | 1013.4 |
| 20260507091427 | 65 | 38 | 7.0 | 9.6 | 0.00 | 0.00 | 0.00 | 69 | 1013.5 |
| 20260507091327 | 65 | 34 | 7.0 | 9.6 | 0.00 | 0.00 | 0.00 | 68 | 1013.5 |
| 20260507091227 | 65 | 32 | 5.2 | 9.6 | 0.00 | 0.00 | 0.00 | 69 | 1013.4 |
| 20260507091127 | 65 | 31 | 4.3 | 12.2 | 0.00 | 0.00 | 0.00 | 68 | 1013.3 |
| 20260507091027 | 65 | 37 | 7.0 | 12.2 | 0.00 | 0.00 | 0.00 | 68 | 1013.3 |
| 20260507090927 | 65 | 38 | 7.0 | 12.2 | 0.00 | 0.00 | 0.00 | 68 | 1013.1 |
| 20260507090827 | 65 | 41 | 6.1 | 12.2 | 0.00 | 0.00 | 0.00 | 68 | 1013.3 |
| 20260507090727 | 65 | 42 | 5.2 | 12.2 | 0.00 | 0.00 | 0.00 | 69 | 1013.3 |
| 20260507090627 | 65 | 43 | 3.5 | 12.2 | 0.00 | 0.00 | 0.00 | 68 | 1013.5 |
| 20260507090527 | 65 | 48 | 4.3 | 12.2 | 0.00 | 0.00 | 0.00 | 68 | 1013.5 |
| 20260507090427 | 65 | 54 | 7.0 | 12.2 | 0.00 | 0.00 | 0.00 | 68 | 1013.1 |
| 20260507090327 | 65 | 57 | 6.1 | 12.2 | 0.00 | 0.00 | 0.00 | 68 | 1013.2 |
| 20260507090227 | 65 | 59 | 7.0 | 12.2 | 0.00 | 0.00 | 0.00 | 68 | 1013.4 |
| 20260507090127 | 65 | 66 | 7.0 | 9.6 | 0.00 | 0.00 | 0.00 | 68 | 1013.2 |
| 20260507090027 | 65 | 64 | 3.5 | 9.6 | 0.00 | 0.00 | 0.00 | 68 | 1013.1 |
| 20260507085927 | 65 | 66 | 5.2 | 9.6 | 0.00 | 0.00 | 0.00 | 68 | 1013.2 |
| 20260507085827 | 64 | 65 | 6.1 | 9.6 | 0.00 | 0.00 | 0.00 | 68 | 1013.3 |
| 20260507085727 | 65 | 67 | 4.3 | 9.6 | 0.00 | 0.00 | 0.00 | 70 | 1013.3 |
| 20260507085627 | 64 | 66 | 6.1 | 9.6 | 0.00 | 0.00 | 0.00 | 69 | 1013.2 |
| 20260507085527 | 64 | 65 | 7.0 | 9.6 | 0.00 | 0.00 | 0.00 | 69 | 1013.2 |
| 20260507085427 | 64 | 65 | 5.2 | 9.6 | 0.00 | 0.00 | 0.00 | 70 | 1013.3 |
| 20260507085327 | 64 | 63 | 6.1 | 9.6 | 0.00 | 0.00 | 0.00 | 70 | 1013.4 |
| 20260507085227 | 64 | 61 | 7.0 | 9.6 | 0.00 | 0.00 | 0.00 | 69 | 1013.4 |
| 20260507085127 | 64 | 58 | 7.8 | 9.6 | 0.00 | 0.00 | 0.00 | 69 | 1013.3 |
| 20260507085027 | 64 | 59 | 7.0 | 9.6 | 0.00 | 0.00 | 0.00 | 69 | 1013.3 |
| 20260507084927 | 64 | 54 | 3.5 | 7.8 | 0.00 | 0.00 | 0.00 | 70 | 1013.3 |
| 20260507084827 | 64 | 53 | 5.2 | 7.8 | 0.00 | 0.00 | 0.00 | 69 | 1013.1 |
| 20260507084727 | 64 | 49 | 6.1 | 7.8 | 0.00 | 0.00 | 0.00 | 69 | 1013.0 |
| 20260507084627 | 64 | 51 | 4.3 | 7.8 | 0.00 | 0.00 | 0.00 | 69 | 1013.3 |
| 20260507084527 | 64 | 52 | 3.5 | 7.8 | 0.00 | 0.00 | 0.00 | 69 | 1013.4 |
| 20260507084427 | 64 | 51 | 3.5 | 7.8 | 0.00 | 0.00 | 0.00 | 68 | 1013.2 |
| 20260507084327 | 64 | 52 | 4.3 | 7.8 | 0.00 | 0.00 | 0.00 | 68 | 1013.3 |
| 20260507084227 | 64 | 55 | 3.5 | 7.8 | 0.00 | 0.00 | 0.00 | 68 | 1013.2 |
| 20260507084127 | 64 | 58 | 3.5 | 9.6 | 0.00 | 0.00 | 0.00 | 68 | 1013.4 |
| 20260507084027 | 64 | 59 | 3.5 | 9.6 | 0.00 | 0.00 | 0.00 | 68 | 1013.3 |
| 20260507083927 | 64 | 61 | 3.5 | 9.6 | 0.00 | 0.00 | 0.00 | 69 | 1013.5 |
| 20260507083827 | 64 | 62 | 3.5 | 9.6 | 0.00 | 0.00 | 0.00 | 69 | 1013.3 |
| 20260507083727 | 64 | 62 | 3.5 | 9.6 | 0.00 | 0.00 | 0.00 | 68 | 1013.4 |
| 20260507083627 | 64 | 62 | 4.3 | 9.6 | 0.00 | 0.00 | 0.00 | 68 | 1013.3 |
| 20260507083527 | 64 | 62 | 3.5 | 9.6 | 0.00 | 0.00 | 0.00 | 69 | 1013.3 |
| 20260507083427 | 64 | 63 | 4.3 | 9.6 | 0.00 | 0.00 | 0.00 | 68 | 1013.5 |
| 20260507083327 | 64 | 65 | 3.5 | 9.6 | 0.00 | 0.00 | 0.00 | 68 | 1013.4 |
| 20260507083227 | 64 | 65 | 4.3 | 9.6 | 0.00 | 0.00 | 0.00 | 68 | 1013.4 |
| 20260507083127 | 65 | 65 | 4.3 | 7.8 | 0.00 | 0.00 | 0.00 | 67 | 1013.5 |
| 20260507083027 | 65 | 67 | 3.5 | 7.0 | 0.00 | 0.00 | 0.00 | 68 | 1013.4 |
| 20260507082928 | 65 | 68 | 3.5 | 7.0 | 0.00 | 0.00 | 0.00 | 67 | 1013.4 |
| 20260507082827 | 65 | 72 | 3.5 | 7.0 | 0.00 | 0.00 | 0.00 | 66 | 1013.4 |
| 20260507082727 | 65 | 72 | 3.5 | 7.0 | 0.00 | 0.00 | 0.00 | 66 | 1013.6 |
| 20260507082627 | 65 | 71 | 3.5 | 7.0 | 0.00 | 0.00 | 0.00 | 65 | 1013.4 |
| 20260507082527 | 66 | 72 | 2.6 | 7.0 | 0.00 | 0.00 | 0.00 | 66 | 1013.5 |
| 20260507082427 | 66 | 71 | 2.6 | 7.0 | 0.00 | 0.00 | 0.00 | 66 | 1013.4 |
| 20260507082327 | 65 | 57 | 3.5 | 7.0 | 0.00 | 0.00 | 0.00 | 65 | 1013.5 |
| 20260507082227 | 65 | 338 | 3.5 | 7.0 | 0.00 | 0.00 | 0.00 | 64 | 1013.4 |
| 20260507082127 | 65 | 272 | 3.5 | 7.0 | 0.00 | 0.00 | 0.00 | 64 | 1013.5 |
| 20260507082027 | 66 | 267 | 3.5 | 6.1 | 0.00 | 0.00 | 0.00 | 64 | 1013.5 |
| 20260507081927 | 66 | 275 | 1.7 | 3.5 | 0.00 | 0.00 | 0.00 | 63 | 1013.3 |
| 20260507081827 | 66 | 284 | 0.9 | 3.5 | 0.00 | 0.00 | 0.00 | 63 | 1013.6 |
| 20260507081727 | 65 | 282 | 0.9 | 1.7 | 0.00 | 0.00 | 0.00 | 63 | 1013.6 |
| 20260507081627 | 65 | 288 | 0.9 | 1.7 | 0.00 | 0.00 | 0.00 | 63 | 1013.5 |
| 20260507081527 | 65 | 291 | 0.9 | 1.7 | 0.00 | 0.00 | 0.00 | 62 | 1013.5 |
| 20260507081427 | 65 | 290 | 0.9 | 1.7 | 0.00 | 0.00 | 0.00 | 63 | 1013.6 |
| 20260507081327 | 65 | 293 | 1.7 | 1.7 | 0.00 | 0.00 | 0.00 | 63 | 1013.4 |
| 20260507081227 | 65 | 292 | 0.9 | 1.7 | 0.00 | 0.00 | 0.00 | 63 | 1013.5 |
| 20260507081127 | 66 | 292 | 0.9 | 1.7 | 0.00 | 0.00 | 0.00 | 64 | 1013.5 |
| 20260507081027 | 65 | 294 | 1.7 | 1.7 | 0.00 | 0.00 | 0.00 | 64 | 1013.4 |
| 20260507080927 | 65 | 298 | 0.9 | 1.7 | 0.00 | 0.00 | 0.00 | 64 | 1013.5 |
| 20260507080827 | 65 | 302 | 0.0 | 1.7 | 0.00 | 0.00 | 0.00 | 64 | 1013.5 |
| 20260507080727 | 65 | 305 | 0.9 | 1.7 | 0.00 | 0.00 | 0.00 | 64 | 1013.2 |
| 20260507080627 | 65 | 308 | 1.7 | 1.7 | 0.00 | 0.00 | 0.00 | 64 | 1013.2 |
| 20260507080527 | 65 | 309 | 0.9 | 1.7 | 0.00 | 0.00 | 0.00 | 64 | 1013.4 |
| 20260507080427 | 65 | 315 | 0.0 | 3.5 | 0.00 | 0.00 | 0.00 | 64 | 1013.3 |
| 20260507080327 | 65 | 346 | 0.9 | 5.2 | 0.00 | 0.00 | 0.00 | 64 | 1013.3 |
| 20260507080227 | 66 | 27 | 0.9 | 5.2 | 0.00 | 0.00 | 0.00 | 65 | 1012.9 |
| 20260507080127 | 65 | 66 | 1.7 | 5.2 | 0.00 | 0.00 | 0.00 | 64 | 1013.4 |
| 20260507080027 | 65 | 98 | 1.7 | 5.2 | 0.00 | 0.00 | 0.00 | 63 | 1013.2 |
| 20260507075927 | 65 | 119 | 1.7 | 5.2 | 0.00 | 0.00 | 0.00 | 63 | 1013.2 |
| 20260507075827 | 65 | 122 | 1.7 | 5.2 | 0.00 | 0.00 | 0.00 | 63 | 1013.3 |
| 20260507075727 | 66 | 115 | 1.7 | 5.2 | 0.00 | 0.00 | 0.00 | 62 | 1013.4 |
| 20260507075627 | 66 | 112 | 0.9 | 5.2 | 0.00 | 0.00 | 0.00 | 62 | 1013.2 |
| 20260507075527 | 66 | 113 | 1.7 | 5.2 | 0.00 | 0.00 | 0.00 | 62 | 1013.1 |
| 20260507075427 | 66 | 114 | 1.7 | 5.2 | 0.00 | 0.00 | 0.00 | 62 | 1013.1 |
| 20260507075327 | 66 | 111 | 0.9 | 5.2 | 0.00 | 0.00 | 0.00 | 65 | 1013.2 |
| 20260507075227 | 66 | 106 | 0.9 | 5.2 | 0.00 | 0.00 | 0.00 | 65 | 1013.3 |
| 20260507075127 | 65 | 103 | 2.6 | 5.2 | 0.00 | 0.00 | 0.00 | 65 | 1013.3 |
| 20260507075027 | 66 | 98 | 3.5 | 5.2 | 0.00 | 0.00 | 0.00 | 65 | 1013.1 |
| 20260507074927 | 65 | 93 | 1.7 | 5.2 | 0.00 | 0.00 | 0.00 | 64 | 1013.1 |
| 20260507074827 | 65 | 92 | 2.6 | 5.2 | 0.00 | 0.00 | 0.00 | 64 | 1013.0 |
| 20260507074727 | 65 | 94 | 3.5 | 5.2 | 0.00 | 0.00 | 0.00 | 63 | 1013.0 |
| 20260507074627 | 65 | 87 | 1.7 | 3.5 | 0.00 | 0.00 | 0.00 | 64 | 1013.3 |
| 20260507074527 | 65 | 82 | 2.6 | 3.5 | 0.00 | 0.00 | 0.00 | 63 | 1013.2 |
| 20260507074427 | 66 | 76 | 2.6 | 3.5 | 0.00 | 0.00 | 0.00 | 64 | 1013.2 |
| 20260507074327 | 66 | 79 | 2.6 | 3.5 | 0.00 | 0.00 | 0.00 | 64 | 1013.1 |
| 20260507074227 | 66 | 76 | 2.6 | 3.5 | 0.00 | 0.00 | 0.00 | 64 | 1013.0 |
| 20260507074127 | 66 | 73 | 1.7 | 3.5 | 0.00 | 0.00 | 0.00 | 65 | 1013.2 |
| 20260507074027 | 66 | 71 | 1.7 | 3.5 | 0.00 | 0.00 | 0.00 | 65 | 1013.0 |
| 20260507073927 | 66 | 70 | 1.7 | 3.5 | 0.00 | 0.00 | 0.00 | 66 | 1013.4 |
| 20260507073827 | 65 | 71 | 1.7 | 3.5 | 0.00 | 0.00 | 0.00 | 66 | 1013.2 |
| 20260507073727 | 65 | 76 | 1.7 | 3.5 | 0.00 | 0.00 | 0.00 | 66 | 1013.3 |
| 20260507073627 | 65 | 89 | 2.6 | 3.5 | 0.00 | 0.00 | 0.00 | 66 | 1013.3 |
| 20260507073527 | 65 | 98 | 1.7 | 3.5 | 0.00 | 0.00 | 0.00 | 65 | 1013.4 |
| 20260507073427 | 65 | 101 | 1.7 | 3.5 | 0.00 | 0.00 | 0.00 | 65 | 1013.2 |
| 20260507073327 | 65 | 102 | 1.7 | 3.5 | 0.00 | 0.00 | 0.00 | 65 | 1013.2 |
| 20260507073227 | 66 | 123 | 1.7 | 3.5 | 0.00 | 0.00 | 0.00 | 65 | 1013.2 |
| 20260507073127 | 66 | 156 | 1.7 | 3.5 | 0.00 | 0.00 | 0.00 | 64 | 1013.2 |
| 20260507073027 | 66 | 177 | 0.0 | 3.5 | 0.00 | 0.00 | 0.00 | 65 | 1013.4 |
| 20260507072927 | 66 | 207 | 0.0 | 3.5 | 0.00 | 0.00 | 0.00 | 65 | 1013.3 |
| 20260507072827 | 65 | 253 | 0.9 | 3.5 | 0.00 | 0.00 | 0.00 | 65 | 1013.3 |
| 20260507072728 | 65 | 266 | 1.7 | 3.5 | 0.00 | 0.00 | 0.00 | 65 | 1013.2 |
| 20260507072627 | 66 | 273 | 1.7 | 3.5 | 0.00 | 0.00 | 0.00 | 66 | 1013.3 |
| 20260507072527 | 66 | 277 | 0.0 | 3.5 | 0.00 | 0.00 | 0.00 | 67 | 1013.3 |
| 20260507072427 | 65 | 277 | 0.9 | 3.5 | 0.00 | 0.00 | 0.00 | 67 | 1013.3 |
| 20260507072327 | 65 | 278 | 0.9 | 3.5 | 0.00 | 0.00 | 0.00 | 68 | 1013.2 |
| 20260507072227 | 65 | 281 | 1.7 | 3.5 | 0.00 | 0.00 | 0.00 | 68 | 1013.3 |
| 20260507072127 | 64 | 282 | 1.7 | 3.5 | 0.00 | 0.00 | 0.00 | 68 | 1013.3 |
| 20260507072027 | 64 | 280 | 1.7 | 3.5 | 0.00 | 0.00 | 0.00 | 67 | 1013.3 |
| 20260507071927 | 64 | 276 | 2.6 | 3.5 | 0.00 | 0.00 | 0.00 | 67 | 1013.2 |
| 20260507071827 | 64 | 269 | 0.9 | 1.7 | 0.00 | 0.00 | 0.00 | 67 | 1013.2 |
| 20260507071727 | 65 | 263 | 1.7 | 3.5 | 0.00 | 0.00 | 0.00 | 68 | 1013.2 |
| 20260507071627 | 65 | 257 | 0.9 | 3.5 | 0.00 | 0.00 | 0.00 | 68 | 1013.2 |
| 20260507071527 | 65 | 259 | 0.9 | 3.5 | 0.00 | 0.00 | 0.00 | 68 | 1013.3 |
| 20260507071427 | 65 | 262 | 0.9 | 3.5 | 0.00 | 0.00 | 0.00 | 69 | 1013.4 |
| 20260507071327 | 65 | 264 | 1.7 | 3.5 | 0.00 | 0.00 | 0.00 | 69 | 1013.3 |
| 20260507071227 | 64 | 265 | 0.9 | 3.5 | 0.00 | 0.00 | 0.00 | 68 | 1013.4 |
| 20260507071127 | 65 | 261 | 0.9 | 3.5 | 0.00 | 0.00 | 0.00 | 68 | 1013.4 |
| 20260507071027 | 64 | 260 | 0.0 | 3.5 | 0.00 | 0.00 | 0.00 | 67 | 1013.4 |
| 20260507070927 | 65 | 254 | 0.9 | 3.5 | 0.00 | 0.00 | 0.00 | 67 | 1013.3 |
| 20260507070827 | 65 | 256 | 0.9 | 3.5 | 0.00 | 0.00 | 0.00 | 67 | 1013.1 |
| 20260507070727 | 65 | 264 | 1.7 | 3.5 | 0.00 | 0.00 | 0.00 | 67 | 1013.2 |
| 20260507070627 | 65 | 274 | 0.9 | 1.7 | 0.00 | 0.00 | 0.00 | 67 | 1013.5 |
| 20260507070527 | 65 | 272 | 1.7 | 1.7 | 0.00 | 0.00 | 0.00 | 68 | 1013.2 |
| 20260507070427 | 65 | 260 | 0.9 | 3.5 | 0.00 | 0.00 | 0.00 | 68 | 1013.3 |
| 20260507070327 | 65 | 259 | 0.9 | 3.5 | 0.00 | 0.00 | 0.00 | 68 | 1013.3 |
| 20260507070227 | 65 | 264 | 1.7 | 5.2 | 0.00 | 0.00 | 0.00 | 68 | 1013.4 |
| 20260507070127 | 64 | 275 | 0.9 | 5.2 | 0.00 | 0.00 | 0.00 | 69 | 1013.4 |
| 20260507070027 | 64 | 280 | 0.9 | 5.2 | 0.00 | 0.00 | 0.00 | 69 | 1013.1 |
| 20260507065927 | 64 | 285 | 0.9 | 5.2 | 0.00 | 0.00 | 0.00 | 70 | 1013.3 |
| 20260507065827 | 63 | 287 | 0.9 | 5.2 | 0.00 | 0.00 | 0.00 | 70 | 1013.3 |
| 20260507065727 | 63 | 286 | 1.7 | 5.2 | 0.00 | 0.00 | 0.00 | 70 | 1013.3 |
| 20260507065627 | 64 | 288 | 0.9 | 5.2 | 0.00 | 0.00 | 0.00 | 71 | 1013.2 |
| 20260507065527 | 63 | 289 | 1.7 | 5.2 | 0.00 | 0.00 | 0.00 | 71 | 1013.2 |
| 20260507065427 | 62 | 295 | 1.7 | 5.2 | 0.00 | 0.00 | 0.00 | 72 | 1013.5 |
| 20260507065327 | 62 | 296 | 1.7 | 5.2 | 0.00 | 0.00 | 0.00 | 71 | 1013.4 |
| 20260507065227 | 62 | 297 | 3.5 | 5.2 | 0.00 | 0.00 | 0.00 | 71 | 1013.5 |
| 20260507065127 | 62 | 298 | 2.6 | 3.5 | 0.00 | 0.00 | 0.00 | 71 | 1013.4 |
| 20260507065027 | 62 | 300 | 3.5 | 3.5 | 0.00 | 0.00 | 0.00 | 71 | 1013.4 |
| 20260507064927 | 63 | 302 | 1.7 | 3.5 | 0.00 | 0.00 | 0.00 | 72 | 1013.5 |
| 20260507064827 | 62 | 304 | 2.6 | 3.5 | 0.00 | 0.00 | 0.00 | 71 | 1013.4 |
| 20260507064727 | 62 | 305 | 1.7 | 3.5 | 0.00 | 0.00 | 0.00 | 71 | 1013.5 |
| 20260507064627 | 62 | 306 | 1.7 | 1.7 | 0.00 | 0.00 | 0.00 | 71 | 1013.6 |
| 20260507064527 | 62 | 310 | 1.7 | 1.7 | 0.00 | 0.00 | 0.00 | 72 | 1013.7 |
| 20260507064427 | 63 | 314 | 1.7 | 1.7 | 0.00 | 0.00 | 0.00 | 73 | 1013.7 |
| 20260507064327 | 63 | 315 | 0.0 | 1.7 | 0.00 | 0.00 | 0.00 | 73 | 1013.4 |
| 20260507064227 | 62 | 317 | 0.0 | 1.7 | 0.00 | 0.00 | 0.00 | 74 | 1013.6 |
| 20260507064127 | 61 | 319 | 1.7 | 1.7 | 0.00 | 0.00 | 0.00 | 74 | 1013.5 |
| 20260507064027 | 61 | 320 | 0.9 | 3.5 | 0.00 | 0.00 | 0.00 | 74 | 1013.5 |
| 20260507063927 | 61 | 320 | 0.9 | 3.5 | 0.00 | 0.00 | 0.00 | 74 | 1013.6 |
| 20260507063827 | 62 | 323 | 0.0 | 3.5 | 0.00 | 0.00 | 0.00 | 74 | 1013.4 |
| 20260507063727 | 62 | 324 | 0.0 | 3.5 | 0.00 | 0.00 | 0.00 | 74 | 1013.4 |
| 20260507063627 | 61 | 324 | 0.0 | 3.5 | 0.00 | 0.00 | 0.00 | 74 | 1013.6 |
| 20260507063527 | 61 | 322 | 1.7 | 3.5 | 0.00 | 0.00 | 0.00 | 74 | 1013.6 |
| 20260507063427 | 61 | 320 | 0.0 | 3.5 | 0.00 | 0.00 | 0.00 | 74 | 1013.4 |
| 20260507063327 | 61 | 320 | 1.7 | 3.5 | 0.00 | 0.00 | 0.00 | 74 | 1013.5 |
| 20260507063227 | 61 | 320 | 0.9 | 3.5 | 0.00 | 0.00 | 0.00 | 74 | 1013.2 |
| 20260507063127 | 61 | 322 | 1.7 | 3.5 | 0.00 | 0.00 | 0.00 | 74 | 1013.3 |
| 20260507063027 | 61 | 327 | 1.7 | 3.5 | 0.00 | 0.00 | 0.00 | 74 | 1013.5 |
| 20260507062927 | 61 | 332 | 0.9 | 1.7 | 0.00 | 0.00 | 0.00 | 74 | 1013.4 |
| 20260507062827 | 61 | 340 | 0.0 | 1.7 | 0.00 | 0.00 | 0.00 | 75 | 1013.6 |
| 20260507062727 | 61 | 348 | 0.0 | 1.7 | 0.00 | 0.00 | 0.00 | 75 | 1013.4 |
| 20260507062627 | 61 | 346 | 0.0 | 1.7 | 0.00 | 0.00 | 0.00 | 75 | 1013.5 |
| 20260507062527 | 61 | 346 | 0.9 | 1.7 | 0.00 | 0.00 | 0.00 | 74 | 1013.4 |
| 20260507062427 | 61 | 347 | 0.9 | 3.5 | 0.00 | 0.00 | 0.00 | 75 | 1013.4 |
| 20260507062327 | 61 | 351 | 0.9 | 3.5 | 0.00 | 0.00 | 0.00 | 74 | 1013.5 |
| 20260507062227 | 61 | 354 | 0.0 | 3.5 | 0.00 | 0.00 | 0.00 | 75 | 1013.3 |
| 20260507062127 | 61 | 354 | 0.0 | 3.5 | 0.00 | 0.00 | 0.00 | 74 | 1013.5 |
| 20260507062027 | 61 | 353 | 0.9 | 3.5 | 0.00 | 0.00 | 0.00 | 74 | 1013.4 |
| 20260507061927 | 61 | 354 | 0.9 | 3.5 | 0.00 | 0.00 | 0.00 | 74 | 1013.3 |
| 20260507061827 | 60 | 350 | 0.9 | 3.5 | 0.00 | 0.00 | 0.00 | 74 | 1013.5 |
| 20260507061727 | 60 | 341 | 1.7 | 3.5 | 0.00 | 0.00 | 0.00 | 74 | 1013.4 |
| 20260507061627 | 60 | 335 | 1.7 | 3.5 | 0.00 | 0.00 | 0.00 | 75 | 1013.4 |
| 20260507061527 | 60 | 331 | 0.9 | 3.5 | 0.00 | 0.00 | 0.00 | 74 | 1013.3 |
| 20260507061428 | 60 | 327 | 1.7 | 3.5 | 0.00 | 0.00 | 0.00 | 74 | 1013.3 |
| 20260507061327 | 60 | 315 | 1.7 | 3.5 | 0.00 | 0.00 | 0.00 | 74 | 1013.5 |
| 20260507061227 | 60 | 303 | 0.0 | 3.5 | 0.00 | 0.00 | 0.00 | 75 | 1013.4 |
| 20260507061127 | 60 | 311 | 0.0 | 3.5 | 0.00 | 0.00 | 0.00 | 75 | 1013.4 |
| 20260507061027 | 60 | 318 | 0.0 | 3.5 | 0.00 | 0.00 | 0.00 | 75 | 1013.3 |
| 20260507060927 | 60 | 319 | 0.0 | 3.5 | 0.00 | 0.00 | 0.00 | 75 | 1013.4 |
| 20260507060827 | 60 | 319 | 0.9 | 3.5 | 0.00 | 0.00 | 0.00 | 75 | 1013.4 |
| 20260507060727 | 60 | 320 | 0.9 | 3.5 | 0.00 | 0.00 | 0.00 | 75 | 1013.5 |
| 20260507060627 | 60 | 322 | 1.7 | 3.5 | 0.00 | 0.00 | 0.00 | 75 | 1013.3 |
| 20260507060527 | 60 | 324 | 1.7 | 3.5 | 0.00 | 0.00 | 0.00 | 75 | 1013.5 |
| 20260507060427 | 60 | 326 | 1.7 | 3.5 | 0.00 | 0.00 | 0.00 | 75 | 1013.6 |
| 20260507060327 | 60 | 329 | 1.7 | 3.5 | 0.00 | 0.00 | 0.00 | 75 | 1013.7 |
| 20260507060227 | 60 | 337 | 1.7 | 5.2 | 0.00 | 0.00 | 0.00 | 75 | 1013.6 |
| 20260507060127 | 60 | 337 | 2.6 | 5.2 | 0.00 | 0.00 | 0.00 | 74 | 1013.6 |
| 20260507060027 | 61 | 338 | 1.7 | 5.2 | 0.00 | 0.00 | 0.00 | 75 | 1013.5 |
| 20260507055927 | 61 | 339 | 1.7 | 5.2 | 0.00 | 0.00 | 0.00 | 75 | 1013.5 |
| 20260507055827 | 61 | 349 | 1.7 | 5.2 | 0.00 | 0.00 | 0.00 | 74 | 1013.5 |
| 20260507055727 | 61 | 358 | 1.7 | 5.2 | 0.00 | 0.00 | 0.00 | 74 | 1013.3 |
| 20260507055627 | 61 | 3 | 0.9 | 5.2 | 0.00 | 0.00 | 0.00 | 74 | 1013.6 |
| 20260507055527 | 60 | 7 | 0.9 | 5.2 | 0.00 | 0.00 | 0.00 | 74 | 1013.2 |
| 20260507055427 | 60 | 9 | 0.9 | 5.2 | 0.00 | 0.00 | 0.00 | 74 | 1013.1 |
| 20260507055327 | 60 | 9 | 0.9 | 5.2 | 0.00 | 0.00 | 0.00 | 74 | 1013.2 |
| 20260507055227 | 60 | 7 | 2.6 | 5.2 | 0.00 | 0.00 | 0.00 | 74 | 1013.1 |
| 20260507055127 | 60 | 8 | 2.6 | 5.2 | 0.00 | 0.00 | 0.00 | 74 | 1013.2 |
| 20260507055027 | 60 | 10 | 1.7 | 5.2 | 0.00 | 0.00 | 0.00 | 74 | 1013.3 |
| 20260507054927 | 60 | 10 | 1.7 | 5.2 | 0.00 | 0.00 | 0.00 | 74 | 1013.1 |
| 20260507054827 | 60 | 8 | 2.6 | 5.2 | 0.00 | 0.00 | 0.00 | 74 | 1013.3 |
| 20260507054727 | 61 | 6 | 1.7 | 5.2 | 0.00 | 0.00 | 0.00 | 74 | 1013.0 |
| 20260507054627 | 60 | 7 | 3.5 | 5.2 | 0.00 | 0.00 | 0.00 | 74 | 1013.2 |
| 20260507054527 | 60 | 9 | 3.5 | 5.2 | 0.00 | 0.00 | 0.00 | 74 | 1013.1 |
| 20260507054427 | 61 | 15 | 3.5 | 5.2 | 0.00 | 0.00 | 0.00 | 74 | 1013.0 |
| 20260507054327 | 61 | 19 | 1.7 | 5.2 | 0.00 | 0.00 | 0.00 | 74 | 1013.1 |
| 20260507054227 | 60 | 25 | 2.6 | 5.2 | 0.00 | 0.00 | 0.00 | 74 | 1013.2 |
| 20260507054127 | 60 | 28 | 1.7 | 5.2 | 0.00 | 0.00 | 0.00 | 74 | 1013.0 |
| 20260507054027 | 60 | 28 | 2.6 | 5.2 | 0.00 | 0.00 | 0.00 | 74 | 1013.0 |
| 20260507053927 | 60 | 36 | 1.7 | 5.2 | 0.00 | 0.00 | 0.00 | 74 | 1013.1 |
| 20260507053827 | 60 | 38 | 1.7 | 5.2 | 0.00 | 0.00 | 0.00 | 74 | 1013.1 |
| 20260507053727 | 60 | 38 | 1.7 | 5.2 | 0.00 | 0.00 | 0.00 | 73 | 1013.2 |
| 20260507053627 | 60 | 38 | 1.7 | 5.2 | 0.00 | 0.00 | 0.00 | 73 | 1013.1 |
| 20260507053527 | 60 | 39 | 2.6 | 5.2 | 0.00 | 0.00 | 0.00 | 73 | 1013.0 |
| 20260507053427 | 60 | 39 | 1.7 | 5.2 | 0.00 | 0.00 | 0.00 | 73 | 1013.0 |
| 20260507053327 | 60 | 38 | 1.7 | 5.2 | 0.00 | 0.00 | 0.00 | 73 | 1013.1 |
| 20260507053227 | 60 | 40 | 1.7 | 5.2 | 0.00 | 0.00 | 0.00 | 73 | 1013.1 |
| 20260507053127 | 60 | 37 | 3.5 | 5.2 | 0.00 | 0.00 | 0.00 | 73 | 1013.0 |
| 20260507053027 | 60 | 39 | 1.7 | 3.5 | 0.00 | 0.00 | 0.00 | 72 | 1012.9 |
| 20260507052927 | 60 | 29 | 1.7 | 3.5 | 0.00 | 0.00 | 0.00 | 72 | 1012.8 |
| 20260507052827 | 60 | 23 | 1.7 | 3.5 | 0.00 | 0.00 | 0.00 | 72 | 1013.1 |
| 20260507052727 | 60 | 21 | 1.7 | 3.5 | 0.00 | 0.00 | 0.00 | 72 | 1012.9 |
| 20260507052627 | 60 | 17 | 1.7 | 3.5 | 0.00 | 0.00 | 0.00 | 71 | 1013.1 |
| 20260507052527 | 60 | 13 | 1.7 | 3.5 | 0.00 | 0.00 | 0.00 | 71 | 1013.1 |
| 20260507052427 | 60 | 10 | 1.7 | 3.5 | 0.00 | 0.00 | 0.00 | 70 | 1012.9 |
| 20260507052327 | 60 | 7 | 0.9 | 3.5 | 0.00 | 0.00 | 0.00 | 70 | 1013.0 |
| 20260507052227 | 60 | 5 | 1.7 | 3.5 | 0.00 | 0.00 | 0.00 | 70 | 1012.8 |
| 20260507052127 | 60 | 11 | 0.9 | 3.5 | 0.00 | 0.00 | 0.00 | 70 | 1013.0 |
| 20260507052027 | 60 | 14 | 1.7 | 3.5 | 0.00 | 0.00 | 0.00 | 69 | 1012.9 |
| 20260507051927 | 60 | 14 | 1.7 | 3.5 | 0.00 | 0.00 | 0.00 | 69 | 1012.8 |
| 20260507051827 | 60 | 18 | 1.7 | 3.5 | 0.00 | 0.00 | 0.00 | 69 | 1012.8 |
| 20260507051727 | 60 | 24 | 1.7 | 3.5 | 0.00 | 0.00 | 0.00 | 69 | 1012.7 |
| 20260507051627 | 60 | 25 | 1.7 | 3.5 | 0.00 | 0.00 | 0.00 | 69 | 1012.8 |
| 20260507051527 | 60 | 27 | 1.7 | 7.0 | 0.00 | 0.00 | 0.00 | 68 | 1012.7 |
| 20260507051427 | 60 | 29 | 1.7 | 7.0 | 0.00 | 0.00 | 0.00 | 68 | 1012.8 |
| 20260507051327 | 60 | 31 | 1.7 | 7.0 | 0.00 | 0.00 | 0.00 | 68 | 1012.8 |
| 20260507051227 | 60 | 33 | 1.7 | 7.0 | 0.00 | 0.00 | 0.00 | 68 | 1012.7 |
| 20260507051127 | 61 | 29 | 1.7 | 7.0 | 0.00 | 0.00 | 0.00 | 67 | 1012.8 |
| 20260507051027 | 60 | 26 | 0.9 | 7.0 | 0.00 | 0.00 | 0.00 | 66 | 1012.6 |
| 20260507050927 | 60 | 28 | 0.9 | 7.0 | 0.00 | 0.00 | 0.00 | 66 | 1012.7 |
| 20260507050827 | 61 | 23 | 1.7 | 7.0 | 0.00 | 0.00 | 0.00 | 65 | 1012.6 |
| 20260507050727 | 61 | 14 | 1.7 | 7.0 | 0.00 | 0.00 | 0.00 | 65 | 1012.6 |
| 20260507050627 | 61 | 9 | 2.6 | 7.0 | 0.00 | 0.00 | 0.00 | 65 | 1012.9 |
| 20260507050527 | 61 | 353 | 1.7 | 7.0 | 0.00 | 0.00 | 0.00 | 65 | 1012.6 |
| 20260507050427 | 61 | 325 | 0.9 | 1.7 | 0.00 | 0.00 | 0.00 | 64 | 1012.6 |
| 20260507050327 | 61 | 317 | 0.9 | 1.7 | 0.00 | 0.00 | 0.00 | 64 | 1012.7 |
| 20260507050227 | 61 | 317 | 0.0 | 1.7 | 0.00 | 0.00 | 0.00 | 64 | 1012.5 |
| 20260507050127 | 61 | 316 | 0.0 | 1.7 | 0.00 | 0.00 | 0.00 | 64 | 1012.7 |
| 20260507050027 | 61 | 319 | 0.0 | 1.7 | 0.00 | 0.00 | 0.00 | 64 | 1012.6 |
| 20260507045927 | 61 | 323 | 0.0 | 1.7 | 0.00 | 0.00 | 0.00 | 63 | 1012.5 |
| 20260507045827 | 61 | 326 | 0.0 | 1.7 | 0.00 | 0.00 | 0.00 | 63 | 1012.7 |
| 20260507045727 | 61 | 331 | 0.0 | 1.7 | 0.00 | 0.00 | 0.00 | 63 | 1012.5 |
| 20260507045627 | 61 | 340 | 0.9 | 1.7 | 0.00 | 0.00 | 0.00 | 63 | 1012.3 |
| 20260507045527 | 61 | 349 | 1.7 | 3.5 | 0.00 | 0.00 | 0.00 | 63 | 1012.4 |
| 20260507045427 | 61 | 358 | 0.9 | 3.5 | 0.00 | 0.00 | 0.00 | 63 | 1012.4 |
| 20260507045327 | 61 | 5 | 0.9 | 3.5 | 0.00 | 0.00 | 0.00 | 63 | 1012.4 |
| 20260507045227 | 61 | 11 | 0.9 | 3.5 | 0.00 | 0.00 | 0.00 | 63 | 1012.3 |
| 20260507045127 | 61 | 16 | 0.9 | 3.5 | 0.00 | 0.00 | 0.00 | 63 | 1012.3 |
| 20260507045027 | 61 | 12 | 0.9 | 3.5 | 0.00 | 0.00 | 0.00 | 63 | 1012.2 |
| 20260507044927 | 61 | 8 | 0.9 | 3.5 | 0.00 | 0.00 | 0.00 | 62 | 1012.3 |
| 20260507044827 | 61 | 5 | 0.9 | 3.5 | 0.00 | 0.00 | 0.00 | 62 | 1012.3 |
| 20260507044727 | 61 | 1 | 1.7 | 3.5 | 0.00 | 0.00 | 0.00 | 62 | 1012.1 |
| 20260507044627 | 61 | 354 | 1.7 | 6.1 | 0.00 | 0.00 | 0.00 | 61 | 1012.3 |
| 20260507044527 | 61 | 350 | 0.9 | 6.1 | 0.00 | 0.00 | 0.00 | 61 | 1012.1 |
| 20260507044427 | 61 | 345 | 1.7 | 6.1 | 0.00 | 0.00 | 0.00 | 61 | 1012.0 |
| 20260507044326 | 61 | 343 | 1.7 | 6.1 | 0.00 | 0.00 | 0.00 | 61 | 1012.0 |
| 20260507044227 | 62 | 340 | 2.6 | 6.1 | 0.00 | 0.00 | 0.00 | 60 | 1012.2 |
| 20260507044127 | 62 | 338 | 2.6 | 7.0 | 0.00 | 0.00 | 0.00 | 60 | 1012.0 |
| 20260507044027 | 62 | 337 | 2.6 | 7.0 | 0.00 | 0.00 | 0.00 | 60 | 1012.1 |
| 20260507043927 | 62 | 336 | 1.7 | 7.0 | 0.00 | 0.00 | 0.00 | 60 | 1012.1 |
| 20260507043827 | 62 | 336 | 1.7 | 7.0 | 0.00 | 0.00 | 0.00 | 60 | 1012.0 |
| 20260507043727 | 62 | 336 | 3.5 | 7.0 | 0.00 | 0.00 | 0.00 | 60 | 1012.0 |
| 20260507043627 | 62 | 334 | 4.3 | 7.0 | 0.00 | 0.00 | 0.00 | 60 | 1012.0 |
| 20260507043527 | 62 | 333 | 3.5 | 7.0 | 0.00 | 0.00 | 0.00 | 60 | 1011.9 |
| 20260507043427 | 62 | 332 | 3.5 | 7.0 | 0.00 | 0.00 | 0.00 | 60 | 1012.1 |
| 20260507043327 | 62 | 330 | 3.5 | 7.0 | 0.00 | 0.00 | 0.00 | 60 | 1011.9 |
| 20260507043227 | 62 | 328 | 3.5 | 7.0 | 0.00 | 0.00 | 0.00 | 60 | 1012.1 |
| 20260507043127 | 62 | 324 | 3.5 | 6.1 | 0.00 | 0.00 | 0.00 | 61 | 1012.0 |
| 20260507043027 | 61 | 322 | 3.5 | 5.2 | 0.00 | 0.00 | 0.00 | 61 | 1012.0 |
| 20260507042927 | 61 | 319 | 3.5 | 5.2 | 0.00 | 0.00 | 0.00 | 61 | 1012.0 |
| 20260507042827 | 61 | 318 | 2.6 | 5.2 | 0.00 | 0.00 | 0.00 | 61 | 1012.0 |
| 20260507042727 | 61 | 316 | 2.6 | 5.2 | 0.00 | 0.00 | 0.00 | 61 | 1011.7 |
| 20260507042627 | 61 | 318 | 3.5 | 5.2 | 0.00 | 0.00 | 0.00 | 62 | 1012.0 |
| 20260507042527 | 61 | 321 | 3.5 | 5.2 | 0.00 | 0.00 | 0.00 | 62 | 1011.9 |
| 20260507042427 | 61 | 324 | 3.5 | 5.2 | 0.00 | 0.00 | 0.00 | 62 | 1011.9 |
| 20260507042327 | 61 | 329 | 1.7 | 5.2 | 0.00 | 0.00 | 0.00 | 62 | 1012.2 |
| 20260507042227 | 61 | 331 | 3.5 | 5.2 | 0.00 | 0.00 | 0.00 | 61 | 1012.0 |
| 20260507042127 | 61 | 333 | 3.5 | 5.2 | 0.00 | 0.00 | 0.00 | 61 | 1011.9 |
| 20260507042027 | 61 | 336 | 1.7 | 5.2 | 0.00 | 0.00 | 0.00 | 61 | 1012.1 |
| 20260507041927 | 61 | 340 | 1.7 | 5.2 | 0.00 | 0.00 | 0.00 | 61 | 1012.0 |
| 20260507041827 | 61 | 344 | 2.6 | 5.2 | 0.00 | 0.00 | 0.00 | 61 | 1012.0 |
| 20260507041727 | 61 | 346 | 3.5 | 5.2 | 0.00 | 0.00 | 0.00 | 62 | 1012.2 |
| 20260507041626 | 61 | 346 | 2.6 | 5.2 | 0.00 | 0.00 | 0.00 | 62 | 1012.1 |
| 20260507041527 | 61 | 344 | 3.5 | 5.2 | 0.00 | 0.00 | 0.00 | 62 | 1012.0 |
| 20260507041427 | 61 | 344 | 1.7 | 5.2 | 0.00 | 0.00 | 0.00 | 62 | 1012.1 |
| 20260507041326 | 61 | 341 | 1.7 | 5.2 | 0.00 | 0.00 | 0.00 | 62 | 1012.1 |
| 20260507041227 | 61 | 341 | 1.7 | 6.1 | 0.00 | 0.00 | 0.00 | 62 | 1011.9 |
| 20260507041127 | 61 | 340 | 2.6 | 6.1 | 0.00 | 0.00 | 0.00 | 62 | 1012.0 |
| 20260507041027 | 61 | 339 | 1.7 | 6.1 | 0.00 | 0.00 | 0.00 | 62 | 1012.1 |
| 20260507040927 | 61 | 337 | 1.7 | 6.1 | 0.00 | 0.00 | 0.00 | 62 | 1012.1 |
| 20260507040826 | 61 | 334 | 1.7 | 6.1 | 0.00 | 0.00 | 0.00 | 62 | 1012.2 |
| 20260507040727 | 61 | 332 | 1.7 | 6.1 | 0.00 | 0.00 | 0.00 | 61 | 1012.0 |
| 20260507040627 | 61 | 331 | 2.6 | 6.1 | 0.00 | 0.00 | 0.00 | 61 | 1012.1 |
| 20260507040526 | 61 | 331 | 2.6 | 6.1 | 0.00 | 0.00 | 0.00 | 62 | 1012.1 |
| 20260507040427 | 61 | 331 | 3.5 | 6.1 | 0.00 | 0.00 | 0.00 | 61 | 1012.3 |
| 20260507040327 | 61 | 329 | 2.6 | 6.1 | 0.00 | 0.00 | 0.00 | 61 | 1012.1 |
| 20260507040227 | 61 | 327 | 3.5 | 6.1 | 0.00 | 0.00 | 0.00 | 61 | 1012.1 |
| 20260507040127 | 61 | 326 | 3.5 | 6.1 | 0.00 | 0.00 | 0.00 | 61 | 1011.9 |
| 20260507040027 | 61 | 327 | 3.5 | 6.1 | 0.00 | 0.00 | 0.00 | 61 | 1012.0 |
| 20260507035927 | 61 | 326 | 3.5 | 6.1 | 0.00 | 0.00 | 0.00 | 61 | 1011.9 |
| 20260507035827 | 61 | 325 | 4.3 | 6.1 | 0.00 | 0.00 | 0.00 | 61 | 1011.9 |
| 20260507035727 | 61 | 325 | 3.5 | 6.1 | 0.00 | 0.00 | 0.00 | 62 | 1011.9 |
| 20260507035627 | 61 | 324 | 3.5 | 6.1 | 0.00 | 0.00 | 0.00 | 62 | 1011.8 |
| 20260507035527 | 61 | 325 | 3.5 | 6.1 | 0.00 | 0.00 | 0.00 | 62 | 1011.7 |
| 20260507035427 | 61 | 322 | 4.3 | 6.1 | 0.00 | 0.00 | 0.00 | 62 | 1011.9 |
| 20260507035326 | 61 | 321 | 3.5 | 6.1 | 0.00 | 0.00 | 0.00 | 61 | 1011.9 |
| 20260507035227 | 61 | 321 | 3.5 | 6.1 | 0.00 | 0.00 | 0.00 | 61 | 1011.8 |
| 20260507035127 | 61 | 319 | 3.5 | 6.1 | 0.00 | 0.00 | 0.00 | 62 | 1011.8 |
| 20260507035027 | 61 | 315 | 3.5 | 6.1 | 0.00 | 0.00 | 0.00 | 62 | 1011.7 |
| 20260507034926 | 61 | 314 | 4.3 | 6.1 | 0.00 | 0.00 | 0.00 | 62 | 1011.9 |
| 20260507034826 | 61 | 314 | 3.5 | 6.1 | 0.00 | 0.00 | 0.00 | 63 | 1011.8 |
| 20260507034727 | 61 | 313 | 3.5 | 6.1 | 0.00 | 0.00 | 0.00 | 63 | 1011.7 |
| 20260507034627 | 60 | 313 | 3.5 | 6.1 | 0.00 | 0.00 | 0.00 | 63 | 1011.8 |
| 20260507034527 | 60 | 313 | 3.5 | 6.1 | 0.00 | 0.00 | 0.00 | 63 | 1011.8 |
| 20260507034426 | 60 | 314 | 3.5 | 6.1 | 0.00 | 0.00 | 0.00 | 63 | 1011.6 |
| 20260507034327 | 60 | 314 | 3.5 | 6.1 | 0.00 | 0.00 | 0.00 | 64 | 1011.9 |
| 20260507034226 | 60 | 314 | 3.5 | 6.1 | 0.00 | 0.00 | 0.00 | 64 | 1011.6 |
| 20260507034127 | 60 | 316 | 3.5 | 6.1 | 0.00 | 0.00 | 0.00 | 64 | 1011.7 |
| 20260507034027 | 60 | 316 | 3.5 | 6.1 | 0.00 | 0.00 | 0.00 | 64 | 1011.8 |
| 20260507033927 | 60 | 317 | 3.5 | 6.1 | 0.00 | 0.00 | 0.00 | 64 | 1011.7 |
| 20260507033827 | 60 | 317 | 4.3 | 6.1 | 0.00 | 0.00 | 0.00 | 64 | 1011.5 |
| 20260507033727 | 60 | 318 | 3.5 | 6.1 | 0.00 | 0.00 | 0.00 | 64 | 1011.7 |
| 20260507033627 | 60 | 316 | 3.5 | 6.1 | 0.00 | 0.00 | 0.00 | 64 | 1011.7 |
| 20260507033527 | 60 | 315 | 3.5 | 6.1 | 0.00 | 0.00 | 0.00 | 64 | 1011.7 |
| 20260507033427 | 60 | 314 | 3.5 | 6.1 | 0.00 | 0.00 | 0.00 | 64 | 1011.6 |
| 20260507033327 | 60 | 314 | 3.5 | 6.1 | 0.00 | 0.00 | 0.00 | 64 | 1011.7 |
| 20260507033227 | 60 | 311 | 3.5 | 6.1 | 0.00 | 0.00 | 0.00 | 64 | 1011.5 |
| 20260507033127 | 60 | 308 | 3.5 | 6.1 | 0.00 | 0.00 | 0.00 | 64 | 1011.7 |
| 20260507033027 | 60 | 306 | 3.5 | 6.1 | 0.00 | 0.00 | 0.00 | 65 | 1011.5 |
| 20260507032926 | 60 | 307 | 1.7 | 6.1 | 0.00 | 0.00 | 0.00 | 66 | 1011.6 |
| 20260507032826 | 60 | 307 | 2.6 | 7.0 | 0.00 | 0.00 | 0.00 | 66 | 1011.5 |
| 20260507032726 | 59 | 305 | 1.7 | 7.0 | 0.00 | 0.00 | 0.00 | 67 | 1011.4 |
| 20260507032627 | 59 | 305 | 1.7 | 7.0 | 0.00 | 0.00 | 0.00 | 67 | 1011.5 |
| 20260507032526 | 60 | 307 | 1.7 | 7.0 | 0.00 | 0.00 | 0.00 | 66 | 1011.5 |
| 20260507032427 | 60 | 309 | 1.7 | 7.0 | 0.00 | 0.00 | 0.00 | 66 | 1011.5 |
| 20260507032327 | 60 | 310 | 1.7 | 7.0 | 0.00 | 0.00 | 0.00 | 66 | 1011.5 |
| 20260507032227 | 60 | 313 | 3.5 | 7.0 | 0.00 | 0.00 | 0.00 | 66 | 1011.4 |
| 20260507032126 | 60 | 315 | 3.5 | 7.0 | 0.00 | 0.00 | 0.00 | 66 | 1011.4 |
| 20260507032027 | 60 | 316 | 5.2 | 7.0 | 0.00 | 0.00 | 0.00 | 65 | 1011.5 |
| 20260507031927 | 60 | 316 | 4.3 | 7.0 | 0.00 | 0.00 | 0.00 | 65 | 1011.2 |
| 20260507031827 | 60 | 316 | 3.5 | 6.1 | 0.00 | 0.00 | 0.00 | 65 | 1011.4 |
| 20260507031727 | 60 | 316 | 3.5 | 5.2 | 0.00 | 0.00 | 0.00 | 65 | 1011.5 |
| 20260507031627 | 60 | 316 | 2.6 | 5.2 | 0.00 | 0.00 | 0.00 | 65 | 1011.2 |
| 20260507031527 | 60 | 315 | 3.5 | 5.2 | 0.00 | 0.00 | 0.00 | 66 | 1011.5 |
| 20260507031427 | 60 | 313 | 3.5 | 5.2 | 0.00 | 0.00 | 0.00 | 66 | 1011.5 |
| 20260507031327 | 60 | 313 | 3.5 | 5.2 | 0.00 | 0.00 | 0.00 | 66 | 1011.2 |
| 20260507031227 | 60 | 313 | 3.5 | 5.2 | 0.00 | 0.00 | 0.00 | 66 | 1011.4 |
| 20260507031127 | 60 | 313 | 4.3 | 5.2 | 0.00 | 0.00 | 0.00 | 66 | 1011.4 |
| 20260507031027 | 60 | 313 | 4.3 | 5.2 | 0.00 | 0.00 | 0.00 | 66 | 1011.3 |
| 20260507030927 | 60 | 313 | 3.5 | 5.2 | 0.00 | 0.00 | 0.00 | 65 | 1011.3 |
| 20260507030827 | 60 | 313 | 3.5 | 5.2 | 0.00 | 0.00 | 0.00 | 65 | 1011.5 |
| 20260507030726 | 60 | 316 | 3.5 | 5.2 | 0.00 | 0.00 | 0.00 | 65 | 1011.4 |
| 20260507030627 | 60 | 318 | 3.5 | 5.2 | 0.00 | 0.00 | 0.00 | 65 | 1011.5 |
| 20260507030528 | 60 | 319 | 2.6 | 3.5 | 0.00 | 0.00 | 0.00 | 65 | 1011.4 |
| 20260507030426 | 60 | 321 | 3.5 | 3.5 | 0.00 | 0.00 | 0.00 | 64 | 1011.5 |
| 20260507030327 | 60 | 323 | 2.6 | 3.5 | 0.00 | 0.00 | 0.00 | 64 | 1011.2 |
| 20260507030227 | 61 | 326 | 2.6 | 3.5 | 0.00 | 0.00 | 0.00 | 63 | 1011.3 |
| 20260507030126 | 61 | 330 | 2.6 | 3.5 | 0.00 | 0.00 | 0.00 | 63 | 1011.5 |
| 20260507030027 | 61 | 333 | 1.7 | 3.5 | 0.00 | 0.00 | 0.00 | 63 | 1011.3 |
| 20260507025927 | 61 | 337 | 1.7 | 3.5 | 0.00 | 0.00 | 0.00 | 63 | 1011.5 |
| 20260507025826 | 61 | 341 | 1.7 | 1.7 | 0.00 | 0.00 | 0.00 | 63 | 1011.1 |
| 20260507025726 | 61 | 338 | 1.7 | 1.7 | 0.00 | 0.00 | 0.00 | 63 | 1011.3 |
| 20260507025627 | 61 | 333 | 1.7 | 1.7 | 0.00 | 0.00 | 0.00 | 63 | 1011.3 |
| 20260507025527 | 61 | 330 | 0.9 | 1.7 | 0.00 | 0.00 | 0.00 | 63 | 1011.3 |
| 20260507025427 | 61 | 330 | 1.7 | 1.7 | 0.00 | 0.00 | 0.00 | 63 | 1011.2 |
| 20260507025327 | 61 | 329 | 0.9 | 1.7 | 0.00 | 0.00 | 0.00 | 63 | 1011.1 |
| 20260507025227 | 61 | 327 | 1.7 | 1.7 | 0.00 | 0.00 | 0.00 | 63 | 1011.1 |
| 20260507025127 | 61 | 326 | 1.7 | 1.7 | 0.00 | 0.00 | 0.00 | 63 | 1011.2 |
| 20260507025027 | 60 | 328 | 0.9 | 1.7 | 0.00 | 0.00 | 0.00 | 63 | 1011.4 |
| 20260507024927 | 60 | 329 | 1.7 | 1.7 | 0.00 | 0.00 | 0.00 | 64 | 1011.3 |
| 20260507024827 | 60 | 327 | 1.7 | 1.7 | 0.00 | 0.00 | 0.00 | 64 | 1011.4 |
| 20260507024727 | 60 | 322 | 1.7 | 1.7 | 0.00 | 0.00 | 0.00 | 65 | 1011.4 |
| 20260507024627 | 60 | 325 | 0.9 | 1.7 | 0.00 | 0.00 | 0.00 | 65 | 1011.4 |
| 20260507024527 | 60 | 324 | 0.0 | 1.7 | 0.00 | 0.00 | 0.00 | 66 | 1011.4 |
| 20260507024426 | 60 | 318 | 0.0 | 1.7 | 0.00 | 0.00 | 0.00 | 66 | 1011.3 |
| 20260507024326 | 60 | 315 | 0.0 | 1.7 | 0.00 | 0.00 | 0.00 | 67 | 1011.4 |
| 20260507024227 | 60 | 312 | 0.0 | 1.7 | 0.00 | 0.00 | 0.00 | 67 | 1011.4 |
| 20260507024127 | 60 | 306 | 0.0 | 1.7 | 0.00 | 0.00 | 0.00 | 67 | 1011.2 |
| 20260507024027 | 60 | 300 | 0.0 | 3.5 | 0.00 | 0.00 | 0.00 | 67 | 1011.3 |
| 20260507023926 | 59 | 297 | 0.9 | 3.5 | 0.00 | 0.00 | 0.00 | 67 | 1011.5 |
| 20260507023827 | 59 | 285 | 0.9 | 3.5 | 0.00 | 0.00 | 0.00 | 68 | 1011.4 |
| 20260507023727 | 59 | 279 | 0.9 | 3.5 | 0.00 | 0.00 | 0.00 | 68 | 1011.2 |
| 20260507023627 | 59 | 273 | 0.0 | 3.5 | 0.00 | 0.00 | 0.00 | 68 | 1011.3 |
| 20260507023526 | 59 | 270 | 0.0 | 3.5 | 0.00 | 0.00 | 0.00 | 69 | 1011.5 |
| 20260507023427 | 59 | 267 | 0.9 | 3.5 | 0.00 | 0.00 | 0.00 | 69 | 1011.3 |
| 20260507023326 | 59 | 263 | 1.7 | 3.5 | 0.00 | 0.00 | 0.00 | 69 | 1011.5 |
| 20260507023227 | 58 | 259 | 1.7 | 3.5 | 0.00 | 0.00 | 0.00 | 69 | 1011.3 |
| 20260507023127 | 58 | 258 | 1.7 | 3.5 | 0.00 | 0.00 | 0.00 | 69 | 1011.3 |
| 20260507023027 | 59 | 253 | 1.7 | 3.5 | 0.00 | 0.00 | 0.00 | 68 | 1011.2 |
| 20260507022926 | 58 | 248 | 1.7 | 3.5 | 0.00 | 0.00 | 0.00 | 68 | 1011.3 |
| 20260507022826 | 59 | 250 | 2.6 | 3.5 | 0.00 | 0.00 | 0.00 | 68 | 1011.2 |
| 20260507022726 | 59 | 251 | 2.6 | 3.5 | 0.00 | 0.00 | 0.00 | 68 | 1011.3 |
| 20260507022626 | 59 | 255 | 1.7 | 3.5 | 0.00 | 0.00 | 0.00 | 68 | 1011.2 |
| 20260507022526 | 59 | 304 | 0.9 | 1.7 | 0.00 | 0.00 | 0.00 | 68 | 1011.2 |
| 20260507022427 | 59 | 55 | 0.9 | 1.7 | 0.00 | 0.00 | 0.00 | 68 | 1011.3 |
| 20260507022327 | 59 | 55 | 0.9 | 3.5 | 0.00 | 0.00 | 0.00 | 68 | 1010.9 |
| 20260507022228 | 59 | 55 | 0.0 | 3.5 | 0.00 | 0.00 | 0.00 | 68 | 1011.0 |
| 20260507022127 | 59 | 54 | 0.0 | 3.5 | 0.00 | 0.00 | 0.00 | 68 | 1011.1 |
| 20260507022027 | 59 | 55 | 0.0 | 3.5 | 0.00 | 0.00 | 0.00 | 68 | 1010.9 |
| 20260507021926 | 59 | 54 | 0.0 | 3.5 | 0.00 | 0.00 | 0.00 | 67 | 1010.8 |
| 20260507021826 | 59 | 52 | 0.0 | 3.5 | 0.00 | 0.00 | 0.00 | 67 | 1011.0 |
| 20260507021727 | 59 | 51 | 0.0 | 3.5 | 0.00 | 0.00 | 0.00 | 67 | 1010.8 |
| 20260507021627 | 59 | 50 | 0.0 | 3.5 | 0.00 | 0.00 | 0.00 | 67 | 1010.7 |
| 20260507021527 | 59 | 47 | 1.7 | 3.5 | 0.00 | 0.00 | 0.00 | 67 | 1010.8 |
| 20260507021427 | 59 | 47 | 1.7 | 3.5 | 0.00 | 0.00 | 0.00 | 67 | 1010.7 |
| 20260507021328 | 59 | 47 | 1.7 | 5.2 | 0.00 | 0.00 | 0.00 | 67 | 1010.8 |
| 20260507021227 | 59 | 40 | 2.6 | 5.2 | 0.00 | 0.00 | 0.00 | 66 | 1010.7 |
| 20260507021127 | 59 | 39 | 2.6 | 5.2 | 0.00 | 0.00 | 0.00 | 66 | 1011.0 |
| 20260507021026 | 59 | 36 | 3.5 | 5.2 | 0.00 | 0.00 | 0.00 | 66 | 1010.7 |
| 20260507020926 | 60 | 33 | 3.5 | 5.2 | 0.00 | 0.00 | 0.00 | 65 | 1010.8 |
| 20260507020827 | 60 | 29 | 3.5 | 5.2 | 0.00 | 0.00 | 0.00 | 65 | 1010.8 |
| 20260507020726 | 60 | 19 | 1.7 | 5.2 | 0.00 | 0.00 | 0.00 | 65 | 1010.9 |
| 20260507020626 | 61 | 1 | 1.7 | 5.2 | 0.00 | 0.00 | 0.00 | 64 | 1010.8 |
| 20260507020527 | 61 | 339 | 1.7 | 5.2 | 0.00 | 0.00 | 0.00 | 63 | 1010.8 |
| 20260507020427 | 61 | 290 | 1.7 | 5.2 | 0.00 | 0.00 | 0.00 | 63 | 1010.8 |
| 20260507020327 | 61 | 263 | 2.6 | 5.2 | 0.00 | 0.00 | 0.00 | 63 | 1010.9 |
| 20260507020226 | 61 | 243 | 0.0 | 1.7 | 0.00 | 0.00 | 0.00 | 63 | 1010.9 |
| 20260507020127 | 61 | 242 | 0.0 | 3.5 | 0.00 | 0.00 | 0.00 | 63 | 1011.0 |
| 20260507020026 | 61 | 242 | 0.0 | 3.5 | 0.00 | 0.00 | 0.00 | 63 | 1011.0 |
| 20260507015927 | 60 | 242 | 0.0 | 3.5 | 0.00 | 0.00 | 0.00 | 62 | 1010.8 |
| 20260507015826 | 60 | 242 | 0.9 | 3.5 | 0.00 | 0.00 | 0.00 | 62 | 1010.9 |
| 20260507015726 | 60 | 243 | 1.7 | 3.5 | 0.00 | 0.00 | 0.00 | 62 | 1010.9 |
| 20260507015627 | 60 | 245 | 1.7 | 3.5 | 0.00 | 0.00 | 0.00 | 63 | 1011.0 |
| 20260507015527 | 60 | 247 | 1.7 | 3.5 | 0.00 | 0.00 | 0.00 | 63 | 1011.0 |
| 20260507015426 | 60 | 248 | 1.7 | 3.5 | 0.00 | 0.00 | 0.00 | 63 | 1011.1 |
| 20260507015326 | 60 | 250 | 0.9 | 3.5 | 0.00 | 0.00 | 0.00 | 63 | 1010.9 |
| 20260507015226 | 60 | 251 | 0.9 | 3.5 | 0.00 | 0.00 | 0.00 | 63 | 1010.9 |
| 20260507015127 | 60 | 252 | 1.7 | 3.5 | 0.00 | 0.00 | 0.00 | 63 | 1010.9 |
| 20260507015027 | 60 | 257 | 1.7 | 3.5 | 0.00 | 0.00 | 0.00 | 62 | 1010.8 |
| 20260507014926 | 60 | 268 | 1.7 | 3.5 | 0.00 | 0.00 | 0.00 | 63 | 1010.9 |
| 20260507014827 | 60 | 280 | 1.7 | 1.7 | 0.00 | 0.00 | 0.00 | 62 | 1010.9 |
| 20260507014727 | 61 | 292 | 0.9 | 1.7 | 0.00 | 0.00 | 0.00 | 63 | 1010.9 |
| 20260507014626 | 61 | 306 | 0.0 | 1.7 | 0.00 | 0.00 | 0.00 | 62 | 1010.7 |
| 20260507014527 | 61 | 332 | 0.9 | 1.7 | 0.00 | 0.00 | 0.00 | 61 | 1011.1 |
| 20260507014426 | 61 | 359 | 0.9 | 1.7 | 0.00 | 0.00 | 0.00 | 61 | 1010.6 |
| 20260507014326 | 61 | 21 | 0.0 | 1.7 | 0.00 | 0.00 | 0.00 | 61 | 1010.8 |
| 20260507014227 | 61 | 35 | 0.0 | 1.7 | 0.00 | 0.00 | 0.00 | 61 | 1010.7 |
| 20260507014126 | 61 | 42 | 0.0 | 1.7 | 0.00 | 0.00 | 0.00 | 61 | 1010.8 |
| 20260507014026 | 61 | 49 | 0.0 | 1.7 | 0.00 | 0.00 | 0.00 | 61 | 1010.6 |
| 20260507013926 | 61 | 54 | 0.0 | 1.7 | 0.00 | 0.00 | 0.00 | 61 | 1010.8 |
| 20260507013826 | 61 | 55 | 0.0 | 1.7 | 0.00 | 0.00 | 0.00 | 61 | 1010.5 |
| 20260507013726 | 61 | 55 | 0.0 | 1.7 | 0.00 | 0.00 | 0.00 | 61 | 1010.6 |
| 20260507013626 | 61 | 60 | 0.9 | 1.7 | 0.00 | 0.00 | 0.00 | 61 | 1010.5 |
| 20260507013526 | 61 | 65 | 0.9 | 1.7 | 0.00 | 0.00 | 0.00 | 61 | 1010.4 |
| 20260507013426 | 61 | 69 | 0.9 | 1.7 | 0.00 | 0.00 | 0.00 | 61 | 1010.4 |
| 20260507013326 | 61 | 71 | 1.7 | 1.7 | 0.00 | 0.00 | 0.00 | 60 | 1010.5 |
| 20260507013226 | 61 | 62 | 1.7 | 1.7 | 0.00 | 0.00 | 0.00 | 60 | 1010.4 |
| 20260507013127 | 61 | 49 | 0.9 | 1.7 | 0.00 | 0.00 | 0.00 | 60 | 1010.3 |
| 20260507013027 | 61 | 41 | 0.0 | 1.7 | 0.00 | 0.00 | 0.00 | 60 | 1010.4 |
| 20260507012926 | 61 | 22 | 0.0 | 1.7 | 0.00 | 0.00 | 0.00 | 61 | 1010.4 |
| 20260507012826 | 61 | 22 | 0.0 | 1.7 | 0.00 | 0.00 | 0.00 | 61 | 1010.6 |
| 20260507012727 | 61 | 13 | 0.0 | 1.7 | 0.00 | 0.00 | 0.00 | 61 | 1010.5 |
| 20260507012626 | 61 | 5 | 0.0 | 1.7 | 0.00 | 0.00 | 0.00 | 61 | 1010.5 |
| 20260507012527 | 61 | 358 | 0.0 | 1.7 | 0.00 | 0.00 | 0.00 | 61 | 1010.4 |
| 20260507012427 | 61 | 354 | 0.0 | 1.7 | 0.00 | 0.00 | 0.00 | 61 | 1010.5 |
| 20260507012326 | 61 | 353 | 0.0 | 1.7 | 0.00 | 0.00 | 0.00 | 61 | 1010.5 |
| 20260507012226 | 60 | 349 | 0.0 | 1.7 | 0.00 | 0.00 | 0.00 | 61 | 1010.5 |
| 20260507012127 | 61 | 347 | 0.0 | 1.7 | 0.00 | 0.00 | 0.00 | 61 | 1010.6 |
| 20260507012026 | 60 | 345 | 0.9 | 1.7 | 0.00 | 0.00 | 0.00 | 62 | 1010.5 |
| 20260507011926 | 60 | 343 | 0.0 | 1.7 | 0.00 | 0.00 | 0.00 | 62 | 1010.6 |
| 20260507011826 | 60 | 343 | 0.0 | 1.7 | 0.00 | 0.00 | 0.00 | 62 | 1010.4 |
| 20260507011727 | 60 | 347 | 0.0 | 1.7 | 0.00 | 0.00 | 0.00 | 62 | 1010.4 |
| 20260507011627 | 60 | 351 | 0.9 | 1.7 | 0.00 | 0.00 | 0.00 | 62 | 1010.3 |
| 20260507011527 | 60 | 354 | 0.9 | 1.7 | 0.00 | 0.00 | 0.00 | 62 | 1010.6 |
| 20260507011426 | 60 | 358 | 1.7 | 1.7 | 0.00 | 0.00 | 0.00 | 62 | 1010.3 |
| 20260507011326 | 60 | 1 | 1.7 | 1.7 | 0.00 | 0.00 | 0.00 | 62 | 1010.3 |
| 20260507011226 | 60 | 7 | 1.7 | 3.5 | 0.00 | 0.00 | 0.00 | 62 | 1010.2 |
| 20260507011126 | 60 | 12 | 1.7 | 3.5 | 0.00 | 0.00 | 0.00 | 62 | 1010.2 |
| 20260507011026 | 60 | 20 | 1.7 | 3.5 | 0.00 | 0.00 | 0.00 | 62 | 1010.4 |
| 20260507010926 | 60 | 25 | 1.7 | 3.5 | 0.00 | 0.00 | 0.00 | 62 | 1010.2 |
| 20260507010827 | 60 | 29 | 0.9 | 3.5 | 0.00 | 0.00 | 0.00 | 62 | 1010.3 |
| 20260507010727 | 60 | 26 | 0.9 | 3.5 | 0.00 | 0.00 | 0.00 | 62 | 1010.4 |
| 20260507010626 | 60 | 25 | 1.7 | 3.5 | 0.00 | 0.00 | 0.00 | 62 | 1010.3 |
| 20260507010526 | 60 | 27 | 1.7 | 3.5 | 0.00 | 0.00 | 0.00 | 62 | 1010.2 |
| 20260507010426 | 60 | 28 | 1.7 | 3.5 | 0.00 | 0.00 | 0.00 | 63 | 1010.4 |
| 20260507010326 | 60 | 29 | 1.7 | 3.5 | 0.00 | 0.00 | 0.00 | 63 | 1010.0 |
| 20260507010226 | 60 | 35 | 1.7 | 3.5 | 0.00 | 0.00 | 0.00 | 63 | 1010.4 |
| 20260507010127 | 60 | 39 | 1.7 | 3.5 | 0.00 | 0.00 | 0.00 | 63 | 1010.2 |
| 20260507010027 | 60 | 41 | 1.7 | 3.5 | 0.00 | 0.00 | 0.00 | 63 | 1010.5 |
| 20260507005926 | 60 | 44 | 1.7 | 3.5 | 0.00 | 0.00 | 0.00 | 63 | 1010.4 |
| 20260507005827 | 60 | 50 | 1.7 | 3.5 | 0.00 | 0.00 | 0.00 | 63 | 1010.4 |
| 20260507005727 | 60 | 54 | 0.9 | 3.5 | 0.00 | 0.00 | 0.00 | 63 | 1010.4 |
| 20260507005626 | 60 | 53 | 1.7 | 3.5 | 0.00 | 0.00 | 0.00 | 63 | 1010.5 |
| 20260507005526 | 60 | 53 | 0.9 | 3.5 | 0.00 | 0.00 | 0.00 | 63 | 1010.5 |
| 20260507005426 | 60 | 54 | 1.7 | 5.2 | 0.00 | 0.00 | 0.00 | 62 | 1010.3 |
| 20260507005326 | 61 | 54 | 1.7 | 5.2 | 0.00 | 0.00 | 0.00 | 62 | 1010.1 |
| 20260507005227 | 61 | 53 | 1.7 | 5.2 | 0.00 | 0.00 | 0.00 | 61 | 1010.4 |
| 20260507005126 | 61 | 48 | 2.6 | 5.2 | 0.00 | 0.00 | 0.00 | 61 | 1010.3 |
| 20260507005026 | 61 | 47 | 2.6 | 5.2 | 0.00 | 0.00 | 0.00 | 62 | 1010.4 |
| 20260507004927 | 61 | 44 | 1.7 | 5.2 | 0.00 | 0.00 | 0.00 | 62 | 1010.3 |
| 20260507004826 | 60 | 40 | 2.6 | 5.2 | 0.00 | 0.00 | 0.00 | 62 | 1010.2 |
| 20260507004727 | 60 | 38 | 3.5 | 5.2 | 0.00 | 0.00 | 0.00 | 63 | 1010.4 |
| 20260507004626 | 60 | 42 | 1.7 | 5.2 | 0.00 | 0.00 | 0.00 | 63 | 1010.3 |
| 20260507004526 | 60 | 44 | 2.6 | 5.2 | 0.00 | 0.00 | 0.00 | 63 | 1010.6 |
| 20260507004427 | 60 | 44 | 2.6 | 5.2 | 0.00 | 0.00 | 0.00 | 63 | 1010.5 |
| 20260507004326 | 60 | 49 | 1.7 | 3.5 | 0.00 | 0.00 | 0.00 | 64 | 1010.5 |
| 20260507004227 | 60 | 51 | 1.7 | 3.5 | 0.00 | 0.00 | 0.00 | 63 | 1010.5 |
| 20260507004127 | 60 | 56 | 1.7 | 3.5 | 0.00 | 0.00 | 0.00 | 63 | 1010.4 |
| 20260507004027 | 60 | 58 | 1.7 | 3.5 | 0.00 | 0.00 | 0.00 | 63 | 1010.4 |
| 20260507003927 | 60 | 60 | 2.6 | 3.5 | 0.00 | 0.00 | 0.00 | 63 | 1010.2 |
| 20260507003826 | 60 | 63 | 2.6 | 3.5 | 0.00 | 0.00 | 0.00 | 63 | 1010.5 |
| 20260507003727 | 60 | 65 | 3.5 | 3.5 | 0.00 | 0.00 | 0.00 | 64 | 1010.5 |
| 20260507003626 | 60 | 65 | 2.6 | 5.2 | 0.00 | 0.00 | 0.00 | 64 | 1010.5 |
| 20260507003528 | 60 | 67 | 1.7 | 5.2 | 0.00 | 0.00 | 0.00 | 65 | 1010.3 |
| 20260507003426 | 59 | 67 | 1.7 | 6.1 | 0.00 | 0.00 | 0.00 | 66 | 1010.5 |
| 20260507003326 | 59 | 63 | 1.7 | 6.1 | 0.00 | 0.00 | 0.00 | 66 | 1010.4 |
| 20260507003226 | 60 | 61 | 1.7 | 6.1 | 0.00 | 0.00 | 0.00 | 66 | 1010.5 |
| 20260507003127 | 60 | 60 | 1.7 | 6.1 | 0.00 | 0.00 | 0.00 | 65 | 1010.5 |
| 20260507003027 | 60 | 58 | 1.7 | 6.1 | 0.00 | 0.00 | 0.00 | 65 | 1010.6 |
| 20260507002926 | 60 | 54 | 1.7 | 6.1 | 0.00 | 0.00 | 0.00 | 65 | 1010.7 |
| 20260507002826 | 60 | 48 | 1.7 | 6.1 | 0.00 | 0.00 | 0.00 | 64 | 1010.4 |
| 20260507002727 | 60 | 45 | 3.5 | 6.1 | 0.00 | 0.00 | 0.00 | 64 | 1010.5 |
| 20260507002626 | 60 | 42 | 3.5 | 6.1 | 0.00 | 0.00 | 0.00 | 64 | 1010.5 |
| 20260507002526 | 60 | 39 | 4.3 | 6.1 | 0.00 | 0.00 | 0.00 | 64 | 1010.5 |
| 20260507002427 | 60 | 38 | 4.3 | 6.1 | 0.00 | 0.00 | 0.00 | 64 | 1010.5 |
| 20260507002326 | 60 | 36 | 3.5 | 5.2 | 0.00 | 0.00 | 0.00 | 64 | 1010.5 |
| 20260507002227 | 60 | 35 | 3.5 | 5.2 | 0.00 | 0.00 | 0.00 | 64 | 1010.3 |
| 20260507002126 | 60 | 33 | 2.6 | 5.2 | 0.00 | 0.00 | 0.00 | 64 | 1010.4 |
| 20260507002026 | 61 | 36 | 2.6 | 5.2 | 0.00 | 0.00 | 0.00 | 64 | 1010.4 |
| 20260507001926 | 61 | 41 | 2.6 | 5.2 | 0.00 | 0.00 | 0.00 | 63 | 1010.5 |
| 20260507001826 | 61 | 48 | 1.7 | 5.2 | 0.00 | 0.00 | 0.00 | 63 | 1010.6 |
| 20260507001726 | 60 | 51 | 3.5 | 5.2 | 0.00 | 0.00 | 0.00 | 63 | 1010.3 |
| 20260507001626 | 60 | 53 | 3.5 | 3.5 | 0.00 | 0.00 | 0.00 | 64 | 1010.6 |
| 20260507001526 | 61 | 55 | 1.7 | 3.5 | 0.00 | 0.00 | 0.00 | 63 | 1010.7 |
| 20260507001426 | 61 | 57 | 2.6 | 3.5 | 0.00 | 0.00 | 0.00 | 63 | 1010.5 |
| 20260507001326 | 61 | 59 | 2.6 | 3.5 | 0.00 | 0.00 | 0.00 | 63 | 1010.5 |
| 20260507001226 | 61 | 63 | 2.6 | 3.5 | 0.00 | 0.00 | 0.00 | 63 | 1010.4 |
| 20260507001126 | 61 | 66 | 1.7 | 3.5 | 0.00 | 0.00 | 0.00 | 63 | 1010.6 |
| 20260507001026 | 61 | 67 | 2.6 | 3.5 | 0.00 | 0.00 | 0.00 | 62 | 1010.4 |
| 20260507000926 | 61 | 67 | 1.7 | 3.5 | 0.00 | 0.00 | 0.00 | 63 | 1010.5 |
| 20260507000826 | 60 | 67 | 1.7 | 5.2 | 0.00 | 0.00 | 0.00 | 66 | 1010.6 |
| 20260507000726 | 60 | 72 | 1.7 | 5.2 | 0.00 | 0.00 | 0.00 | 66 | 1010.5 |
| 20260507000626 | 60 | 73 | 1.7 | 5.2 | 0.00 | 0.00 | 0.00 | 66 | 1010.5 |
| 20260507000526 | 60 | 73 | 1.7 | 6.1 | 0.00 | 0.00 | 0.00 | 66 | 1010.4 |
| 20260507000427 | 60 | 70 | 1.7 | 6.1 | 0.00 | 0.00 | 0.00 | 66 | 1010.6 |
| 20260507000328 | 60 | 70 | 1.7 | 6.1 | 0.00 | 0.00 | 0.00 | 66 | 1010.5 |
| 20260507000227 | 60 | 66 | 1.7 | 6.1 | 0.00 | 0.00 | 0.00 | 66 | 1010.6 |
| 20260507000126 | 60 | 64 | 1.7 | 6.1 | 0.00 | 0.00 | 0.00 | 66 | 1010.6 |
| 20260507000027 | 60 | 60 | 1.7 | 6.1 | 0.00 | 0.00 | 0.00 | 66 | 1010.6 |
| 20260506235926 | 60 | 57 | 1.7 | 6.1 | 0.00 | 0.00 | 0.00 | 66 | 1010.5 |
| 20260506235826 | 61 | 52 | 2.6 | 6.1 | 0.00 | 0.00 | 0.00 | 65 | 1010.5 |
| 20260506235726 | 61 | 49 | 2.6 | 6.1 | 0.00 | 0.00 | 0.00 | 65 | 1010.6 |
| 20260506235626 | 61 | 45 | 3.5 | 6.1 | 0.00 | 0.00 | 0.00 | 65 | 1010.3 |
| 20260506235526 | 61 | 42 | 3.5 | 6.1 | 0.00 | 0.00 | 0.00 | 65 | 1010.6 |
| 20260506235426 | 61 | 41 | 3.5 | 5.2 | 0.00 | 0.00 | 0.00 | 64 | 1010.4 |
| 20260506235326 | 61 | 38 | 3.5 | 5.2 | 0.00 | 0.00 | 0.00 | 64 | 1010.5 |
| 20260506235226 | 61 | 38 | 3.5 | 3.5 | 0.00 | 0.00 | 0.00 | 64 | 1010.4 |
| 20260506235126 | 61 | 37 | 1.7 | 3.5 | 0.00 | 0.00 | 0.00 | 64 | 1010.4 |
| 20260506235026 | 61 | 45 | 1.7 | 3.5 | 0.00 | 0.00 | 0.00 | 64 | 1010.3 |
| 20260506234926 | 62 | 47 | 1.7 | 3.5 | 0.00 | 0.00 | 0.00 | 64 | 1010.3 |
| 20260506234827 | 62 | 51 | 1.7 | 3.5 | 0.00 | 0.00 | 0.00 | 64 | 1010.4 |
| 20260506234726 | 62 | 51 | 1.7 | 3.5 | 0.00 | 0.00 | 0.00 | 63 | 1010.4 |
| 20260506234626 | 62 | 51 | 0.9 | 3.5 | 0.00 | 0.00 | 0.00 | 63 | 1010.4 |
| 20260506234526 | 62 | 51 | 0.9 | 3.5 | 0.00 | 0.00 | 0.00 | 63 | 1010.5 |
| 20260506234426 | 62 | 51 | 0.9 | 3.5 | 0.00 | 0.00 | 0.00 | 63 | 1010.6 |
| 20260506234326 | 62 | 51 | 1.7 | 3.5 | 0.00 | 0.00 | 0.00 | 63 | 1010.3 |
| 20260506234227 | 62 | 52 | 1.7 | 3.5 | 0.00 | 0.00 | 0.00 | 62 | 1010.6 |
| 20260506234127 | 62 | 54 | 1.7 | 3.5 | 0.00 | 0.00 | 0.00 | 62 | 1010.5 |
| 20260506234026 | 62 | 54 | 2.6 | 3.5 | 0.00 | 0.00 | 0.00 | 62 | 1010.6 |
| 20260506233927 | 62 | 53 | 1.7 | 3.5 | 0.00 | 0.00 | 0.00 | 62 | 1010.8 |
| 20260506233826 | 62 | 51 | 1.7 | 3.5 | 0.00 | 0.00 | 0.00 | 61 | 1010.7 |
| 20260506233726 | 62 | 52 | 1.7 | 3.5 | 0.00 | 0.00 | 0.00 | 61 | 1010.6 |
| 20260506233626 | 62 | 47 | 1.7 | 3.5 | 0.00 | 0.00 | 0.00 | 61 | 1010.7 |
| 20260506233526 | 62 | 43 | 1.7 | 3.5 | 0.00 | 0.00 | 0.00 | 61 | 1010.7 |
| 20260506233426 | 62 | 41 | 1.7 | 3.5 | 0.00 | 0.00 | 0.00 | 60 | 1010.6 |
| 20260506233326 | 62 | 37 | 1.7 | 3.5 | 0.00 | 0.00 | 0.00 | 60 | 1010.7 |
| 20260506233226 | 62 | 29 | 1.7 | 3.5 | 0.00 | 0.00 | 0.00 | 60 | 1010.6 |
| 20260506233126 | 62 | 16 | 1.7 | 1.7 | 0.00 | 0.00 | 0.00 | 61 | 1010.5 |
| 20260506233026 | 62 | 11 | 1.7 | 1.7 | 0.00 | 0.00 | 0.00 | 61 | 1010.6 |
| 20260506232926 | 62 | 360 | 1.7 | 1.7 | 0.00 | 0.00 | 0.00 | 60 | 1010.7 |
| 20260506232826 | 62 | 350 | 1.7 | 1.7 | 0.00 | 0.00 | 0.00 | 60 | 1010.7 |
| 20260506232726 | 63 | 341 | 1.7 | 1.7 | 0.00 | 0.00 | 0.00 | 60 | 1010.6 |
| 20260506232626 | 63 | 334 | 1.7 | 1.7 | 0.00 | 0.00 | 0.00 | 60 | 1010.7 |
| 20260506232526 | 63 | 324 | 1.7 | 1.7 | 0.00 | 0.00 | 0.00 | 60 | 1010.7 |
| 20260506232426 | 63 | 316 | 1.7 | 1.7 | 0.00 | 0.00 | 0.00 | 60 | 1010.7 |
| 20260506232326 | 63 | 304 | 0.9 | 1.7 | 0.00 | 0.00 | 0.00 | 60 | 1010.9 |
| 20260506232226 | 62 | 292 | 0.9 | 1.7 | 0.00 | 0.00 | 0.00 | 60 | 1010.9 |
| 20260506232126 | 62 | 237 | 0.9 | 1.7 | 0.00 | 0.00 | 0.00 | 60 | 1010.8 |
| 20260506232026 | 62 | 163 | 0.0 | 1.7 | 0.00 | 0.00 | 0.00 | 61 | 1010.8 |
| 20260506231926 | 62 | 146 | 0.9 | 1.7 | 0.00 | 0.00 | 0.00 | 61 | 1010.9 |
| 20260506231826 | 62 | 139 | 0.9 | 1.7 | 0.00 | 0.00 | 0.00 | 60 | 1010.7 |
| 20260506231726 | 63 | 137 | 0.9 | 1.7 | 0.00 | 0.00 | 0.00 | 60 | 1010.9 |
| 20260506231626 | 63 | 136 | 0.0 | 1.7 | 0.00 | 0.00 | 0.00 | 59 | 1010.9 |
| 20260506231526 | 63 | 135 | 0.0 | 1.7 | 0.00 | 0.00 | 0.00 | 59 | 1011.0 |
| 20260506231426 | 63 | 130 | 1.7 | 1.7 | 0.00 | 0.00 | 0.00 | 59 | 1010.9 |
| 20260506231326 | 63 | 124 | 1.7 | 1.7 | 0.00 | 0.00 | 0.00 | 59 | 1010.7 |
| 20260506231227 | 63 | 121 | 1.7 | 1.7 | 0.00 | 0.00 | 0.00 | 59 | 1010.9 |
| 20260506231126 | 63 | 115 | 1.7 | 1.7 | 0.00 | 0.00 | 0.00 | 60 | 1011.0 |
| 20260506231026 | 62 | 96 | 0.9 | 1.7 | 0.00 | 0.00 | 0.00 | 60 | 1010.9 |
| 20260506230926 | 62 | 85 | 1.7 | 1.7 | 0.00 | 0.00 | 0.00 | 60 | 1011.0 |
| 20260506230826 | 62 | 73 | 0.9 | 1.7 | 0.00 | 0.00 | 0.00 | 60 | 1010.9 |
| 20260506230726 | 62 | 67 | 0.0 | 1.7 | 0.00 | 0.00 | 0.00 | 61 | 1010.9 |
| 20260506230626 | 62 | 67 | 0.0 | 1.7 | 0.00 | 0.00 | 0.00 | 60 | 1010.9 |
| 20260506230526 | 62 | 67 | 0.0 | 1.7 | 0.00 | 0.00 | 0.00 | 60 | 1011.0 |
| 20260506230426 | 62 | 67 | 0.0 | 1.7 | 0.00 | 0.00 | 0.00 | 60 | 1010.8 |
| 20260506230326 | 63 | 62 | 0.0 | 1.7 | 0.00 | 0.00 | 0.00 | 60 | 1010.9 |
| 20260506230226 | 63 | 57 | 0.0 | 1.7 | 0.00 | 0.00 | 0.00 | 60 | 1010.7 |
| 20260506230126 | 62 | 55 | 0.0 | 1.7 | 0.00 | 0.00 | 0.00 | 60 | 1011.0 |
| 20260506230026 | 62 | 51 | 0.9 | 1.7 | 0.00 | 0.00 | 0.00 | 60 | 1010.9 |
| 20260506225926 | 63 | 44 | 0.9 | 1.7 | 0.00 | 0.00 | 0.00 | 60 | 1010.7 |
| 20260506225826 | 63 | 32 | 0.0 | 1.7 | 0.00 | 0.00 | 0.00 | 60 | 1010.9 |
| 20260506225726 | 63 | 28 | 0.0 | 1.7 | 0.00 | 0.00 | 0.00 | 60 | 1010.9 |
| 20260506225626 | 63 | 27 | 0.0 | 1.7 | 0.00 | 0.00 | 0.00 | 60 | 1010.9 |
| 20260506225526 | 63 | 23 | 0.0 | 1.7 | 0.00 | 0.00 | 0.00 | 60 | 1011.0 |
| 20260506225426 | 63 | 23 | 0.0 | 1.7 | 0.00 | 0.00 | 0.00 | 61 | 1011.2 |
| 20260506225326 | 63 | 19 | 1.7 | 1.7 | 0.00 | 0.00 | 0.00 | 61 | 1010.8 |
| 20260506225226 | 63 | 14 | 0.0 | 1.7 | 0.00 | 0.00 | 0.00 | 61 | 1010.8 |
| 20260506225126 | 63 | 3 | 0.9 | 3.5 | 0.00 | 0.00 | 0.00 | 61 | 1010.8 |
| 20260506225026 | 63 | 357 | 0.0 | 3.5 | 0.00 | 0.00 | 0.00 | 61 | 1010.8 |
| 20260506224926 | 63 | 356 | 0.9 | 3.5 | 0.00 | 0.00 | 0.00 | 61 | 1010.9 |
| 20260506224826 | 63 | 356 | 0.9 | 3.5 | 0.00 | 0.00 | 0.00 | 60 | 1011.0 |
| 20260506224726 | 63 | 355 | 0.0 | 3.5 | 0.00 | 0.00 | 0.00 | 61 | 1011.0 |
| 20260506224626 | 64 | 359 | 1.7 | 3.5 | 0.00 | 0.00 | 0.00 | 60 | 1010.9 |
| 20260506224526 | 64 | 359 | 0.0 | 3.5 | 0.00 | 0.00 | 0.00 | 60 | 1011.0 |
| 20260506224426 | 64 | 359 | 0.9 | 3.5 | 0.00 | 0.00 | 0.00 | 60 | 1011.0 |
| 20260506224326 | 64 | 1 | 1.7 | 3.5 | 0.00 | 0.00 | 0.00 | 59 | 1010.9 |
| 20260506224226 | 63 | 3 | 2.6 | 3.5 | 0.00 | 0.00 | 0.00 | 60 | 1010.8 |
| 20260506224126 | 63 | 8 | 1.7 | 3.5 | 0.00 | 0.00 | 0.00 | 61 | 1010.7 |
| 20260506224026 | 62 | 12 | 1.7 | 3.5 | 0.00 | 0.00 | 0.00 | 61 | 1010.9 |
| 20260506223927 | 62 | 14 | 2.6 | 3.5 | 0.00 | 0.00 | 0.00 | 63 | 1011.0 |
| 20260506223826 | 62 | 15 | 3.5 | 3.5 | 0.00 | 0.00 | 0.00 | 63 | 1011.1 |
| 20260506223726 | 62 | 17 | 1.7 | 3.5 | 0.00 | 0.00 | 0.00 | 63 | 1011.0 |
| 20260506223626 | 62 | 12 | 2.6 | 3.5 | 0.00 | 0.00 | 0.00 | 63 | 1010.9 |
| 20260506223526 | 62 | 8 | 3.5 | 3.5 | 0.00 | 0.00 | 0.00 | 63 | 1011.0 |
| 20260506223426 | 62 | 11 | 1.7 | 3.5 | 0.00 | 0.00 | 0.00 | 62 | 1011.0 |
| 20260506223326 | 62 | 3 | 1.7 | 1.7 | 0.00 | 0.00 | 0.00 | 63 | 1011.2 |
| 20260506223226 | 62 | 341 | 1.7 | 1.7 | 0.00 | 0.00 | 0.00 | 62 | 1011.1 |
| 20260506223126 | 62 | 312 | 0.0 | 1.7 | 0.00 | 0.00 | 0.00 | 63 | 1011.2 |
| 20260506223026 | 62 | 303 | 0.9 | 1.7 | 0.00 | 0.00 | 0.00 | 63 | 1011.2 |
| 20260506222926 | 62 | 292 | 0.9 | 1.7 | 0.00 | 0.00 | 0.00 | 63 | 1011.1 |
| 20260506222826 | 63 | 283 | 0.0 | 1.7 | 0.00 | 0.00 | 0.00 | 63 | 1011.1 |
| 20260506222726 | 63 | 271 | 0.9 | 1.7 | 0.00 | 0.00 | 0.00 | 63 | 1011.1 |
| 20260506222626 | 62 | 264 | 0.0 | 1.7 | 0.00 | 0.00 | 0.00 | 62 | 1011.0 |
| 20260506222528 | 62 | 259 | 0.0 | 1.7 | 0.00 | 0.00 | 0.00 | 62 | 1011.1 |
| 20260506222426 | 62 | 256 | 0.0 | 1.7 | 0.00 | 0.00 | 0.00 | 62 | 1011.2 |
| 20260506222326 | 63 | 255 | 0.0 | 3.5 | 0.00 | 0.00 | 0.00 | 62 | 1011.2 |
| 20260506222226 | 62 | 256 | 0.9 | 3.5 | 0.00 | 0.00 | 0.00 | 62 | 1011.3 |
| 20260506222126 | 62 | 249 | 0.9 | 3.5 | 0.00 | 0.00 | 0.00 | 62 | 1011.0 |
| 20260506222026 | 62 | 241 | 0.9 | 3.5 | 0.00 | 0.00 | 0.00 | 62 | 1011.0 |
| 20260506221926 | 62 | 235 | 0.9 | 3.5 | 0.00 | 0.00 | 0.00 | 62 | 1011.2 |
| 20260506221826 | 63 | 234 | 0.0 | 3.5 | 0.00 | 0.00 | 0.00 | 62 | 1011.2 |
| 20260506221726 | 63 | 233 | 0.9 | 5.2 | 0.00 | 0.00 | 0.00 | 62 | 1011.1 |
| 20260506221626 | 63 | 231 | 1.7 | 5.2 | 0.00 | 0.00 | 0.00 | 62 | 1011.2 |
| 20260506221527 | 63 | 230 | 1.7 | 5.2 | 0.00 | 0.00 | 0.00 | 62 | 1011.2 |
| 20260506221426 | 63 | 228 | 0.9 | 5.2 | 0.00 | 0.00 | 0.00 | 62 | 1011.1 |
| 20260506221326 | 63 | 226 | 1.7 | 5.2 | 0.00 | 0.00 | 0.00 | 62 | 1011.2 |
| 20260506221226 | 63 | 225 | 1.7 | 5.2 | 0.00 | 0.00 | 0.00 | 61 | 1011.0 |
| 20260506221126 | 63 | 225 | 1.7 | 5.2 | 0.00 | 0.00 | 0.00 | 61 | 1011.0 |
| 20260506221026 | 63 | 228 | 1.7 | 5.2 | 0.00 | 0.00 | 0.00 | 61 | 1011.0 |
| 20260506220926 | 63 | 232 | 2.6 | 5.2 | 0.00 | 0.00 | 0.00 | 62 | 1011.3 |
| 20260506220826 | 63 | 236 | 3.5 | 5.2 | 0.00 | 0.00 | 0.00 | 62 | 1011.0 |
| 20260506220726 | 63 | 240 | 3.5 | 5.2 | 0.00 | 0.00 | 0.00 | 62 | 1011.0 |
| 20260506220626 | 63 | 265 | 2.6 | 3.5 | 0.00 | 0.00 | 0.00 | 62 | 1011.1 |
| 20260506220526 | 63 | 306 | 1.7 | 1.7 | 0.00 | 0.00 | 0.00 | 62 | 1010.9 |
| 20260506220426 | 63 | 318 | 1.7 | 1.7 | 0.00 | 0.00 | 0.00 | 62 | 1011.0 |
| 20260506220326 | 63 | 331 | 1.7 | 1.7 | 0.00 | 0.00 | 0.00 | 62 | 1011.0 |
| 20260506220226 | 63 | 338 | 1.7 | 1.7 | 0.00 | 0.00 | 0.00 | 62 | 1011.1 |
| 20260506220126 | 62 | 340 | 1.7 | 1.7 | 0.00 | 0.00 | 0.00 | 62 | 1011.0 |
| 20260506220028 | 62 | 331 | 1.7 | 1.7 | 0.00 | 0.00 | 0.00 | 61 | 1011.0 |
| 20260506215926 | 62 | 318 | 1.7 | 1.7 | 0.00 | 0.00 | 0.00 | 61 | 1011.0 |
| 20260506215826 | 62 | 308 | 1.7 | 1.7 | 0.00 | 0.00 | 0.00 | 61 | 1011.4 |
| 20260506215726 | 62 | 301 | 0.9 | 1.7 | 0.00 | 0.00 | 0.00 | 61 | 1011.1 |
| 20260506215626 | 63 | 291 | 0.9 | 1.7 | 0.00 | 0.00 | 0.00 | 61 | 1011.0 |
| 20260506215526 | 63 | 286 | 0.0 | 1.7 | 0.00 | 0.00 | 0.00 | 61 | 1011.0 |
| 20260506215426 | 63 | 283 | 0.9 | 1.7 | 0.00 | 0.00 | 0.00 | 61 | 1011.1 |
| 20260506215326 | 63 | 278 | 0.9 | 1.7 | 0.00 | 0.00 | 0.00 | 61 | 1011.3 |
| 20260506215226 | 63 | 271 | 0.9 | 1.7 | 0.00 | 0.00 | 0.00 | 61 | 1011.1 |
| 20260506215126 | 63 | 264 | 0.9 | 3.5 | 0.00 | 0.00 | 0.00 | 61 | 1010.9 |
| 20260506215026 | 63 | 256 | 0.9 | 3.5 | 0.00 | 0.00 | 0.00 | 60 | 1011.2 |
| 20260506214926 | 63 | 252 | 0.9 | 3.5 | 0.00 | 0.00 | 0.00 | 60 | 1011.1 |
| 20260506214826 | 63 | 248 | 0.0 | 3.5 | 0.00 | 0.00 | 0.00 | 60 | 1011.0 |
| 20260506214726 | 63 | 247 | 0.0 | 5.2 | 0.00 | 0.00 | 0.00 | 60 | 1011.2 |
| 20260506214626 | 63 | 247 | 0.0 | 5.2 | 0.00 | 0.00 | 0.00 | 59 | 1011.0 |
| 20260506214526 | 63 | 247 | 0.0 | 5.2 | 0.00 | 0.00 | 0.00 | 59 | 1010.8 |
| 20260506214426 | 63 | 247 | 0.0 | 5.2 | 0.00 | 0.00 | 0.00 | 59 | 1011.0 |
| 20260506214326 | 63 | 247 | 1.7 | 5.2 | 0.00 | 0.00 | 0.00 | 59 | 1011.1 |
| 20260506214226 | 63 | 245 | 1.7 | 5.2 | 0.00 | 0.00 | 0.00 | 59 | 1010.9 |
| 20260506214126 | 63 | 244 | 1.7 | 5.2 | 0.00 | 0.00 | 0.00 | 58 | 1010.9 |
| 20260506214026 | 63 | 240 | 1.7 | 5.2 | 0.00 | 0.00 | 0.00 | 58 | 1011.0 |
| 20260506213926 | 63 | 240 | 1.7 | 5.2 | 0.00 | 0.00 | 0.00 | 58 | 1011.1 |
| 20260506213826 | 63 | 234 | 3.5 | 5.2 | 0.00 | 0.00 | 0.00 | 58 | 1010.8 |
| 20260506213726 | 63 | 230 | 3.5 | 5.2 | 0.00 | 0.00 | 0.00 | 58 | 1011.1 |
| 20260506213626 | 63 | 222 | 2.6 | 3.5 | 0.00 | 0.00 | 0.00 | 58 | 1011.0 |
| 20260506213526 | 63 | 212 | 2.6 | 3.5 | 0.00 | 0.00 | 0.00 | 58 | 1011.2 |
| 20260506213426 | 63 | 197 | 1.7 | 3.5 | 0.00 | 0.00 | 0.00 | 58 | 1010.8 |
| 20260506213326 | 63 | 189 | 1.7 | 3.5 | 0.00 | 0.00 | 0.00 | 58 | 1010.9 |
| 20260506213226 | 63 | 174 | 1.7 | 3.5 | 0.00 | 0.00 | 0.00 | 58 | 1011.2 |
| 20260506213126 | 63 | 156 | 1.7 | 3.5 | 0.00 | 0.00 | 0.00 | 58 | 1011.1 |
| 20260506213026 | 63 | 157 | 1.7 | 3.5 | 0.00 | 0.00 | 0.00 | 58 | 1011.2 |
| 20260506212926 | 63 | 153 | 1.7 | 3.5 | 0.00 | 0.00 | 0.00 | 59 | 1011.2 |
| 20260506212826 | 63 | 149 | 1.7 | 3.5 | 0.00 | 0.00 | 0.00 | 59 | 1011.0 |
| 20260506212726 | 63 | 141 | 1.7 | 3.5 | 0.00 | 0.00 | 0.00 | 59 | 1010.9 |
| 20260506212626 | 63 | 136 | 0.9 | 3.5 | 0.00 | 0.00 | 0.00 | 60 | 1011.3 |
| 20260506212526 | 63 | 133 | 0.9 | 3.5 | 0.00 | 0.00 | 0.00 | 60 | 1011.1 |
| 20260506212426 | 63 | 132 | 0.9 | 3.5 | 0.00 | 0.00 | 0.00 | 60 | 1011.2 |
| 20260506212326 | 63 | 132 | 0.0 | 3.5 | 0.00 | 0.00 | 0.00 | 60 | 1011.3 |
| 20260506212226 | 63 | 129 | 1.7 | 3.5 | 0.00 | 0.00 | 0.00 | 60 | 1011.2 |
| 20260506212126 | 63 | 122 | 1.7 | 3.5 | 0.00 | 0.00 | 0.00 | 60 | 1011.2 |
| 20260506212026 | 63 | 117 | 1.7 | 3.5 | 0.00 | 0.00 | 0.00 | 59 | 1011.3 |
| 20260506211926 | 63 | 104 | 1.7 | 3.5 | 0.00 | 0.00 | 0.00 | 60 | 1011.1 |
| 20260506211826 | 63 | 102 | 1.7 | 1.7 | 0.00 | 0.00 | 0.00 | 60 | 1011.2 |
| 20260506211726 | 63 | 109 | 1.7 | 1.7 | 0.00 | 0.00 | 0.00 | 61 | 1011.3 |
| 20260506211626 | 63 | 121 | 0.9 | 1.7 | 0.00 | 0.00 | 0.00 | 60 | 1011.4 |
| 20260506211526 | 63 | 125 | 0.0 | 1.7 | 0.00 | 0.00 | 0.00 | 60 | 1011.3 |
| 20260506211426 | 63 | 134 | 0.0 | 1.7 | 0.00 | 0.00 | 0.00 | 59 | 1011.2 |
| 20260506211326 | 63 | 138 | 0.0 | 1.7 | 0.00 | 0.00 | 0.00 | 59 | 1011.3 |
| 20260506211226 | 63 | 143 | 0.9 | 1.7 | 0.00 | 0.00 | 0.00 | 59 | 1011.2 |
| 20260506211126 | 63 | 149 | 0.9 | 1.7 | 0.00 | 0.00 | 0.00 | 59 | 1011.1 |
| 20260506211026 | 64 | 152 | 0.9 | 3.5 | 0.00 | 0.00 | 0.00 | 59 | 1011.3 |
| 20260506210926 | 64 | 160 | 0.9 | 3.5 | 0.00 | 0.00 | 0.00 | 59 | 1011.2 |
| 20260506210826 | 64 | 167 | 0.0 | 3.5 | 0.00 | 0.00 | 0.00 | 59 | 1011.2 |
| 20260506210726 | 64 | 172 | 0.9 | 3.5 | 0.00 | 0.00 | 0.00 | 59 | 1011.2 |
| 20260506210627 | 64 | 174 | 0.9 | 3.5 | 0.00 | 0.00 | 0.00 | 59 | 1011.3 |
| 20260506210526 | 64 | 180 | 1.7 | 3.5 | 0.00 | 0.00 | 0.00 | 59 | 1011.2 |
| 20260506210426 | 64 | 180 | 0.9 | 3.5 | 0.00 | 0.00 | 0.00 | 59 | 1011.3 |
| 20260506210326 | 64 | 184 | 0.9 | 3.5 | 0.00 | 0.00 | 0.00 | 59 | 1011.2 |
| 20260506210226 | 64 | 185 | 0.0 | 3.5 | 0.00 | 0.00 | 0.00 | 58 | 1011.3 |
| 20260506210126 | 64 | 186 | 0.0 | 3.5 | 0.00 | 0.00 | 0.00 | 58 | 1011.1 |
| 20260506210026 | 64 | 188 | 1.7 | 3.5 | 0.00 | 0.00 | 0.00 | 58 | 1011.1 |
| 20260506205926 | 64 | 192 | 2.6 | 3.5 | 0.00 | 0.00 | 0.00 | 58 | 1011.4 |
| 20260506205826 | 64 | 192 | 2.6 | 3.5 | 0.00 | 0.00 | 0.00 | 58 | 1011.3 |
| 20260506205726 | 64 | 189 | 3.5 | 3.5 | 0.00 | 0.00 | 0.00 | 59 | 1011.1 |
| 20260506205626 | 64 | 185 | 2.6 | 3.5 | 0.00 | 0.00 | 0.00 | 60 | 1011.3 |
| 20260506205526 | 63 | 181 | 2.6 | 3.5 | 0.00 | 0.00 | 0.00 | 60 | 1011.3 |
| 20260506205426 | 63 | 173 | 1.7 | 3.5 | 0.00 | 0.00 | 0.00 | 61 | 1011.2 |
| 20260506205326 | 63 | 168 | 1.7 | 3.5 | 0.00 | 0.00 | 0.00 | 61 | 1011.2 |
| 20260506205226 | 63 | 163 | 1.7 | 1.7 | 0.00 | 0.00 | 0.00 | 62 | 1011.3 |
| 20260506205126 | 63 | 156 | 0.9 | 1.7 | 0.00 | 0.00 | 0.00 | 62 | 1011.1 |
| 20260506205026 | 63 | 150 | 0.9 | 1.7 | 0.00 | 0.00 | 0.00 | 62 | 1011.5 |
| 20260506204926 | 63 | 147 | 1.7 | 1.7 | 0.00 | 0.00 | 0.00 | 62 | 1011.3 |
| 20260506204826 | 63 | 150 | 0.9 | 1.7 | 0.00 | 0.00 | 0.00 | 62 | 1011.5 |
| 20260506204726 | 64 | 157 | 1.7 | 1.7 | 0.00 | 0.00 | 0.00 | 62 | 1011.4 |
| 20260506204626 | 63 | 157 | 1.7 | 1.7 | 0.00 | 0.00 | 0.00 | 62 | 1011.3 |
| 20260506204526 | 63 | 191 | 0.9 | 1.7 | 0.00 | 0.00 | 0.00 | 63 | 1011.5 |
| 20260506204426 | 63 | 240 | 0.9 | 1.7 | 0.00 | 0.00 | 0.00 | 63 | 1011.4 |
| 20260506204326 | 64 | 247 | 0.0 | 1.7 | 0.00 | 0.00 | 0.00 | 64 | 1011.4 |
| 20260506204226 | 64 | 247 | 0.0 | 1.7 | 0.00 | 0.00 | 0.00 | 64 | 1011.5 |
| 20260506204126 | 64 | 247 | 0.0 | 1.7 | 0.00 | 0.00 | 0.00 | 64 | 1011.4 |
| 20260506204026 | 64 | 247 | 0.0 | 1.7 | 0.00 | 0.00 | 0.00 | 64 | 1011.4 |
| 20260506203926 | 64 | 251 | 0.0 | 1.7 | 0.00 | 0.00 | 0.00 | 64 | 1011.5 |
| 20260506203826 | 64 | 247 | 0.0 | 1.7 | 0.00 | 0.00 | 0.00 | 64 | 1011.3 |
| 20260506203726 | 64 | 246 | 0.0 | 1.7 | 0.00 | 0.00 | 0.00 | 64 | 1011.4 |
| 20260506203626 | 64 | 246 | 0.0 | 1.7 | 0.00 | 0.00 | 0.00 | 64 | 1011.4 |
| 20260506203526 | 64 | 246 | 0.0 | 3.5 | 0.00 | 0.00 | 0.00 | 64 | 1011.5 |
| 20260506203426 | 64 | 247 | 0.0 | 3.5 | 0.00 | 0.00 | 0.00 | 65 | 1011.4 |
| 20260506203326 | 64 | 247 | 0.0 | 3.5 | 0.00 | 0.00 | 0.00 | 65 | 1011.7 |
| 20260506203226 | 64 | 250 | 0.0 | 3.5 | 0.00 | 0.00 | 0.00 | 65 | 1011.5 |
| 20260506203126 | 64 | 260 | 0.0 | 3.5 | 0.00 | 0.00 | 0.00 | 65 | 1011.4 |
| 20260506203026 | 64 | 264 | 0.0 | 3.5 | 0.00 | 0.00 | 0.00 | 65 | 1011.5 |
| 20260506202926 | 64 | 267 | 0.0 | 3.5 | 0.00 | 0.00 | 0.00 | 64 | 1011.3 |
| 20260506202826 | 64 | 270 | 0.9 | 3.5 | 0.00 | 0.00 | 0.00 | 64 | 1011.6 |
| 20260506202726 | 64 | 273 | 0.9 | 3.5 | 0.00 | 0.00 | 0.00 | 64 | 1011.6 |
| 20260506202626 | 64 | 275 | 1.7 | 3.5 | 0.00 | 0.00 | 0.00 | 63 | 1011.4 |
| 20260506202526 | 64 | 278 | 1.7 | 3.5 | 0.00 | 0.00 | 0.00 | 63 | 1011.4 |
| 20260506202426 | 64 | 281 | 1.7 | 3.5 | 0.00 | 0.00 | 0.00 | 63 | 1011.4 |
| 20260506202326 | 64 | 280 | 0.9 | 3.5 | 0.00 | 0.00 | 0.00 | 62 | 1011.4 |
| 20260506202226 | 64 | 275 | 1.7 | 3.5 | 0.00 | 0.00 | 0.00 | 62 | 1011.4 |
| 20260506202126 | 64 | 268 | 1.7 | 3.5 | 0.00 | 0.00 | 0.00 | 63 | 1011.5 |
| 20260506202026 | 64 | 256 | 1.7 | 3.5 | 0.00 | 0.00 | 0.00 | 63 | 1011.4 |
| 20260506201926 | 64 | 242 | 1.7 | 3.5 | 0.00 | 0.00 | 0.00 | 64 | 1011.2 |
| 20260506201826 | 64 | 230 | 0.9 | 3.5 | 0.00 | 0.00 | 0.00 | 64 | 1011.4 |
| 20260506201726 | 64 | 223 | 0.0 | 3.5 | 0.00 | 0.00 | 0.00 | 65 | 1011.4 |
| 20260506201626 | 64 | 221 | 0.0 | 3.5 | 0.00 | 0.00 | 0.00 | 65 | 1011.4 |
| 20260506201526 | 64 | 217 | 0.0 | 3.5 | 0.00 | 0.00 | 0.00 | 64 | 1011.5 |
| 20260506201426 | 64 | 215 | 1.7 | 3.5 | 0.00 | 0.00 | 0.00 | 65 | 1011.4 |
| 20260506201326 | 64 | 211 | 1.7 | 3.5 | 0.00 | 0.00 | 0.00 | 65 | 1011.4 |
| 20260506201226 | 64 | 208 | 1.7 | 3.5 | 0.00 | 0.00 | 0.00 | 65 | 1011.3 |
| 20260506201126 | 64 | 208 | 1.7 | 3.5 | 0.00 | 0.00 | 0.00 | 65 | 1011.2 |
| 20260506201026 | 64 | 205 | 1.7 | 3.5 | 0.00 | 0.00 | 0.00 | 65 | 1011.4 |
| 20260506200926 | 63 | 202 | 1.7 | 3.5 | 0.00 | 0.00 | 0.00 | 65 | 1011.4 |
| 20260506200826 | 63 | 197 | 1.7 | 3.5 | 0.00 | 0.00 | 0.00 | 66 | 1011.4 |
| 20260506200726 | 63 | 194 | 1.7 | 3.5 | 0.00 | 0.00 | 0.00 | 66 | 1011.5 |
| 20260506200626 | 64 | 189 | 1.7 | 3.5 | 0.00 | 0.00 | 0.00 | 67 | 1011.3 |
| 20260506200526 | 64 | 184 | 1.7 | 3.5 | 0.00 | 0.00 | 0.00 | 67 | 1011.2 |
| 20260506200426 | 64 | 173 | 1.7 | 3.5 | 0.00 | 0.00 | 0.00 | 67 | 1011.4 |
| 20260506200326 | 64 | 163 | 1.7 | 3.5 | 0.00 | 0.00 | 0.00 | 66 | 1011.4 |
| 20260506200226 | 64 | 154 | 1.7 | 3.5 | 0.00 | 0.00 | 0.00 | 66 | 1011.4 |
| 20260506200126 | 64 | 141 | 1.7 | 3.5 | 0.00 | 0.00 | 0.00 | 65 | 1011.4 |
| 20260506200026 | 64 | 130 | 1.7 | 1.7 | 0.00 | 0.00 | 0.00 | 66 | 1011.3 |
| 20260506195926 | 63 | 122 | 1.7 | 1.7 | 0.00 | 0.00 | 0.00 | 66 | 1011.4 |
| 20260506195827 | 63 | 115 | 1.7 | 3.5 | 0.00 | 0.00 | 0.00 | 67 | 1011.2 |
| 20260506195726 | 63 | 108 | 0.9 | 3.5 | 0.00 | 0.00 | 0.00 | 70 | 1011.3 |
| 20260506195626 | 64 | 103 | 0.0 | 3.5 | 0.00 | 0.00 | 0.00 | 71 | 1011.2 |
| 20260506195526 | 64 | 100 | 0.0 | 3.5 | 0.00 | 0.00 | 0.00 | 71 | 1011.3 |
| 20260506195426 | 64 | 96 | 0.0 | 3.5 | 0.00 | 0.00 | 0.00 | 71 | 1011.4 |
| 20260506195326 | 64 | 91 | 0.9 | 3.5 | 0.00 | 0.00 | 0.00 | 71 | 1011.3 |
| 20260506195226 | 64 | 87 | 0.9 | 3.5 | 0.00 | 0.00 | 0.00 | 71 | 1011.2 |
| 20260506195126 | 64 | 82 | 0.9 | 3.5 | 0.00 | 0.00 | 0.00 | 71 | 1011.5 |
| 20260506195026 | 64 | 75 | 0.9 | 3.5 | 0.00 | 0.00 | 0.00 | 70 | 1011.2 |
| 20260506194926 | 64 | 69 | 1.7 | 3.5 | 0.00 | 0.00 | 0.00 | 70 | 1011.2 |
| 20260506194826 | 65 | 57 | 1.7 | 1.7 | 0.00 | 0.00 | 0.00 | 69 | 1011.4 |
| 20260506194726 | 65 | 51 | 1.7 | 1.7 | 0.00 | 0.00 | 0.00 | 69 | 1011.3 |
| 20260506194626 | 65 | 46 | 1.7 | 1.7 | 0.00 | 0.00 | 0.00 | 69 | 1011.4 |
| 20260506194526 | 65 | 39 | 1.7 | 1.7 | 0.00 | 0.00 | 0.00 | 69 | 1011.2 |
| 20260506194426 | 65 | 32 | 1.7 | 1.7 | 0.00 | 0.00 | 0.00 | 70 | 1011.3 |
| 20260506194326 | 65 | 25 | 1.7 | 1.7 | 0.00 | 0.00 | 0.00 | 70 | 1011.3 |
| 20260506194226 | 65 | 16 | 1.7 | 1.7 | 0.00 | 0.00 | 0.00 | 70 | 1011.1 |
| 20260506194126 | 65 | 10 | 1.7 | 1.7 | 0.00 | 0.00 | 0.00 | 70 | 1011.4 |
| 20260506194026 | 65 | 8 | 1.7 | 1.7 | 0.00 | 0.00 | 0.00 | 69 | 1011.1 |
| 20260506193926 | 65 | 6 | 0.9 | 1.7 | 0.00 | 0.00 | 0.00 | 69 | 1011.2 |
| 20260506193826 | 65 | 3 | 0.9 | 1.7 | 0.00 | 0.00 | 0.00 | 69 | 1011.2 |
| 20260506193726 | 65 | 3 | 0.9 | 1.7 | 0.00 | 0.00 | 0.00 | 69 | 1011.1 |
| 20260506193626 | 65 | 2 | 0.9 | 1.7 | 0.00 | 0.00 | 0.00 | 68 | 1011.4 |
| 20260506193526 | 65 | 2 | 0.0 | 1.7 | 0.00 | 0.00 | 0.00 | 68 | 1011.2 |
| 20260506193426 | 65 | 358 | 0.0 | 1.7 | 0.00 | 0.00 | 0.00 | 68 | 1011.3 |
| 20260506193326 | 65 | 354 | 0.0 | 1.7 | 0.00 | 0.00 | 0.00 | 68 | 1011.2 |
| 20260506193226 | 65 | 351 | 0.9 | 1.7 | 0.00 | 0.00 | 0.00 | 68 | 1011.4 |
| 20260506193126 | 65 | 349 | 0.9 | 1.7 | 0.00 | 0.00 | 0.00 | 68 | 1011.1 |
| 20260506193026 | 65 | 346 | 0.9 | 1.7 | 0.00 | 0.00 | 0.00 | 68 | 1011.1 |
| 20260506192926 | 65 | 341 | 0.9 | 1.7 | 0.00 | 0.00 | 0.00 | 67 | 1011.2 |
| 20260506192826 | 65 | 338 | 0.9 | 1.7 | 0.00 | 0.00 | 0.00 | 67 | 1011.3 |
| 20260506192726 | 65 | 333 | 0.9 | 1.7 | 0.00 | 0.00 | 0.00 | 67 | 1011.0 |
| 20260506192626 | 65 | 326 | 0.0 | 1.7 | 0.00 | 0.00 | 0.00 | 66 | 1011.0 |
| 20260506192526 | 65 | 326 | 0.0 | 1.7 | 0.00 | 0.00 | 0.00 | 66 | 1010.9 |
| 20260506192426 | 65 | 324 | 0.0 | 1.7 | 0.00 | 0.00 | 0.00 | 66 | 1011.1 |
| 20260506192326 | 65 | 317 | 0.9 | 1.7 | 0.00 | 0.00 | 0.00 | 66 | 1011.0 |
| 20260506192226 | 65 | 300 | 0.9 | 1.7 | 0.00 | 0.00 | 0.00 | 67 | 1011.1 |
| 20260506192126 | 65 | 285 | 1.7 | 1.7 | 0.00 | 0.00 | 0.00 | 67 | 1010.8 |
| 20260506192026 | 65 | 267 | 1.7 | 1.7 | 0.00 | 0.00 | 0.00 | 68 | 1011.0 |
| 20260506191926 | 65 | 244 | 1.7 | 1.7 | 0.00 | 0.00 | 0.00 | 68 | 1011.1 |
| 20260506191826 | 65 | 225 | 1.7 | 1.7 | 0.00 | 0.00 | 0.00 | 69 | 1011.0 |
| 20260506191726 | 65 | 212 | 1.7 | 1.7 | 0.00 | 0.00 | 0.00 | 69 | 1011.1 |
| 20260506191626 | 65 | 199 | 0.9 | 1.7 | 0.00 | 0.00 | 0.00 | 69 | 1010.9 |
| 20260506191526 | 65 | 196 | 0.0 | 1.7 | 0.00 | 0.00 | 0.00 | 69 | 1010.9 |
| 20260506191426 | 65 | 196 | 0.0 | 1.7 | 0.00 | 0.00 | 0.00 | 69 | 1011.1 |
| 20260506191326 | 65 | 194 | 1.7 | 1.7 | 0.00 | 0.00 | 0.00 | 69 | 1011.0 |
| 20260506191226 | 65 | 195 | 0.9 | 1.7 | 0.00 | 0.00 | 0.00 | 69 | 1011.1 |
| 20260506191126 | 65 | 193 | 1.7 | 1.7 | 0.00 | 0.00 | 0.00 | 68 | 1011.1 |
| 20260506191026 | 65 | 188 | 1.7 | 1.7 | 0.00 | 0.00 | 0.00 | 67 | 1011.0 |
| 20260506190926 | 65 | 162 | 1.7 | 1.7 | 0.00 | 0.00 | 0.00 | 68 | 1011.1 |
| 20260506190826 | 65 | 34 | 1.7 | 1.7 | 0.00 | 0.00 | 0.00 | 68 | 1010.9 |
| 20260506190726 | 65 | 12 | 1.7 | 1.7 | 0.00 | 0.00 | 0.00 | 68 | 1010.9 |
| 20260506190626 | 65 | 9 | 0.0 | 1.7 | 0.00 | 0.00 | 0.00 | 69 | 1010.9 |
| 20260506190526 | 65 | 11 | 0.0 | 1.7 | 0.00 | 0.00 | 0.00 | 69 | 1011.1 |
| 20260506190426 | 65 | 11 | 0.0 | 1.7 | 0.00 | 0.00 | 0.00 | 69 | 1011.0 |
| 20260506190326 | 65 | 20 | 0.0 | 1.7 | 0.00 | 0.00 | 0.00 | 69 | 1011.0 |
| 20260506190226 | 65 | 40 | 0.0 | 1.7 | 0.00 | 0.00 | 0.00 | 70 | 1011.1 |
| 20260506190126 | 65 | 48 | 0.0 | 1.7 | 0.00 | 0.00 | 0.00 | 70 | 1010.7 |
| 20260506190026 | 65 | 62 | 0.9 | 1.7 | 0.00 | 0.00 | 0.00 | 70 | 1010.8 |
| 20260506185926 | 65 | 96 | 1.7 | 1.7 | 0.00 | 0.00 | 0.00 | 70 | 1010.8 |
| 20260506185826 | 65 | 135 | 1.7 | 1.7 | 0.00 | 0.00 | 0.00 | 70 | 1010.8 |
| 20260506185726 | 65 | 150 | 0.9 | 1.7 | 0.00 | 0.00 | 0.00 | 70 | 1011.0 |
| 20260506185626 | 65 | 159 | 0.0 | 1.7 | 0.00 | 0.00 | 0.00 | 69 | 1010.8 |
| 20260506185526 | 66 | 163 | 0.0 | 1.7 | 0.00 | 0.00 | 0.00 | 69 | 1010.8 |
| 20260506185426 | 65 | 163 | 0.0 | 1.7 | 0.00 | 0.00 | 0.00 | 69 | 1010.8 |
| 20260506185326 | 65 | 180 | 0.9 | 1.7 | 0.00 | 0.00 | 0.00 | 68 | 1010.7 |
| 20260506185226 | 65 | 195 | 0.9 | 1.7 | 0.00 | 0.00 | 0.00 | 69 | 1010.8 |
| 20260506185126 | 65 | 205 | 0.9 | 1.7 | 0.00 | 0.00 | 0.00 | 69 | 1010.4 |
| 20260506185026 | 65 | 209 | 0.0 | 1.7 | 0.00 | 0.00 | 0.00 | 70 | 1010.7 |
| 20260506184926 | 65 | 215 | 0.0 | 1.7 | 0.00 | 0.00 | 0.00 | 70 | 1010.8 |
| 20260506184826 | 65 | 218 | 0.0 | 1.7 | 0.00 | 0.00 | 0.00 | 70 | 1010.6 |
| 20260506184726 | 65 | 221 | 0.0 | 1.7 | 0.00 | 0.00 | 0.00 | 70 | 1010.8 |
| 20260506184626 | 65 | 222 | 0.0 | 1.7 | 0.00 | 0.00 | 0.00 | 70 | 1010.8 |
| 20260506184526 | 65 | 220 | 0.0 | 1.7 | 0.00 | 0.00 | 0.00 | 70 | 1010.8 |
| 20260506184426 | 65 | 217 | 0.0 | 1.7 | 0.00 | 0.00 | 0.00 | 70 | 1010.8 |
| 20260506184326 | 65 | 213 | 0.9 | 1.7 | 0.00 | 0.00 | 0.00 | 70 | 1010.7 |
| 20260506184226 | 65 | 208 | 0.0 | 1.7 | 0.00 | 0.00 | 0.00 | 71 | 1010.7 |
| 20260506184125 | 65 | 202 | 0.0 | 1.7 | 0.00 | 0.00 | 0.00 | 71 | 1010.7 |
| 20260506184026 | 65 | 196 | 0.9 | 1.7 | 0.00 | 0.00 | 0.00 | 71 | 1010.7 |
| 20260506183926 | 65 | 185 | 1.7 | 1.7 | 0.00 | 0.00 | 0.00 | 71 | 1010.6 |
| 20260506183826 | 65 | 173 | 1.7 | 1.7 | 0.00 | 0.00 | 0.00 | 71 | 1010.7 |
| 20260506183726 | 65 | 155 | 1.7 | 1.7 | 0.00 | 0.00 | 0.00 | 71 | 1010.7 |
| 20260506183626 | 66 | 140 | 1.7 | 1.7 | 0.00 | 0.00 | 0.00 | 71 | 1010.8 |
| 20260506183526 | 66 | 126 | 1.7 | 1.7 | 0.00 | 0.00 | 0.00 | 71 | 1010.6 |
| 20260506183426 | 66 | 114 | 1.7 | 1.7 | 0.00 | 0.00 | 0.00 | 71 | 1010.7 |
| 20260506183326 | 66 | 103 | 0.9 | 1.7 | 0.00 | 0.00 | 0.00 | 71 | 1010.4 |
| 20260506183226 | 66 | 98 | 0.9 | 1.7 | 0.00 | 0.00 | 0.00 | 71 | 1010.6 |
| 20260506183126 | 66 | 94 | 0.9 | 1.7 | 0.00 | 0.00 | 0.00 | 70 | 1010.6 |
| 20260506183026 | 66 | 91 | 0.9 | 1.7 | 0.00 | 0.00 | 0.00 | 71 | 1010.6 |
| 20260506182926 | 66 | 85 | 0.9 | 1.7 | 0.00 | 0.00 | 0.00 | 71 | 1010.6 |
| 20260506182826 | 66 | 82 | 0.9 | 1.7 | 0.00 | 0.00 | 0.00 | 71 | 1010.4 |
| 20260506182726 | 66 | 79 | 0.9 | 1.7 | 0.00 | 0.00 | 0.00 | 71 | 1010.5 |
| 20260506182626 | 66 | 77 | 0.9 | 1.7 | 0.00 | 0.00 | 0.00 | 71 | 1010.5 |
| 20260506182526 | 66 | 75 | 0.9 | 1.7 | 0.00 | 0.00 | 0.00 | 71 | 1010.8 |
| 20260506182426 | 66 | 73 | 0.9 | 1.7 | 0.00 | 0.00 | 0.00 | 71 | 1010.5 |
| 20260506182326 | 66 | 71 | 1.7 | 1.7 | 0.00 | 0.00 | 0.00 | 71 | 1010.5 |
| 20260506182226 | 66 | 69 | 1.7 | 1.7 | 0.00 | 0.00 | 0.00 | 71 | 1010.7 |
| 20260506182126 | 66 | 68 | 1.7 | 1.7 | 0.00 | 0.00 | 0.00 | 70 | 1010.5 |
| 20260506182026 | 66 | 67 | 1.7 | 1.7 | 0.00 | 0.00 | 0.00 | 70 | 1010.5 |
| 20260506181926 | 67 | 67 | 1.7 | 1.7 | 0.00 | 0.00 | 0.00 | 70 | 1010.7 |
| 20260506181825 | 67 | 67 | 1.7 | 1.7 | 0.00 | 0.00 | 0.00 | 70 | 1010.7 |
| 20260506181726 | 67 | 67 | 1.7 | 1.7 | 0.00 | 0.00 | 0.00 | 69 | 1010.6 |
| 20260506181626 | 67 | 67 | 1.7 | 1.7 | 0.00 | 0.00 | 0.00 | 69 | 1010.5 |
| 20260506181526 | 67 | 67 | 0.9 | 1.7 | 0.00 | 0.00 | 0.00 | 69 | 1010.5 |
| 20260506181426 | 67 | 67 | 1.7 | 1.7 | 0.00 | 0.00 | 0.00 | 69 | 1010.5 |
| 20260506181325 | 67 | 67 | 0.9 | 1.7 | 0.00 | 0.00 | 0.00 | 69 | 1010.5 |
| 20260506181226 | 67 | 67 | 0.9 | 1.7 | 0.00 | 0.00 | 0.00 | 69 | 1010.5 |
| 20260506181126 | 67 | 68 | 0.9 | 1.7 | 0.00 | 0.00 | 0.00 | 69 | 1010.5 |
| 20260506181025 | 67 | 70 | 0.9 | 1.7 | 0.00 | 0.00 | 0.00 | 69 | 1010.4 |
| 20260506180926 | 67 | 72 | 0.9 | 1.7 | 0.00 | 0.00 | 0.00 | 69 | 1010.3 |
| 20260506180826 | 67 | 74 | 0.9 | 1.7 | 0.00 | 0.00 | 0.00 | 69 | 1010.4 |
| 20260506180726 | 67 | 76 | 1.7 | 1.7 | 0.00 | 0.00 | 0.00 | 69 | 1010.7 |
| 20260506180626 | 67 | 80 | 1.7 | 1.7 | 0.00 | 0.00 | 0.00 | 68 | 1010.5 |
| 20260506180526 | 67 | 82 | 1.7 | 1.7 | 0.00 | 0.00 | 0.00 | 68 | 1010.4 |
| 20260506180426 | 67 | 84 | 1.7 | 1.7 | 0.00 | 0.00 | 0.00 | 68 | 1010.5 |
| 20260506180326 | 67 | 89 | 1.7 | 1.7 | 0.00 | 0.00 | 0.00 | 68 | 1010.5 |
| 20260506180226 | 67 | 92 | 1.7 | 1.7 | 0.00 | 0.00 | 0.00 | 68 | 1010.5 |
| 20260506180126 | 67 | 92 | 1.7 | 1.7 | 0.00 | 0.00 | 0.00 | 68 | 1010.6 |
| 20260506180025 | 67 | 92 | 0.9 | 1.7 | 0.00 | 0.00 | 0.00 | 68 | 1010.4 |
| 20260506175925 | 67 | 90 | 0.9 | 1.7 | 0.00 | 0.00 | 0.00 | 68 | 1010.6 |
| 20260506175826 | 67 | 86 | 0.0 | 1.7 | 0.00 | 0.00 | 0.00 | 68 | 1010.6 |
| 20260506175726 | 67 | 83 | 0.0 | 1.7 | 0.00 | 0.00 | 0.00 | 67 | 1010.5 |
| 20260506175626 | 67 | 80 | 0.9 | 1.7 | 0.00 | 0.00 | 0.00 | 67 | 1010.4 |
| 20260506175526 | 67 | 77 | 0.9 | 1.7 | 0.00 | 0.00 | 0.00 | 67 | 1010.6 |
| 20260506175426 | 67 | 73 | 0.9 | 1.7 | 0.00 | 0.00 | 0.00 | 67 | 1010.5 |
| 20260506175326 | 67 | 69 | 0.0 | 1.7 | 0.00 | 0.00 | 0.00 | 67 | 1010.5 |
| 20260506175226 | 67 | 67 | 0.0 | 1.7 | 0.00 | 0.00 | 0.00 | 67 | 1010.3 |
| 20260506175125 | 67 | 67 | 0.0 | 1.7 | 0.00 | 0.00 | 0.00 | 67 | 1010.6 |
| 20260506175026 | 67 | 64 | 0.0 | 1.7 | 0.00 | 0.00 | 0.00 | 67 | 1010.3 |
| 20260506174926 | 67 | 62 | 0.9 | 1.7 | 0.00 | 0.00 | 0.00 | 67 | 1010.6 |
| 20260506174826 | 67 | 59 | 0.0 | 1.7 | 0.00 | 0.00 | 0.00 | 67 | 1010.4 |
| 20260506174726 | 67 | 57 | 0.0 | 1.7 | 0.00 | 0.00 | 0.00 | 67 | 1010.5 |
| 20260506174625 | 67 | 56 | 0.9 | 1.7 | 0.00 | 0.00 | 0.00 | 67 | 1010.4 |
| 20260506174526 | 67 | 54 | 0.0 | 1.7 | 0.00 | 0.00 | 0.00 | 67 | 1010.4 |
| 20260506174425 | 67 | 50 | 0.0 | 1.7 | 0.00 | 0.00 | 0.00 | 67 | 1010.5 |
| 20260506174326 | 67 | 42 | 0.9 | 1.7 | 0.00 | 0.00 | 0.00 | 67 | 1010.3 |
| 20260506174226 | 67 | 20 | 1.7 | 1.7 | 0.00 | 0.00 | 0.00 | 67 | 1010.4 |
| 20260506174126 | 67 | 340 | 1.7 | 1.7 | 0.00 | 0.00 | 0.00 | 67 | 1010.6 |
| 20260506174026 | 67 | 303 | 0.9 | 1.7 | 0.00 | 0.00 | 0.00 | 67 | 1010.7 |
| 20260506173925 | 67 | 268 | 1.7 | 1.7 | 0.00 | 0.00 | 0.00 | 67 | 1010.5 |
| 20260506173826 | 67 | 253 | 1.7 | 1.7 | 0.00 | 0.00 | 0.00 | 66 | 1010.6 |
| 20260506173725 | 67 | 247 | 1.7 | 1.7 | 0.00 | 0.00 | 0.00 | 66 | 1010.5 |
| 20260506173626 | 67 | 247 | 0.9 | 1.7 | 0.00 | 0.00 | 0.00 | 65 | 1010.5 |
| 20260506173525 | 67 | 247 | 1.7 | 1.7 | 0.00 | 0.00 | 0.00 | 65 | 1010.3 |
| 20260506173426 | 67 | 247 | 0.9 | 1.7 | 0.00 | 0.00 | 0.00 | 65 | 1010.6 |
| 20260506173326 | 67 | 247 | 0.0 | 1.7 | 0.00 | 0.00 | 0.00 | 66 | 1010.5 |
| 20260506173225 | 67 | 247 | 0.0 | 1.7 | 0.00 | 0.00 | 0.00 | 66 | 1010.4 |
| 20260506173125 | 67 | 247 | 0.0 | 1.7 | 0.00 | 0.00 | 0.00 | 66 | 1010.6 |
| 20260506173026 | 67 | 247 | 0.0 | 1.7 | 0.00 | 0.00 | 0.00 | 67 | 1010.5 |
| 20260506172926 | 67 | 247 | 0.0 | 1.7 | 0.00 | 0.00 | 0.00 | 67 | 1010.5 |
| 20260506172826 | 67 | 247 | 0.0 | 1.7 | 0.00 | 0.00 | 0.00 | 68 | 1010.4 |
| 20260506172726 | 67 | 247 | 0.0 | 1.7 | 0.00 | 0.00 | 0.00 | 68 | 1010.4 |
| 20260506172626 | 67 | 247 | 0.0 | 1.7 | 0.00 | 0.00 | 0.00 | 68 | 1010.4 |
| 20260506172525 | 67 | 247 | 0.0 | 1.7 | 0.00 | 0.00 | 0.00 | 68 | 1010.5 |
| 20260506172425 | 67 | 247 | 0.0 | 1.7 | 0.00 | 0.00 | 0.00 | 68 | 1010.4 |
| 20260506172326 | 67 | 247 | 0.0 | 1.7 | 0.00 | 0.00 | 0.00 | 68 | 1010.5 |
| 20260506172226 | 67 | 247 | 0.0 | 1.7 | 0.00 | 0.00 | 0.00 | 68 | 1010.3 |
| 20260506172125 | 67 | 247 | 0.0 | 1.7 | 0.00 | 0.00 | 0.00 | 68 | 1010.4 |
| 20260506172026 | 67 | 247 | 0.9 | 1.7 | 0.00 | 0.00 | 0.00 | 68 | 1010.3 |
| 20260506171926 | 68 | 247 | 1.7 | 1.7 | 0.00 | 0.00 | 0.00 | 67 | 1010.3 |
| 20260506171825 | 68 | 247 | 1.7 | 1.7 | 0.00 | 0.00 | 0.00 | 66 | 1010.3 |
| 20260506171726 | 68 | 247 | 1.7 | 1.7 | 0.00 | 0.00 | 0.00 | 65 | 1010.3 |
| 20260506171625 | 68 | 251 | 1.7 | 1.7 | 0.00 | 0.00 | 0.00 | 65 | 1010.3 |
| 20260506171526 | 68 | 256 | 1.7 | 1.7 | 0.00 | 0.00 | 0.00 | 64 | 1010.3 |
| 20260506171425 | 68 | 262 | 0.9 | 1.7 | 0.00 | 0.00 | 0.00 | 63 | 1010.3 |
| 20260506171325 | 68 | 266 | 0.9 | 1.7 | 0.00 | 0.00 | 0.00 | 63 | 1010.4 |
| 20260506171226 | 68 | 272 | 1.7 | 1.7 | 0.00 | 0.00 | 0.00 | 62 | 1010.4 |
| 20260506171126 | 68 | 277 | 1.7 | 1.7 | 0.00 | 0.00 | 0.00 | 62 | 1010.4 |
| 20260506171026 | 68 | 284 | 0.9 | 1.7 | 0.00 | 0.00 | 0.00 | 61 | 1010.2 |
| 20260506170926 | 68 | 289 | 0.9 | 1.7 | 0.00 | 0.00 | 0.00 | 61 | 1010.4 |
| 20260506170826 | 68 | 292 | 0.0 | 1.7 | 0.00 | 0.00 | 0.00 | 62 | 1010.5 |
| 20260506170725 | 68 | 292 | 0.0 | 1.7 | 0.00 | 0.00 | 0.00 | 62 | 1010.5 |
| 20260506170626 | 68 | 292 | 0.0 | 1.7 | 0.00 | 0.00 | 0.00 | 62 | 1010.2 |
| 20260506170526 | 68 | 292 | 0.9 | 1.7 | 0.00 | 0.00 | 0.00 | 62 | 1010.3 |
| 20260506170426 | 68 | 292 | 0.9 | 1.7 | 0.00 | 0.00 | 0.00 | 62 | 1010.4 |
| 20260506170325 | 68 | 292 | 0.9 | 1.7 | 0.00 | 0.00 | 0.00 | 62 | 1010.5 |
| 20260506165926 | 68 | 292 | 1.7 | 1.7 | 0.00 | 0.00 | 0.00 | 64 | 1010.5 |
| 20260506165826 | 68 | 292 | 1.7 | 1.7 | 0.00 | 0.00 | 0.00 | 64 | 1010.6 |
| 20260506165726 | 68 | 292 | 1.7 | 1.7 | 0.00 | 0.00 | 0.00 | 65 | 1010.4 |
| 20260506165626 | 67 | 292 | 1.7 | 1.7 | 0.00 | 0.00 | 0.00 | 65 | 1010.3 |
| 20260506165526 | 67 | 292 | 1.7 | 1.7 | 0.00 | 0.00 | 0.00 | 65 | 1010.5 |
| 20260506165425 | 67 | 292 | 1.7 | 1.7 | 0.00 | 0.00 | 0.00 | 66 | 1010.3 |
| 20260506165326 | 67 | 292 | 0.9 | 1.7 | 0.00 | 0.00 | 0.00 | 66 | 1010.6 |
| 20260506165226 | 67 | 292 | 0.9 | 1.7 | 0.00 | 0.00 | 0.00 | 66 | 1010.5 |
| 20260506165126 | 67 | 292 | 0.0 | 1.7 | 0.00 | 0.00 | 0.00 | 67 | 1010.6 |
| 20260506165026 | 67 | 292 | 0.0 | 1.7 | 0.00 | 0.00 | 0.00 | 67 | 1010.5 |
| 20260506164925 | 67 | 292 | 0.0 | 1.7 | 0.00 | 0.00 | 0.00 | 67 | 1010.5 |
| 20260506164825 | 67 | 292 | 0.0 | 1.7 | 0.00 | 0.00 | 0.00 | 67 | 1010.5 |
| 20260506164726 | 68 | 292 | 0.0 | 1.7 | 0.00 | 0.00 | 0.00 | 67 | 1010.7 |
| 20260506164626 | 67 | 292 | 0.0 | 1.7 | 0.00 | 0.00 | 0.00 | 67 | 1010.6 |
| 20260506164526 | 68 | 292 | 0.0 | 1.7 | 0.00 | 0.00 | 0.00 | 68 | 1010.6 |
| 20260506164426 | 68 | 292 | 0.9 | 1.7 | 0.00 | 0.00 | 0.00 | 68 | 1010.6 |
| 20260506164326 | 68 | 292 | 0.9 | 1.7 | 0.00 | 0.00 | 0.00 | 68 | 1010.6 |
| 20260506164226 | 68 | 292 | 1.7 | 1.7 | 0.00 | 0.00 | 0.00 | 68 | 1010.6 |
| 20260506164126 | 68 | 292 | 1.7 | 1.7 | 0.00 | 0.00 | 0.00 | 68 | 1010.5 |
| 20260506164026 | 68 | 292 | 1.7 | 1.7 | 0.00 | 0.00 | 0.00 | 68 | 1010.5 |
| 20260506163926 | 68 | 292 | 1.7 | 1.7 | 0.00 | 0.00 | 0.00 | 68 | 1010.5 |
| 20260506163825 | 68 | 292 | 1.7 | 1.7 | 0.00 | 0.00 | 0.00 | 68 | 1010.8 |
| 20260506163726 | 67 | 292 | 0.9 | 1.7 | 0.00 | 0.00 | 0.00 | 68 | 1010.6 |
| 20260506163626 | 68 | 292 | 0.9 | 1.7 | 0.00 | 0.00 | 0.00 | 68 | 1010.5 |
| 20260506163526 | 68 | 292 | 0.0 | 3.5 | 0.00 | 0.00 | 0.00 | 68 | 1010.5 |
| 20260506163426 | 68 | 295 | 0.0 | 3.5 | 0.00 | 0.00 | 0.00 | 68 | 1010.5 |
| 20260506163326 | 68 | 299 | 0.0 | 3.5 | 0.00 | 0.00 | 0.00 | 68 | 1010.4 |
| 20260506163225 | 68 | 299 | 0.0 | 3.5 | 0.00 | 0.00 | 0.00 | 68 | 1010.5 |
| 20260506163125 | 67 | 297 | 0.0 | 3.5 | 0.00 | 0.00 | 0.00 | 68 | 1010.6 |
| 20260506163026 | 67 | 297 | 0.0 | 3.5 | 0.00 | 0.00 | 0.00 | 68 | 1010.6 |
| 20260506162926 | 67 | 296 | 0.9 | 3.5 | 0.00 | 0.00 | 0.00 | 68 | 1010.5 |
| 20260506162826 | 67 | 296 | 1.7 | 3.5 | 0.00 | 0.00 | 0.00 | 68 | 1010.4 |
| 20260506162725 | 68 | 296 | 1.7 | 3.5 | 0.00 | 0.00 | 0.00 | 68 | 1010.5 |
| 20260506162625 | 67 | 296 | 1.7 | 3.5 | 0.00 | 0.00 | 0.00 | 68 | 1010.8 |
| 20260506162526 | 67 | 296 | 1.7 | 3.5 | 0.00 | 0.00 | 0.00 | 68 | 1010.7 |
| 20260506162426 | 68 | 296 | 2.6 | 3.5 | 0.00 | 0.00 | 0.00 | 69 | 1010.5 |
| 20260506162326 | 68 | 293 | 2.6 | 3.5 | 0.00 | 0.00 | 0.00 | 68 | 1010.7 |
| 20260506162226 | 68 | 291 | 2.6 | 3.5 | 0.00 | 0.00 | 0.00 | 68 | 1010.5 |
| 20260506162126 | 68 | 290 | 1.7 | 3.5 | 0.00 | 0.00 | 0.00 | 67 | 1010.6 |
| 20260506162025 | 68 | 289 | 1.7 | 3.5 | 0.00 | 0.00 | 0.00 | 67 | 1010.6 |
| 20260506161925 | 68 | 288 | 1.7 | 3.5 | 0.00 | 0.00 | 0.00 | 66 | 1010.7 |
| 20260506161825 | 68 | 287 | 1.7 | 1.7 | 0.00 | 0.00 | 0.00 | 67 | 1010.5 |
| 20260506161725 | 68 | 287 | 0.9 | 1.7 | 0.00 | 0.00 | 0.00 | 66 | 1010.6 |
| 20260506161626 | 68 | 293 | 0.0 | 1.7 | 0.00 | 0.00 | 0.00 | 66 | 1010.5 |
| 20260506161525 | 68 | 300 | 0.0 | 1.7 | 0.00 | 0.00 | 0.00 | 66 | 1010.6 |
| 20260506161425 | 68 | 308 | 0.0 | 1.7 | 0.00 | 0.00 | 0.00 | 66 | 1010.6 |
| 20260506161325 | 68 | 316 | 0.0 | 1.7 | 0.00 | 0.00 | 0.00 | 67 | 1010.7 |
| 20260506161226 | 68 | 325 | 0.9 | 1.7 | 0.00 | 0.00 | 0.00 | 67 | 1010.5 |
| 20260506161126 | 68 | 332 | 0.0 | 1.7 | 0.00 | 0.00 | 0.00 | 67 | 1010.6 |
| 20260506161026 | 68 | 339 | 0.0 | 1.7 | 0.00 | 0.00 | 0.00 | 66 | 1010.8 |
| 20260506160926 | 68 | 339 | 0.0 | 1.7 | 0.00 | 0.00 | 0.00 | 66 | 1010.8 |
| 20260506160825 | 68 | 342 | 0.0 | 1.7 | 0.00 | 0.00 | 0.00 | 66 | 1010.5 |
| 20260506160726 | 68 | 352 | 0.9 | 1.7 | 0.00 | 0.00 | 0.00 | 65 | 1010.6 |
| 20260506160626 | 68 | 358 | 0.0 | 1.7 | 0.00 | 0.00 | 0.00 | 65 | 1010.5 |
| 20260506160526 | 68 | 5 | 0.9 | 1.7 | 0.00 | 0.00 | 0.00 | 66 | 1010.6 |
| 20260506160425 | 68 | 26 | 0.9 | 1.7 | 0.00 | 0.00 | 0.00 | 66 | 1010.7 |
| 20260506160326 | 68 | 56 | 0.9 | 1.7 | 0.00 | 0.00 | 0.00 | 66 | 1010.8 |
| 20260506160225 | 69 | 84 | 0.0 | 1.7 | 0.00 | 0.00 | 0.00 | 66 | 1010.6 |
| 20260506160126 | 68 | 81 | 0.0 | 1.7 | 0.00 | 0.00 | 0.00 | 66 | 1010.5 |
| 20260506160025 | 68 | 78 | 0.0 | 1.7 | 0.00 | 0.00 | 0.00 | 66 | 1010.7 |
| 20260506155926 | 68 | 79 | 0.0 | 1.7 | 0.00 | 0.00 | 0.00 | 66 | 1010.6 |
| 20260506155826 | 69 | 77 | 0.0 | 1.7 | 0.00 | 0.00 | 0.00 | 67 | 1010.8 |
| 20260506155726 | 69 | 78 | 0.0 | 1.7 | 0.00 | 0.00 | 0.00 | 67 | 1010.8 |
| 20260506155626 | 69 | 79 | 0.0 | 1.7 | 0.00 | 0.00 | 0.00 | 67 | 1010.4 |
| 20260506155525 | 68 | 80 | 0.0 | 1.7 | 0.00 | 0.00 | 0.00 | 67 | 1010.5 |
| 20260506155426 | 68 | 79 | 0.9 | 1.7 | 0.00 | 0.00 | 0.00 | 67 | 1010.8 |
| 20260506155325 | 68 | 77 | 0.9 | 1.7 | 0.00 | 0.00 | 0.00 | 67 | 1010.6 |
| 20260506155226 | 68 | 77 | 0.9 | 1.7 | 0.00 | 0.00 | 0.00 | 67 | 1010.7 |
| 20260506155126 | 68 | 79 | 0.9 | 3.5 | 0.00 | 0.00 | 0.00 | 67 | 1010.4 |
| 20260506155026 | 68 | 80 | 1.7 | 3.5 | 0.00 | 0.00 | 0.00 | 67 | 1010.6 |
| 20260506154926 | 68 | 83 | 1.7 | 3.5 | 0.00 | 0.00 | 0.00 | 68 | 1010.5 |
| 20260506154826 | 68 | 88 | 1.7 | 3.5 | 0.00 | 0.00 | 0.00 | 68 | 1010.5 |
| 20260506154726 | 68 | 92 | 1.7 | 3.5 | 0.00 | 0.00 | 0.00 | 68 | 1010.1 |
| 20260506154626 | 68 | 97 | 1.7 | 3.5 | 0.00 | 0.00 | 0.00 | 68 | 1010.4 |
| 20260506154525 | 68 | 96 | 1.7 | 3.5 | 0.00 | 0.00 | 0.00 | 68 | 1010.6 |
| 20260506154425 | 68 | 98 | 1.7 | 3.5 | 0.00 | 0.00 | 0.00 | 68 | 1010.4 |
| 20260506154326 | 68 | 100 | 1.7 | 3.5 | 0.00 | 0.00 | 0.00 | 68 | 1010.3 |
| 20260506154225 | 68 | 101 | 1.7 | 3.5 | 0.00 | 0.00 | 0.00 | 67 | 1010.5 |
| 20260506154125 | 69 | 106 | 1.7 | 3.5 | 0.00 | 0.00 | 0.00 | 67 | 1010.5 |
| 20260506154026 | 69 | 112 | 1.7 | 3.5 | 0.00 | 0.00 | 0.00 | 67 | 1010.9 |
| 20260506153926 | 68 | 118 | 2.6 | 3.5 | 0.00 | 0.00 | 0.00 | 66 | 1010.6 |
| 20260506153825 | 68 | 121 | 1.7 | 3.5 | 0.00 | 0.00 | 0.00 | 65 | 1010.7 |
| 20260506153726 | 68 | 125 | 2.6 | 3.5 | 0.00 | 0.00 | 0.00 | 66 | 1010.4 |
| 20260506153625 | 68 | 129 | 1.7 | 3.5 | 0.00 | 0.00 | 0.00 | 66 | 1010.8 |
| 20260506153525 | 69 | 137 | 1.7 | 3.5 | 0.00 | 0.00 | 0.00 | 66 | 1010.8 |
| 20260506153426 | 69 | 144 | 1.7 | 3.5 | 0.00 | 0.00 | 0.00 | 66 | 1010.5 |
| 20260506153325 | 69 | 146 | 0.9 | 3.5 | 0.00 | 0.00 | 0.00 | 66 | 1010.8 |
| 20260506153226 | 69 | 148 | 1.7 | 3.5 | 0.00 | 0.00 | 0.00 | 65 | 1010.5 |
| 20260506153125 | 68 | 151 | 1.7 | 3.5 | 0.00 | 0.00 | 0.00 | 64 | 1010.6 |
| 20260506153026 | 68 | 150 | 1.7 | 3.5 | 0.00 | 0.00 | 0.00 | 64 | 1010.8 |
| 20260506152925 | 69 | 148 | 1.7 | 3.5 | 0.00 | 0.00 | 0.00 | 65 | 1010.6 |
| 20260506152825 | 69 | 147 | 1.7 | 5.2 | 0.00 | 0.00 | 0.00 | 64 | 1010.8 |
| 20260506152726 | 69 | 145 | 1.7 | 5.2 | 0.00 | 0.00 | 0.00 | 64 | 1010.6 |
| 20260506152625 | 68 | 142 | 1.7 | 5.2 | 0.00 | 0.00 | 0.00 | 64 | 1010.8 |
| 20260506152526 | 68 | 138 | 1.7 | 5.2 | 0.00 | 0.00 | 0.00 | 64 | 1010.9 |
| 20260506152426 | 68 | 136 | 2.6 | 5.2 | 0.00 | 0.00 | 0.00 | 64 | 1010.9 |
| 20260506152325 | 68 | 133 | 2.6 | 5.2 | 0.00 | 0.00 | 0.00 | 64 | 1010.7 |
| 20260506152225 | 69 | 132 | 2.6 | 5.2 | 0.00 | 0.00 | 0.00 | 64 | 1010.6 |
| 20260506152126 | 69 | 128 | 2.6 | 5.2 | 0.00 | 0.00 | 0.00 | 64 | 1010.6 |
| 20260506152025 | 68 | 124 | 3.5 | 5.2 | 0.00 | 0.00 | 0.00 | 64 | 1010.6 |
| 20260506151926 | 69 | 124 | 3.5 | 5.2 | 0.00 | 0.00 | 0.00 | 64 | 1010.9 |
| 20260506151825 | 69 | 122 | 3.5 | 3.5 | 0.00 | 0.00 | 0.00 | 64 | 1010.6 |
| 20260506151725 | 69 | 120 | 1.7 | 3.5 | 0.00 | 0.00 | 0.00 | 64 | 1010.7 |
| 20260506151625 | 69 | 123 | 1.7 | 3.5 | 0.00 | 0.00 | 0.00 | 64 | 1010.8 |
| 20260506151526 | 69 | 127 | 2.6 | 3.5 | 0.00 | 0.00 | 0.00 | 64 | 1010.9 |
| 20260506151425 | 69 | 129 | 1.7 | 5.2 | 0.00 | 0.00 | 0.00 | 64 | 1010.8 |
| 20260506151325 | 69 | 132 | 1.7 | 5.2 | 0.00 | 0.00 | 0.00 | 64 | 1010.9 |
| 20260506151225 | 69 | 133 | 1.7 | 5.2 | 0.00 | 0.00 | 0.00 | 64 | 1010.9 |
| 20260506151125 | 69 | 136 | 3.5 | 5.2 | 0.00 | 0.00 | 0.00 | 64 | 1010.8 |
| 20260506151026 | 69 | 141 | 2.6 | 5.2 | 0.00 | 0.00 | 0.00 | 65 | 1010.8 |
| 20260506150925 | 69 | 146 | 1.7 | 5.2 | 0.00 | 0.00 | 0.00 | 65 | 1010.9 |
| 20260506150825 | 69 | 150 | 2.6 | 5.2 | 0.00 | 0.00 | 0.00 | 64 | 1010.9 |
| 20260506150725 | 69 | 151 | 2.6 | 5.2 | 0.00 | 0.00 | 0.00 | 64 | 1010.9 |
| 20260506150625 | 69 | 152 | 3.5 | 5.2 | 0.00 | 0.00 | 0.00 | 64 | 1011.0 |
| 20260506150525 | 69 | 156 | 3.5 | 5.2 | 0.00 | 0.00 | 0.00 | 64 | 1011.0 |
| 20260506150425 | 69 | 157 | 3.5 | 5.2 | 0.00 | 0.00 | 0.00 | 63 | 1010.7 |
| 20260506150326 | 69 | 158 | 2.6 | 5.2 | 0.00 | 0.00 | 0.00 | 65 | 1011.1 |
| 20260506150225 | 69 | 162 | 3.5 | 5.2 | 0.00 | 0.00 | 0.00 | 63 | 1010.9 |
| 20260506150125 | 69 | 163 | 3.5 | 5.2 | 0.00 | 0.00 | 0.00 | 63 | 1010.8 |
| 20260506150025 | 69 | 161 | 2.6 | 6.1 | 0.00 | 0.00 | 0.00 | 63 | 1010.9 |
| 20260506145925 | 69 | 159 | 2.6 | 7.0 | 0.00 | 0.00 | 0.00 | 63 | 1011.0 |
| 20260506145826 | 69 | 158 | 3.5 | 7.0 | 0.00 | 0.00 | 0.00 | 63 | 1010.8 |
| 20260506145726 | 69 | 158 | 3.5 | 7.0 | 0.00 | 0.00 | 0.00 | 63 | 1010.8 |
| 20260506145626 | 69 | 155 | 2.6 | 7.0 | 0.00 | 0.00 | 0.00 | 63 | 1010.9 |
| 20260506145525 | 69 | 151 | 3.5 | 7.0 | 0.00 | 0.00 | 0.00 | 64 | 1010.8 |
| 20260506145426 | 69 | 151 | 3.5 | 7.0 | 0.00 | 0.00 | 0.00 | 63 | 1010.8 |
| 20260506145325 | 69 | 152 | 2.6 | 7.0 | 0.00 | 0.00 | 0.00 | 64 | 1010.7 |
| 20260506145225 | 69 | 153 | 2.6 | 7.0 | 0.00 | 0.00 | 0.00 | 64 | 1010.8 |
| 20260506145125 | 69 | 154 | 4.3 | 7.0 | 0.00 | 0.00 | 0.00 | 63 | 1010.9 |
| 20260506145025 | 69 | 157 | 3.5 | 7.0 | 0.00 | 0.00 | 0.00 | 63 | 1010.8 |
| 20260506144926 | 69 | 159 | 5.2 | 7.0 | 0.00 | 0.00 | 0.00 | 63 | 1010.8 |
| 20260506144826 | 69 | 160 | 4.3 | 7.0 | 0.00 | 0.00 | 0.00 | 63 | 1010.9 |
| 20260506144726 | 69 | 164 | 5.2 | 7.0 | 0.00 | 0.00 | 0.00 | 63 | 1010.9 |
| 20260506144626 | 69 | 169 | 5.2 | 7.0 | 0.00 | 0.00 | 0.00 | 63 | 1010.9 |
| 20260506144525 | 69 | 171 | 5.2 | 7.0 | 0.00 | 0.00 | 0.00 | 63 | 1010.8 |
| 20260506144425 | 69 | 173 | 3.5 | 5.2 | 0.00 | 0.00 | 0.00 | 63 | 1011.0 |
| 20260506144325 | 69 | 171 | 3.5 | 5.2 | 0.00 | 0.00 | 0.00 | 63 | 1010.7 |
| 20260506144226 | 69 | 163 | 3.5 | 6.1 | 0.00 | 0.00 | 0.00 | 63 | 1010.7 |
| 20260506144125 | 69 | 159 | 2.6 | 6.1 | 0.00 | 0.00 | 0.00 | 63 | 1010.9 |
| 20260506144026 | 69 | 155 | 2.6 | 7.0 | 0.00 | 0.00 | 0.00 | 62 | 1010.8 |
| 20260506143926 | 69 | 152 | 1.7 | 7.0 | 0.00 | 0.00 | 0.00 | 63 | 1010.7 |
| 20260506143826 | 69 | 152 | 2.6 | 7.0 | 0.00 | 0.00 | 0.00 | 62 | 1010.9 |
| 20260506143726 | 69 | 149 | 2.6 | 7.0 | 0.00 | 0.00 | 0.00 | 63 | 1010.6 |
| 20260506143625 | 69 | 143 | 3.5 | 7.0 | 0.00 | 0.00 | 0.00 | 63 | 1010.6 |
| 20260506143525 | 69 | 140 | 2.6 | 7.0 | 0.00 | 0.00 | 0.00 | 63 | 1010.7 |
| 20260506143426 | 69 | 138 | 3.5 | 7.0 | 0.00 | 0.00 | 0.00 | 63 | 1010.6 |
| 20260506143326 | 69 | 137 | 4.3 | 7.0 | 0.00 | 0.00 | 0.00 | 62 | 1010.3 |
| 20260506143225 | 69 | 137 | 4.3 | 7.0 | 0.00 | 0.00 | 0.00 | 61 | 1010.5 |
| 20260506143125 | 69 | 137 | 4.3 | 7.0 | 0.00 | 0.00 | 0.00 | 62 | 1010.7 |
| 20260506143026 | 69 | 137 | 3.5 | 6.1 | 0.00 | 0.00 | 0.00 | 62 | 1010.7 |
| 20260506142925 | 70 | 136 | 3.5 | 6.1 | 0.00 | 0.00 | 0.00 | 62 | 1010.8 |
| 20260506142825 | 70 | 130 | 3.5 | 6.1 | 0.00 | 0.00 | 0.00 | 62 | 1010.7 |
| 20260506142726 | 70 | 132 | 3.5 | 6.1 | 0.00 | 0.00 | 0.00 | 62 | 1010.9 |
| 20260506142625 | 70 | 136 | 3.5 | 5.2 | 0.00 | 0.00 | 0.00 | 62 | 1010.9 |
| 20260506142526 | 70 | 136 | 3.5 | 6.1 | 0.00 | 0.00 | 0.00 | 63 | 1010.7 |
| 20260506142425 | 70 | 133 | 3.5 | 6.1 | 0.00 | 0.00 | 0.00 | 62 | 1010.8 |
| 20260506142325 | 70 | 132 | 3.5 | 6.1 | 0.00 | 0.00 | 0.00 | 62 | 1010.8 |
| 20260506142225 | 71 | 133 | 1.7 | 6.1 | 0.00 | 0.00 | 0.00 | 63 | 1011.1 |
| 20260506142126 | 70 | 134 | 1.7 | 6.1 | 0.00 | 0.00 | 0.00 | 63 | 1010.6 |
| 20260506142025 | 70 | 134 | 2.6 | 7.0 | 0.00 | 0.00 | 0.00 | 63 | 1010.9 |
| 20260506141925 | 70 | 136 | 1.7 | 7.0 | 0.00 | 0.00 | 0.00 | 63 | 1010.8 |
| 20260506141825 | 70 | 137 | 2.6 | 7.0 | 0.00 | 0.00 | 0.00 | 63 | 1010.6 |
| 20260506141725 | 70 | 138 | 3.5 | 7.0 | 0.00 | 0.00 | 0.00 | 63 | 1010.7 |
| 20260506141625 | 70 | 138 | 2.6 | 7.0 | 0.00 | 0.00 | 0.00 | 63 | 1010.4 |
| 20260506141525 | 70 | 136 | 3.5 | 7.0 | 0.00 | 0.00 | 0.00 | 63 | 1010.6 |
| 20260506141425 | 70 | 138 | 3.5 | 7.0 | 0.00 | 0.00 | 0.00 | 63 | 1010.7 |
| 20260506141325 | 70 | 138 | 3.5 | 7.0 | 0.00 | 0.00 | 0.00 | 63 | 1010.3 |
| 20260506141226 | 70 | 135 | 3.5 | 7.8 | 0.00 | 0.00 | 0.00 | 63 | 1010.7 |
| 20260506141125 | 70 | 133 | 3.5 | 7.8 | 0.00 | 0.00 | 0.00 | 62 | 1010.7 |
| 20260506141026 | 71 | 132 | 3.5 | 9.6 | 0.00 | 0.00 | 0.00 | 63 | 1010.5 |
| 20260506140925 | 71 | 131 | 3.5 | 9.6 | 0.00 | 0.00 | 0.00 | 63 | 1010.7 |
| 20260506140825 | 70 | 131 | 3.5 | 9.6 | 0.00 | 0.00 | 0.00 | 63 | 1010.7 |
| 20260506140725 | 70 | 131 | 3.5 | 9.6 | 0.00 | 0.00 | 0.00 | 62 | 1010.6 |
| 20260506140625 | 70 | 130 | 4.3 | 9.6 | 0.00 | 0.00 | 0.00 | 63 | 1010.8 |
| 20260506140525 | 70 | 132 | 3.5 | 9.6 | 0.00 | 0.00 | 0.00 | 63 | 1010.6 |
| 20260506140426 | 70 | 130 | 3.5 | 9.6 | 0.00 | 0.00 | 0.00 | 62 | 1010.6 |
| 20260506140326 | 70 | 129 | 4.3 | 9.6 | 0.00 | 0.00 | 0.00 | 63 | 1010.6 |
| 20260506140225 | 70 | 128 | 6.1 | 9.6 | 0.00 | 0.00 | 0.00 | 62 | 1010.7 |
| 20260506140125 | 71 | 124 | 4.3 | 9.6 | 0.00 | 0.00 | 0.00 | 63 | 1010.8 |
| 20260506140026 | 71 | 122 | 6.1 | 9.6 | 0.00 | 0.00 | 0.00 | 63 | 1010.8 |
| 20260506135925 | 71 | 117 | 3.5 | 7.0 | 0.00 | 0.00 | 0.00 | 63 | 1010.8 |
| 20260506135825 | 71 | 118 | 4.3 | 6.1 | 0.00 | 0.00 | 0.00 | 62 | 1010.7 |
| 20260506135726 | 71 | 118 | 2.6 | 5.2 | 0.00 | 0.00 | 0.00 | 62 | 1010.8 |
| 20260506135626 | 71 | 115 | 3.5 | 5.2 | 0.00 | 0.00 | 0.00 | 61 | 1010.7 |
| 20260506135525 | 71 | 116 | 2.6 | 5.2 | 0.00 | 0.00 | 0.00 | 61 | 1010.9 |
| 20260506135425 | 71 | 117 | 2.6 | 6.1 | 0.00 | 0.00 | 0.00 | 61 | 1010.9 |
| 20260506135325 | 71 | 113 | 3.5 | 6.1 | 0.00 | 0.00 | 0.00 | 62 | 1011.0 |
| 20260506135225 | 71 | 114 | 3.5 | 6.1 | 0.00 | 0.00 | 0.00 | 62 | 1010.9 |
| 20260506135126 | 71 | 118 | 3.5 | 6.1 | 0.00 | 0.00 | 0.00 | 61 | 1010.9 |
| 20260506135025 | 71 | 120 | 3.5 | 6.1 | 0.00 | 0.00 | 0.00 | 60 | 1010.8 |
| 20260506134925 | 71 | 124 | 3.5 | 7.0 | 0.00 | 0.00 | 0.00 | 61 | 1011.1 |
| 20260506134825 | 71 | 122 | 2.6 | 7.0 | 0.00 | 0.00 | 0.00 | 60 | 1011.0 |
| 20260506134725 | 71 | 116 | 3.5 | 7.0 | 0.00 | 0.00 | 0.00 | 60 | 1010.7 |
| 20260506134625 | 71 | 115 | 2.6 | 7.0 | 0.00 | 0.00 | 0.00 | 60 | 1011.1 |
| 20260506134525 | 71 | 113 | 1.7 | 7.0 | 0.00 | 0.00 | 0.00 | 60 | 1011.0 |
| 20260506134425 | 71 | 114 | 3.5 | 7.0 | 0.00 | 0.00 | 0.00 | 61 | 1010.9 |
| 20260506134325 | 71 | 117 | 3.5 | 7.0 | 0.00 | 0.00 | 0.00 | 60 | 1010.8 |
| 20260506134225 | 71 | 120 | 3.5 | 7.0 | 0.00 | 0.00 | 0.00 | 61 | 1010.7 |
| 20260506134125 | 71 | 123 | 3.5 | 7.0 | 0.00 | 0.00 | 0.00 | 60 | 1010.9 |
| 20260506134025 | 71 | 123 | 4.3 | 7.0 | 0.00 | 0.00 | 0.00 | 61 | 1011.0 |
| 20260506133925 | 71 | 121 | 4.3 | 7.0 | 0.00 | 0.00 | 0.00 | 59 | 1010.9 |
| 20260506133825 | 71 | 116 | 3.5 | 7.0 | 0.00 | 0.00 | 0.00 | 60 | 1011.1 |
| 20260506133725 | 71 | 114 | 4.3 | 7.0 | 0.00 | 0.00 | 0.00 | 60 | 1010.8 |
| 20260506133626 | 71 | 116 | 4.3 | 7.0 | 0.00 | 0.00 | 0.00 | 59 | 1010.8 |
| 20260506133525 | 71 | 115 | 5.2 | 7.0 | 0.00 | 0.00 | 0.00 | 60 | 1010.7 |
| 20260506133425 | 72 | 109 | 4.3 | 7.0 | 0.00 | 0.00 | 0.00 | 59 | 1010.9 |
| 20260506133325 | 72 | 105 | 2.6 | 7.0 | 0.00 | 0.00 | 0.00 | 61 | 1010.8 |
| 20260506133225 | 72 | 98 | 2.6 | 7.0 | 0.00 | 0.00 | 0.00 | 61 | 1010.9 |
| 20260506133125 | 71 | 94 | 3.5 | 7.0 | 0.00 | 0.00 | 0.00 | 59 | 1011.0 |
| 20260506133026 | 72 | 89 | 3.5 | 7.0 | 0.00 | 0.00 | 0.00 | 60 | 1010.8 |
| 20260506132925 | 72 | 83 | 4.3 | 7.0 | 0.00 | 0.00 | 0.00 | 58 | 1010.9 |
| 20260506132825 | 73 | 75 | 3.5 | 6.1 | 0.00 | 0.00 | 0.00 | 57 | 1010.9 |
| 20260506132725 | 73 | 74 | 1.7 | 3.5 | 0.00 | 0.00 | 0.00 | 57 | 1010.8 |
| 20260506132625 | 72 | 87 | 1.7 | 3.5 | 0.00 | 0.00 | 0.00 | 52 | 1011.1 |
| 20260506132525 | 72 | 114 | 2.6 | 3.5 | 0.00 | 0.00 | 0.00 | 52 | 1010.9 |
| 20260506132425 | 73 | 209 | 2.6 | 3.5 | 0.00 | 0.00 | 0.00 | 52 | 1011.1 |
| 20260506132325 | 74 | 217 | 0.9 | 3.5 | 0.00 | 0.00 | 0.00 | 54 | 1011.1 |
| 20260506132225 | 74 | 205 | 0.9 | 3.5 | 0.00 | 0.00 | 0.00 | 54 | 1011.0 |
| 20260506132125 | 74 | 203 | 0.0 | 3.5 | 0.00 | 0.00 | 0.00 | 55 | 1011.1 |
| 20260506132025 | 74 | 192 | 0.9 | 3.5 | 0.00 | 0.00 | 0.00 | 55 | 1011.1 |
| 20260506131925 | 74 | 189 | 0.0 | 3.5 | 0.00 | 0.00 | 0.00 | 55 | 1011.1 |
| 20260506131825 | 73 | 186 | 0.0 | 3.5 | 0.00 | 0.00 | 0.00 | 56 | 1011.1 |
| 20260506131725 | 73 | 180 | 0.0 | 3.5 | 0.00 | 0.00 | 0.00 | 56 | 1011.0 |
| 20260506131625 | 72 | 179 | 0.0 | 3.5 | 0.00 | 0.00 | 0.00 | 56 | 1011.0 |
| 20260506131525 | 72 | 179 | 0.0 | 3.5 | 0.00 | 0.00 | 0.00 | 56 | 1010.9 |
| 20260506131425 | 72 | 174 | 1.7 | 3.5 | 0.00 | 0.00 | 0.00 | 56 | 1011.1 |
| 20260506131325 | 72 | 153 | 0.9 | 3.5 | 0.00 | 0.00 | 0.00 | 56 | 1011.1 |
| 20260506131225 | 72 | 133 | 0.9 | 1.7 | 0.00 | 0.00 | 0.00 | 56 | 1011.0 |
| 20260506131125 | 72 | 123 | 0.0 | 1.7 | 0.00 | 0.00 | 0.00 | 55 | 1011.1 |
| 20260506131025 | 73 | 125 | 0.0 | 1.7 | 0.00 | 0.00 | 0.00 | 56 | 1011.1 |
| 20260506130926 | 73 | 122 | 0.0 | 3.5 | 0.00 | 0.00 | 0.00 | 56 | 1010.8 |
| 20260506130825 | 72 | 113 | 0.0 | 3.5 | 0.00 | 0.00 | 0.00 | 55 | 1011.2 |
| 20260506130725 | 72 | 99 | 0.0 | 5.2 | 0.00 | 0.00 | 0.00 | 55 | 1011.2 |
| 20260506130625 | 72 | 95 | 0.9 | 5.2 | 0.00 | 0.00 | 0.00 | 55 | 1011.2 |
| 20260506130525 | 71 | 93 | 1.7 | 5.2 | 0.00 | 0.00 | 0.00 | 55 | 1011.1 |
| 20260506130425 | 72 | 94 | 0.9 | 5.2 | 0.00 | 0.00 | 0.00 | 57 | 1011.3 |
| 20260506130325 | 72 | 95 | 0.9 | 5.2 | 0.00 | 0.00 | 0.00 | 57 | 1011.2 |
| 20260506130225 | 71 | 96 | 0.9 | 5.2 | 0.00 | 0.00 | 0.00 | 56 | 1011.2 |
| 20260506130125 | 71 | 98 | 0.9 | 5.2 | 0.00 | 0.00 | 0.00 | 57 | 1011.1 |
| 20260506130025 | 71 | 100 | 1.7 | 5.2 | 0.00 | 0.00 | 0.00 | 57 | 1011.1 |
| 20260506125925 | 70 | 100 | 1.7 | 5.2 | 0.00 | 0.00 | 0.00 | 56 | 1011.2 |
| 20260506125825 | 71 | 102 | 3.5 | 5.2 | 0.00 | 0.00 | 0.00 | 56 | 1011.4 |
| 20260506125725 | 71 | 113 | 1.7 | 3.5 | 0.00 | 0.00 | 0.00 | 56 | 1011.2 |
| 20260506125625 | 71 | 116 | 0.9 | 3.5 | 0.00 | 0.00 | 0.00 | 57 | 1011.2 |
| 20260506125525 | 71 | 117 | 0.9 | 3.5 | 0.00 | 0.00 | 0.00 | 57 | 1011.3 |
| 20260506125425 | 70 | 117 | 1.7 | 3.5 | 0.00 | 0.00 | 0.00 | 57 | 1011.2 |
| 20260506125325 | 71 | 114 | 1.7 | 3.5 | 0.00 | 0.00 | 0.00 | 58 | 1011.2 |
| 20260506125225 | 70 | 115 | 2.6 | 3.5 | 0.00 | 0.00 | 0.00 | 58 | 1011.2 |